<?xml version="1.0" encoding="UTF-8" standalone="no" ?>
<gpx xmlns="http://www.topografix.com/GPX/1/1" xmlns:xsi="http://www.w3.org/2001/XMLSchema-instance" xsi:schemaLocation="http://www.topografix.com/GPX/1/1 http://www.topografix.com/GPX/1/1/gpx.xsd" version="1.1" creator="VisuGPX - https://www.visugpx.com">
  <metadata>
    <name>Boucle Uzes</name>
  </metadata>
  <trk>
    <name><![CDATA[Boucle Uzes]]></name>
    <trkseg>
      <trkpt lat="44.01295" lon="4.39723">
        <ele>96.9</ele>
        <time>2014-10-26T07:58:27Z</time>
      </trkpt>
      <trkpt lat="44.01295" lon="4.39724">
        <ele>97.1</ele>
        <time>2014-10-26T07:58:28Z</time>
      </trkpt>
      <trkpt lat="44.01296" lon="4.39738">
        <ele>96.8</ele>
        <time>2014-10-26T07:58:38Z</time>
      </trkpt>
      <trkpt lat="44.01293" lon="4.39751">
        <ele>96.4</ele>
        <time>2014-10-26T07:58:47Z</time>
      </trkpt>
      <trkpt lat="44.01292" lon="4.39764">
        <ele>95.9</ele>
        <time>2014-10-26T07:58:54Z</time>
      </trkpt>
      <trkpt lat="44.0129" lon="4.39778">
        <ele>95.6</ele>
        <time>2014-10-26T07:59:02Z</time>
      </trkpt>
      <trkpt lat="44.01289" lon="4.39791">
        <ele>95.2</ele>
        <time>2014-10-26T07:59:09Z</time>
      </trkpt>
      <trkpt lat="44.01287" lon="4.39804">
        <ele>94.8</ele>
        <time>2014-10-26T07:59:16Z</time>
      </trkpt>
      <trkpt lat="44.01286" lon="4.39818">
        <ele>94.7</ele>
        <time>2014-10-26T07:59:23Z</time>
      </trkpt>
      <trkpt lat="44.01285" lon="4.39832">
        <ele>94.4</ele>
        <time>2014-10-26T07:59:33Z</time>
      </trkpt>
      <trkpt lat="44.01284" lon="4.39844">
        <ele>94</ele>
        <time>2014-10-26T07:59:40Z</time>
      </trkpt>
      <trkpt lat="44.01284" lon="4.39858">
        <ele>94.1</ele>
        <time>2014-10-26T07:59:47Z</time>
      </trkpt>
      <trkpt lat="44.01283" lon="4.39871">
        <ele>94.1</ele>
        <time>2014-10-26T07:59:55Z</time>
      </trkpt>
      <trkpt lat="44.01279" lon="4.39883">
        <ele>93.7</ele>
        <time>2014-10-26T08:00:02Z</time>
      </trkpt>
      <trkpt lat="44.01272" lon="4.39893">
        <ele>93.4</ele>
        <time>2014-10-26T08:00:09Z</time>
      </trkpt>
      <trkpt lat="44.01262" lon="4.39895">
        <ele>93.3</ele>
        <time>2014-10-26T08:00:15Z</time>
      </trkpt>
      <trkpt lat="44.01253" lon="4.39893">
        <ele>92.8</ele>
        <time>2014-10-26T08:00:22Z</time>
      </trkpt>
      <trkpt lat="44.01244" lon="4.39889">
        <ele>92.7</ele>
        <time>2014-10-26T08:00:29Z</time>
      </trkpt>
      <trkpt lat="44.01235" lon="4.39884">
        <ele>92.6</ele>
        <time>2014-10-26T08:00:35Z</time>
      </trkpt>
      <trkpt lat="44.01225" lon="4.39881">
        <ele>92.5</ele>
        <time>2014-10-26T08:00:43Z</time>
      </trkpt>
      <trkpt lat="44.01217" lon="4.39872">
        <ele>92.4</ele>
        <time>2014-10-26T08:00:50Z</time>
      </trkpt>
      <trkpt lat="44.01209" lon="4.39866">
        <ele>92.1</ele>
        <time>2014-10-26T08:00:57Z</time>
      </trkpt>
      <trkpt lat="44.01201" lon="4.3986">
        <ele>91.9</ele>
        <time>2014-10-26T08:01:03Z</time>
      </trkpt>
      <trkpt lat="44.01192" lon="4.39856">
        <ele>91.6</ele>
        <time>2014-10-26T08:01:10Z</time>
      </trkpt>
      <trkpt lat="44.01182" lon="4.39851">
        <ele>91.5</ele>
        <time>2014-10-26T08:01:17Z</time>
      </trkpt>
      <trkpt lat="44.01173" lon="4.39847">
        <ele>91.4</ele>
        <time>2014-10-26T08:01:23Z</time>
      </trkpt>
      <trkpt lat="44.01164" lon="4.39842">
        <ele>91.3</ele>
        <time>2014-10-26T08:01:31Z</time>
      </trkpt>
      <trkpt lat="44.01155" lon="4.39837">
        <ele>90.8</ele>
        <time>2014-10-26T08:01:39Z</time>
      </trkpt>
      <trkpt lat="44.01146" lon="4.39831">
        <ele>90.5</ele>
        <time>2014-10-26T08:01:46Z</time>
      </trkpt>
      <trkpt lat="44.01138" lon="4.39825">
        <ele>90.2</ele>
        <time>2014-10-26T08:01:52Z</time>
      </trkpt>
      <trkpt lat="44.01132" lon="4.39814">
        <ele>90.3</ele>
        <time>2014-10-26T08:01:59Z</time>
      </trkpt>
      <trkpt lat="44.01124" lon="4.39808">
        <ele>90</ele>
        <time>2014-10-26T08:02:05Z</time>
      </trkpt>
      <trkpt lat="44.01116" lon="4.39801">
        <ele>89.6</ele>
        <time>2014-10-26T08:02:11Z</time>
      </trkpt>
      <trkpt lat="44.01107" lon="4.39795">
        <ele>89.5</ele>
        <time>2014-10-26T08:02:18Z</time>
      </trkpt>
      <trkpt lat="44.01099" lon="4.39789">
        <ele>89.6</ele>
        <time>2014-10-26T08:02:23Z</time>
      </trkpt>
      <trkpt lat="44.0109" lon="4.39783">
        <ele>89.4</ele>
        <time>2014-10-26T08:02:29Z</time>
      </trkpt>
      <trkpt lat="44.01082" lon="4.39777">
        <ele>89.2</ele>
        <time>2014-10-26T08:02:37Z</time>
      </trkpt>
      <trkpt lat="44.01073" lon="4.3977">
        <ele>89.1</ele>
        <time>2014-10-26T08:02:45Z</time>
      </trkpt>
      <trkpt lat="44.01065" lon="4.39765">
        <ele>89.2</ele>
        <time>2014-10-26T08:02:52Z</time>
      </trkpt>
      <trkpt lat="44.01057" lon="4.39757">
        <ele>88.9</ele>
        <time>2014-10-26T08:03:00Z</time>
      </trkpt>
      <trkpt lat="44.01051" lon="4.39748">
        <ele>89.1</ele>
        <time>2014-10-26T08:03:08Z</time>
      </trkpt>
      <trkpt lat="44.01043" lon="4.3974">
        <ele>88.8</ele>
        <time>2014-10-26T08:03:15Z</time>
      </trkpt>
      <trkpt lat="44.01034" lon="4.39737">
        <ele>88.8</ele>
        <time>2014-10-26T08:05:47Z</time>
      </trkpt>
      <trkpt lat="44.01031" lon="4.39724">
        <ele>88.8</ele>
        <time>2014-10-26T08:05:55Z</time>
      </trkpt>
      <trkpt lat="44.01033" lon="4.39711">
        <ele>89</ele>
        <time>2014-10-26T08:06:01Z</time>
      </trkpt>
      <trkpt lat="44.01032" lon="4.39697">
        <ele>89.1</ele>
        <time>2014-10-26T08:06:07Z</time>
      </trkpt>
      <trkpt lat="44.0103" lon="4.39684">
        <ele>88.9</ele>
        <time>2014-10-26T08:06:13Z</time>
      </trkpt>
      <trkpt lat="44.01025" lon="4.39672">
        <ele>89.5</ele>
        <time>2014-10-26T08:06:19Z</time>
      </trkpt>
      <trkpt lat="44.01023" lon="4.39659">
        <ele>89.6</ele>
        <time>2014-10-26T08:06:25Z</time>
      </trkpt>
      <trkpt lat="44.0102" lon="4.39646">
        <ele>89.6</ele>
        <time>2014-10-26T08:06:31Z</time>
      </trkpt>
      <trkpt lat="44.01018" lon="4.39633">
        <ele>89.7</ele>
        <time>2014-10-26T08:06:38Z</time>
      </trkpt>
      <trkpt lat="44.01017" lon="4.3962">
        <ele>89.9</ele>
        <time>2014-10-26T08:06:44Z</time>
      </trkpt>
      <trkpt lat="44.01013" lon="4.39606">
        <ele>89.9</ele>
        <time>2014-10-26T08:06:51Z</time>
      </trkpt>
      <trkpt lat="44.01012" lon="4.39593">
        <ele>89.8</ele>
        <time>2014-10-26T08:06:56Z</time>
      </trkpt>
      <trkpt lat="44.01011" lon="4.3958">
        <ele>90.1</ele>
        <time>2014-10-26T08:07:02Z</time>
      </trkpt>
      <trkpt lat="44.0101" lon="4.39567">
        <ele>90.2</ele>
        <time>2014-10-26T08:07:07Z</time>
      </trkpt>
      <trkpt lat="44.01009" lon="4.39553">
        <ele>90.5</ele>
        <time>2014-10-26T08:07:13Z</time>
      </trkpt>
      <trkpt lat="44.01009" lon="4.39539">
        <ele>90.6</ele>
        <time>2014-10-26T08:07:20Z</time>
      </trkpt>
      <trkpt lat="44.01008" lon="4.39525">
        <ele>90.8</ele>
        <time>2014-10-26T08:07:29Z</time>
      </trkpt>
      <trkpt lat="44.0101" lon="4.39511">
        <ele>91.1</ele>
        <time>2014-10-26T08:07:38Z</time>
      </trkpt>
      <trkpt lat="44.01004" lon="4.395">
        <ele>91.1</ele>
        <time>2014-10-26T08:07:45Z</time>
      </trkpt>
      <trkpt lat="44.01" lon="4.39487">
        <ele>91</ele>
        <time>2014-10-26T08:07:51Z</time>
      </trkpt>
      <trkpt lat="44.00996" lon="4.39473">
        <ele>90.3</ele>
        <time>2014-10-26T08:07:58Z</time>
      </trkpt>
      <trkpt lat="44.00992" lon="4.39461">
        <ele>90.4</ele>
        <time>2014-10-26T08:08:04Z</time>
      </trkpt>
      <trkpt lat="44.00988" lon="4.39449">
        <ele>90.3</ele>
        <time>2014-10-26T08:08:11Z</time>
      </trkpt>
      <trkpt lat="44.00983" lon="4.39437">
        <ele>90.2</ele>
        <time>2014-10-26T08:08:17Z</time>
      </trkpt>
      <trkpt lat="44.00977" lon="4.39427">
        <ele>90.7</ele>
        <time>2014-10-26T08:08:24Z</time>
      </trkpt>
      <trkpt lat="44.00974" lon="4.39414">
        <ele>90.1</ele>
        <time>2014-10-26T08:08:32Z</time>
      </trkpt>
      <trkpt lat="44.00969" lon="4.39402">
        <ele>90.1</ele>
        <time>2014-10-26T08:08:38Z</time>
      </trkpt>
      <trkpt lat="44.00965" lon="4.39388">
        <ele>90.2</ele>
        <time>2014-10-26T08:08:44Z</time>
      </trkpt>
      <trkpt lat="44.00961" lon="4.39376">
        <ele>90.5</ele>
        <time>2014-10-26T08:08:50Z</time>
      </trkpt>
      <trkpt lat="44.00957" lon="4.39362">
        <ele>90.5</ele>
        <time>2014-10-26T08:08:56Z</time>
      </trkpt>
      <trkpt lat="44.00953" lon="4.39349">
        <ele>90.3</ele>
        <time>2014-10-26T08:09:02Z</time>
      </trkpt>
      <trkpt lat="44.00951" lon="4.39337">
        <ele>90.3</ele>
        <time>2014-10-26T08:09:10Z</time>
      </trkpt>
      <trkpt lat="44.00945" lon="4.39325">
        <ele>90.4</ele>
        <time>2014-10-26T08:09:18Z</time>
      </trkpt>
      <trkpt lat="44.00941" lon="4.39312">
        <ele>90.6</ele>
        <time>2014-10-26T08:09:25Z</time>
      </trkpt>
      <trkpt lat="44.00937" lon="4.39299">
        <ele>90.7</ele>
        <time>2014-10-26T08:09:29Z</time>
      </trkpt>
      <trkpt lat="44.00932" lon="4.39288">
        <ele>90.9</ele>
        <time>2014-10-26T08:09:34Z</time>
      </trkpt>
      <trkpt lat="44.00924" lon="4.39281">
        <ele>90.9</ele>
        <time>2014-10-26T08:09:40Z</time>
      </trkpt>
      <trkpt lat="44.00918" lon="4.3927">
        <ele>90.9</ele>
        <time>2014-10-26T08:09:47Z</time>
      </trkpt>
      <trkpt lat="44.00913" lon="4.39258">
        <ele>91.2</ele>
        <time>2014-10-26T08:09:54Z</time>
      </trkpt>
      <trkpt lat="44.00911" lon="4.39244">
        <ele>91.1</ele>
        <time>2014-10-26T08:10:01Z</time>
      </trkpt>
      <trkpt lat="44.00905" lon="4.39233">
        <ele>91.2</ele>
        <time>2014-10-26T08:10:07Z</time>
      </trkpt>
      <trkpt lat="44.009" lon="4.39223">
        <ele>91.2</ele>
        <time>2014-10-26T08:10:13Z</time>
      </trkpt>
      <trkpt lat="44.00893" lon="4.39212">
        <ele>91.2</ele>
        <time>2014-10-26T08:10:20Z</time>
      </trkpt>
      <trkpt lat="44.00885" lon="4.39201">
        <ele>91.1</ele>
        <time>2014-10-26T08:10:27Z</time>
      </trkpt>
      <trkpt lat="44.00879" lon="4.39192">
        <ele>91.5</ele>
        <time>2014-10-26T08:10:33Z</time>
      </trkpt>
      <trkpt lat="44.00872" lon="4.39181">
        <ele>91.4</ele>
        <time>2014-10-26T08:10:39Z</time>
      </trkpt>
      <trkpt lat="44.00866" lon="4.39171">
        <ele>91.5</ele>
        <time>2014-10-26T08:10:45Z</time>
      </trkpt>
      <trkpt lat="44.0086" lon="4.39161">
        <ele>91.8</ele>
        <time>2014-10-26T08:10:52Z</time>
      </trkpt>
      <trkpt lat="44.00854" lon="4.3915">
        <ele>92</ele>
        <time>2014-10-26T08:10:58Z</time>
      </trkpt>
      <trkpt lat="44.00848" lon="4.3914">
        <ele>92.3</ele>
        <time>2014-10-26T08:11:04Z</time>
      </trkpt>
      <trkpt lat="44.00841" lon="4.39128">
        <ele>92.5</ele>
        <time>2014-10-26T08:11:11Z</time>
      </trkpt>
      <trkpt lat="44.00833" lon="4.39118">
        <ele>92.4</ele>
        <time>2014-10-26T08:11:18Z</time>
      </trkpt>
      <trkpt lat="44.00827" lon="4.39109">
        <ele>92.7</ele>
        <time>2014-10-26T08:11:25Z</time>
      </trkpt>
      <trkpt lat="44.00822" lon="4.39098">
        <ele>92.9</ele>
        <time>2014-10-26T08:11:33Z</time>
      </trkpt>
      <trkpt lat="44.00816" lon="4.39087">
        <ele>93.3</ele>
        <time>2014-10-26T08:11:40Z</time>
      </trkpt>
      <trkpt lat="44.0081" lon="4.39077">
        <ele>93.4</ele>
        <time>2014-10-26T08:11:47Z</time>
      </trkpt>
      <trkpt lat="44.00803" lon="4.39067">
        <ele>93.7</ele>
        <time>2014-10-26T08:11:53Z</time>
      </trkpt>
      <trkpt lat="44.00795" lon="4.39056">
        <ele>93.9</ele>
        <time>2014-10-26T08:12:01Z</time>
      </trkpt>
      <trkpt lat="44.00789" lon="4.39047">
        <ele>94.1</ele>
        <time>2014-10-26T08:12:05Z</time>
      </trkpt>
      <trkpt lat="44.00781" lon="4.39038">
        <ele>94.2</ele>
        <time>2014-10-26T08:12:12Z</time>
      </trkpt>
      <trkpt lat="44.00773" lon="4.39029">
        <ele>94.1</ele>
        <time>2014-10-26T08:12:18Z</time>
      </trkpt>
      <trkpt lat="44.00764" lon="4.39026">
        <ele>94.5</ele>
        <time>2014-10-26T08:12:24Z</time>
      </trkpt>
      <trkpt lat="44.00756" lon="4.39031">
        <ele>95.4</ele>
        <time>2014-10-26T08:12:32Z</time>
      </trkpt>
      <trkpt lat="44.00746" lon="4.39038">
        <ele>95.8</ele>
        <time>2014-10-26T08:12:37Z</time>
      </trkpt>
      <trkpt lat="44.00736" lon="4.39043">
        <ele>95.9</ele>
        <time>2014-10-26T08:12:42Z</time>
      </trkpt>
      <trkpt lat="44.00728" lon="4.39047">
        <ele>95.8</ele>
        <time>2014-10-26T08:12:48Z</time>
      </trkpt>
      <trkpt lat="44.00718" lon="4.39051">
        <ele>95.8</ele>
        <time>2014-10-26T08:12:55Z</time>
      </trkpt>
      <trkpt lat="44.0071" lon="4.39059">
        <ele>95.9</ele>
        <time>2014-10-26T08:13:02Z</time>
      </trkpt>
      <trkpt lat="44.00702" lon="4.39066">
        <ele>95.9</ele>
        <time>2014-10-26T08:13:07Z</time>
      </trkpt>
      <trkpt lat="44.00693" lon="4.39072">
        <ele>95.8</ele>
        <time>2014-10-26T08:13:13Z</time>
      </trkpt>
      <trkpt lat="44.00683" lon="4.39066">
        <ele>95.3</ele>
        <time>2014-10-26T08:13:19Z</time>
      </trkpt>
      <trkpt lat="44.00678" lon="4.39054">
        <ele>94.6</ele>
        <time>2014-10-26T08:13:26Z</time>
      </trkpt>
      <trkpt lat="44.00673" lon="4.39042">
        <ele>93.7</ele>
        <time>2014-10-26T08:13:34Z</time>
      </trkpt>
      <trkpt lat="44.0067" lon="4.3903">
        <ele>93.4</ele>
        <time>2014-10-26T08:13:40Z</time>
      </trkpt>
      <trkpt lat="44.00664" lon="4.39019">
        <ele>92.8</ele>
        <time>2014-10-26T08:13:47Z</time>
      </trkpt>
      <trkpt lat="44.00668" lon="4.39007">
        <ele>92.5</ele>
        <time>2014-10-26T08:13:55Z</time>
      </trkpt>
      <trkpt lat="44.00676" lon="4.39001">
        <ele>93.1</ele>
        <time>2014-10-26T08:14:01Z</time>
      </trkpt>
      <trkpt lat="44.00685" lon="4.38996">
        <ele>93.7</ele>
        <time>2014-10-26T08:14:06Z</time>
      </trkpt>
      <trkpt lat="44.00694" lon="4.38991">
        <ele>93.7</ele>
        <time>2014-10-26T08:14:11Z</time>
      </trkpt>
      <trkpt lat="44.00703" lon="4.38987">
        <ele>94</ele>
        <time>2014-10-26T08:14:18Z</time>
      </trkpt>
      <trkpt lat="44.00712" lon="4.3898">
        <ele>94.3</ele>
        <time>2014-10-26T08:14:24Z</time>
      </trkpt>
      <trkpt lat="44.00721" lon="4.38975">
        <ele>94.3</ele>
        <time>2014-10-26T08:14:29Z</time>
      </trkpt>
      <trkpt lat="44.00731" lon="4.38969">
        <ele>94.5</ele>
        <time>2014-10-26T08:14:35Z</time>
      </trkpt>
      <trkpt lat="44.00739" lon="4.3896">
        <ele>94.5</ele>
        <time>2014-10-26T08:14:44Z</time>
      </trkpt>
      <trkpt lat="44.00746" lon="4.38951">
        <ele>94.5</ele>
        <time>2014-10-26T08:14:50Z</time>
      </trkpt>
      <trkpt lat="44.00753" lon="4.38941">
        <ele>94.4</ele>
        <time>2014-10-26T08:14:56Z</time>
      </trkpt>
      <trkpt lat="44.00759" lon="4.38931">
        <ele>94.3</ele>
        <time>2014-10-26T08:15:03Z</time>
      </trkpt>
      <trkpt lat="44.00765" lon="4.38922">
        <ele>94.3</ele>
        <time>2014-10-26T08:15:09Z</time>
      </trkpt>
      <trkpt lat="44.0077" lon="4.3891">
        <ele>94.2</ele>
        <time>2014-10-26T08:15:16Z</time>
      </trkpt>
      <trkpt lat="44.00777" lon="4.38898">
        <ele>94.3</ele>
        <time>2014-10-26T08:15:22Z</time>
      </trkpt>
      <trkpt lat="44.00782" lon="4.38888">
        <ele>94.1</ele>
        <time>2014-10-26T08:15:28Z</time>
      </trkpt>
      <trkpt lat="44.00788" lon="4.38878">
        <ele>94.5</ele>
        <time>2014-10-26T08:15:34Z</time>
      </trkpt>
      <trkpt lat="44.00796" lon="4.38871">
        <ele>94.4</ele>
        <time>2014-10-26T08:15:40Z</time>
      </trkpt>
      <trkpt lat="44.00805" lon="4.38867">
        <ele>94.7</ele>
        <time>2014-10-26T08:15:46Z</time>
      </trkpt>
      <trkpt lat="44.00814" lon="4.38861">
        <ele>94.7</ele>
        <time>2014-10-26T08:15:53Z</time>
      </trkpt>
      <trkpt lat="44.00822" lon="4.38853">
        <ele>94.4</ele>
        <time>2014-10-26T08:16:00Z</time>
      </trkpt>
      <trkpt lat="44.00829" lon="4.38845">
        <ele>94.3</ele>
        <time>2014-10-26T08:16:07Z</time>
      </trkpt>
      <trkpt lat="44.00841" lon="4.38836">
        <ele>93.7</ele>
        <time>2014-10-26T08:16:13Z</time>
      </trkpt>
      <trkpt lat="44.00849" lon="4.38828">
        <ele>93.3</ele>
        <time>2014-10-26T08:16:19Z</time>
      </trkpt>
      <trkpt lat="44.00857" lon="4.38818">
        <ele>93.1</ele>
        <time>2014-10-26T08:16:25Z</time>
      </trkpt>
      <trkpt lat="44.00865" lon="4.38807">
        <ele>92.9</ele>
        <time>2014-10-26T08:16:29Z</time>
      </trkpt>
      <trkpt lat="44.00873" lon="4.38799">
        <ele>92.5</ele>
        <time>2014-10-26T08:16:34Z</time>
      </trkpt>
      <trkpt lat="44.0088" lon="4.38788">
        <ele>92.4</ele>
        <time>2014-10-26T08:16:40Z</time>
      </trkpt>
      <trkpt lat="44.00887" lon="4.38777">
        <ele>92.1</ele>
        <time>2014-10-26T08:16:44Z</time>
      </trkpt>
      <trkpt lat="44.00896" lon="4.38769">
        <ele>91.8</ele>
        <time>2014-10-26T08:16:48Z</time>
      </trkpt>
      <trkpt lat="44.00903" lon="4.38759">
        <ele>91.4</ele>
        <time>2014-10-26T08:16:55Z</time>
      </trkpt>
      <trkpt lat="44.00909" lon="4.38746">
        <ele>91.1</ele>
        <time>2014-10-26T08:17:03Z</time>
      </trkpt>
      <trkpt lat="44.00914" lon="4.38735">
        <ele>90.9</ele>
        <time>2014-10-26T08:17:09Z</time>
      </trkpt>
      <trkpt lat="44.00921" lon="4.38725">
        <ele>90.8</ele>
        <time>2014-10-26T08:17:17Z</time>
      </trkpt>
      <trkpt lat="44.00928" lon="4.38714">
        <ele>90.9</ele>
        <time>2014-10-26T08:17:24Z</time>
      </trkpt>
      <trkpt lat="44.00935" lon="4.38705">
        <ele>90.2</ele>
        <time>2014-10-26T08:17:31Z</time>
      </trkpt>
      <trkpt lat="44.00941" lon="4.38694">
        <ele>90.1</ele>
        <time>2014-10-26T08:17:37Z</time>
      </trkpt>
      <trkpt lat="44.00947" lon="4.38685">
        <ele>89.8</ele>
        <time>2014-10-26T08:17:43Z</time>
      </trkpt>
      <trkpt lat="44.00951" lon="4.38673">
        <ele>89.8</ele>
        <time>2014-10-26T08:17:47Z</time>
      </trkpt>
      <trkpt lat="44.00957" lon="4.3866">
        <ele>89.8</ele>
        <time>2014-10-26T08:17:52Z</time>
      </trkpt>
      <trkpt lat="44.00961" lon="4.38648">
        <ele>89.9</ele>
        <time>2014-10-26T08:17:58Z</time>
      </trkpt>
      <trkpt lat="44.00966" lon="4.38636">
        <ele>89</ele>
        <time>2014-10-26T08:18:06Z</time>
      </trkpt>
      <trkpt lat="44.00972" lon="4.38626">
        <ele>88.3</ele>
        <time>2014-10-26T08:18:13Z</time>
      </trkpt>
      <trkpt lat="44.00981" lon="4.38618">
        <ele>87.1</ele>
        <time>2014-10-26T08:18:19Z</time>
      </trkpt>
      <trkpt lat="44.00988" lon="4.38607">
        <ele>87.7</ele>
        <time>2014-10-26T08:18:25Z</time>
      </trkpt>
      <trkpt lat="44.00991" lon="4.38594">
        <ele>87.1</ele>
        <time>2014-10-26T08:18:33Z</time>
      </trkpt>
      <trkpt lat="44.00996" lon="4.38584">
        <ele>86.6</ele>
        <time>2014-10-26T08:18:39Z</time>
      </trkpt>
      <trkpt lat="44.01002" lon="4.38572">
        <ele>86.6</ele>
        <time>2014-10-26T08:18:46Z</time>
      </trkpt>
      <trkpt lat="44.01009" lon="4.38563">
        <ele>86.4</ele>
        <time>2014-10-26T08:18:52Z</time>
      </trkpt>
      <trkpt lat="44.01017" lon="4.38555">
        <ele>86.1</ele>
        <time>2014-10-26T08:18:58Z</time>
      </trkpt>
      <trkpt lat="44.01027" lon="4.38548">
        <ele>86.1</ele>
        <time>2014-10-26T08:19:02Z</time>
      </trkpt>
      <trkpt lat="44.01036" lon="4.38543">
        <ele>86.1</ele>
        <time>2014-10-26T08:19:06Z</time>
      </trkpt>
      <trkpt lat="44.01045" lon="4.38541">
        <ele>86.3</ele>
        <time>2014-10-26T08:19:12Z</time>
      </trkpt>
      <trkpt lat="44.01054" lon="4.38539">
        <ele>86.3</ele>
        <time>2014-10-26T08:19:17Z</time>
      </trkpt>
      <trkpt lat="44.01065" lon="4.38537">
        <ele>86.1</ele>
        <time>2014-10-26T08:19:22Z</time>
      </trkpt>
      <trkpt lat="44.01075" lon="4.38537">
        <ele>86.7</ele>
        <time>2014-10-26T08:19:28Z</time>
      </trkpt>
      <trkpt lat="44.01085" lon="4.38538">
        <ele>86.7</ele>
        <time>2014-10-26T08:19:34Z</time>
      </trkpt>
      <trkpt lat="44.01095" lon="4.38539">
        <ele>87.1</ele>
        <time>2014-10-26T08:19:41Z</time>
      </trkpt>
      <trkpt lat="44.01105" lon="4.3854">
        <ele>87.1</ele>
        <time>2014-10-26T08:19:50Z</time>
      </trkpt>
      <trkpt lat="44.01114" lon="4.38541">
        <ele>87.3</ele>
        <time>2014-10-26T08:19:56Z</time>
      </trkpt>
      <trkpt lat="44.01125" lon="4.38538">
        <ele>87.8</ele>
        <time>2014-10-26T08:20:03Z</time>
      </trkpt>
      <trkpt lat="44.01133" lon="4.38536">
        <ele>87.6</ele>
        <time>2014-10-26T08:20:08Z</time>
      </trkpt>
      <trkpt lat="44.01144" lon="4.38533">
        <ele>87.8</ele>
        <time>2014-10-26T08:20:13Z</time>
      </trkpt>
      <trkpt lat="44.01153" lon="4.38532">
        <ele>87.8</ele>
        <time>2014-10-26T08:20:18Z</time>
      </trkpt>
      <trkpt lat="44.01163" lon="4.38531">
        <ele>87.9</ele>
        <time>2014-10-26T08:20:24Z</time>
      </trkpt>
      <trkpt lat="44.01171" lon="4.38527">
        <ele>88.4</ele>
        <time>2014-10-26T08:20:30Z</time>
      </trkpt>
      <trkpt lat="44.01182" lon="4.38523">
        <ele>88.6</ele>
        <time>2014-10-26T08:20:37Z</time>
      </trkpt>
      <trkpt lat="44.01192" lon="4.38522">
        <ele>88.7</ele>
        <time>2014-10-26T08:20:43Z</time>
      </trkpt>
      <trkpt lat="44.01202" lon="4.38522">
        <ele>88.9</ele>
        <time>2014-10-26T08:20:49Z</time>
      </trkpt>
      <trkpt lat="44.01211" lon="4.3852">
        <ele>89.3</ele>
        <time>2014-10-26T08:20:57Z</time>
      </trkpt>
      <trkpt lat="44.01221" lon="4.38517">
        <ele>89.6</ele>
        <time>2014-10-26T08:21:03Z</time>
      </trkpt>
      <trkpt lat="44.0123" lon="4.38514">
        <ele>89.9</ele>
        <time>2014-10-26T08:21:10Z</time>
      </trkpt>
      <trkpt lat="44.0124" lon="4.38512">
        <ele>90.2</ele>
        <time>2014-10-26T08:21:17Z</time>
      </trkpt>
      <trkpt lat="44.01249" lon="4.38508">
        <ele>91</ele>
        <time>2014-10-26T08:21:24Z</time>
      </trkpt>
      <trkpt lat="44.01259" lon="4.38505">
        <ele>91.4</ele>
        <time>2014-10-26T08:21:28Z</time>
      </trkpt>
      <trkpt lat="44.01268" lon="4.38504">
        <ele>91.6</ele>
        <time>2014-10-26T08:21:33Z</time>
      </trkpt>
      <trkpt lat="44.01276" lon="4.385">
        <ele>92</ele>
        <time>2014-10-26T08:21:39Z</time>
      </trkpt>
      <trkpt lat="44.01286" lon="4.38498">
        <ele>92.2</ele>
        <time>2014-10-26T08:21:44Z</time>
      </trkpt>
      <trkpt lat="44.01294" lon="4.38493">
        <ele>93.2</ele>
        <time>2014-10-26T08:21:53Z</time>
      </trkpt>
      <trkpt lat="44.01303" lon="4.3849">
        <ele>93.4</ele>
        <time>2014-10-26T08:21:58Z</time>
      </trkpt>
      <trkpt lat="44.01314" lon="4.38485">
        <ele>94.2</ele>
        <time>2014-10-26T08:22:03Z</time>
      </trkpt>
      <trkpt lat="44.0132" lon="4.38476">
        <ele>94.9</ele>
        <time>2014-10-26T08:22:10Z</time>
      </trkpt>
      <trkpt lat="44.01326" lon="4.38465">
        <ele>95</ele>
        <time>2014-10-26T08:22:16Z</time>
      </trkpt>
      <trkpt lat="44.01332" lon="4.38454">
        <ele>95.4</ele>
        <time>2014-10-26T08:22:21Z</time>
      </trkpt>
      <trkpt lat="44.01341" lon="4.38445">
        <ele>96.2</ele>
        <time>2014-10-26T08:22:28Z</time>
      </trkpt>
      <trkpt lat="44.0135" lon="4.38438">
        <ele>96.7</ele>
        <time>2014-10-26T08:22:34Z</time>
      </trkpt>
      <trkpt lat="44.0136" lon="4.38433">
        <ele>97</ele>
        <time>2014-10-26T08:22:41Z</time>
      </trkpt>
      <trkpt lat="44.01368" lon="4.38429">
        <ele>97.3</ele>
        <time>2014-10-26T08:22:47Z</time>
      </trkpt>
      <trkpt lat="44.01378" lon="4.38425">
        <ele>97.5</ele>
        <time>2014-10-26T08:22:53Z</time>
      </trkpt>
      <trkpt lat="44.01387" lon="4.38422">
        <ele>97.7</ele>
        <time>2014-10-26T08:22:59Z</time>
      </trkpt>
      <trkpt lat="44.01396" lon="4.38416">
        <ele>98.3</ele>
        <time>2014-10-26T08:23:05Z</time>
      </trkpt>
      <trkpt lat="44.01405" lon="4.38412">
        <ele>98.7</ele>
        <time>2014-10-26T08:23:11Z</time>
      </trkpt>
      <trkpt lat="44.01414" lon="4.38407">
        <ele>98.9</ele>
        <time>2014-10-26T08:23:17Z</time>
      </trkpt>
      <trkpt lat="44.01423" lon="4.38403">
        <ele>99.2</ele>
        <time>2014-10-26T08:23:23Z</time>
      </trkpt>
      <trkpt lat="44.01432" lon="4.38399">
        <ele>99.7</ele>
        <time>2014-10-26T08:23:30Z</time>
      </trkpt>
      <trkpt lat="44.01442" lon="4.38394">
        <ele>100.4</ele>
        <time>2014-10-26T08:23:37Z</time>
      </trkpt>
      <trkpt lat="44.01452" lon="4.38391">
        <ele>100.7</ele>
        <time>2014-10-26T08:23:43Z</time>
      </trkpt>
      <trkpt lat="44.01461" lon="4.38387">
        <ele>100.7</ele>
        <time>2014-10-26T08:23:49Z</time>
      </trkpt>
      <trkpt lat="44.01471" lon="4.38383">
        <ele>101.1</ele>
        <time>2014-10-26T08:23:57Z</time>
      </trkpt>
      <trkpt lat="44.01479" lon="4.38377">
        <ele>101.1</ele>
        <time>2014-10-26T08:24:05Z</time>
      </trkpt>
      <trkpt lat="44.01489" lon="4.38372">
        <ele>101.7</ele>
        <time>2014-10-26T08:24:12Z</time>
      </trkpt>
      <trkpt lat="44.015" lon="4.38368">
        <ele>101.9</ele>
        <time>2014-10-26T08:24:19Z</time>
      </trkpt>
      <trkpt lat="44.01508" lon="4.38363">
        <ele>102.2</ele>
        <time>2014-10-26T08:24:25Z</time>
      </trkpt>
      <trkpt lat="44.01518" lon="4.38361">
        <ele>102.5</ele>
        <time>2014-10-26T08:24:31Z</time>
      </trkpt>
      <trkpt lat="44.01529" lon="4.38361">
        <ele>102.6</ele>
        <time>2014-10-26T08:24:35Z</time>
      </trkpt>
      <trkpt lat="44.01538" lon="4.38358">
        <ele>102.6</ele>
        <time>2014-10-26T08:24:41Z</time>
      </trkpt>
      <trkpt lat="44.01547" lon="4.38355">
        <ele>103</ele>
        <time>2014-10-26T08:24:47Z</time>
      </trkpt>
      <trkpt lat="44.01557" lon="4.38352">
        <ele>102.7</ele>
        <time>2014-10-26T08:24:53Z</time>
      </trkpt>
      <trkpt lat="44.01567" lon="4.3835">
        <ele>102.7</ele>
        <time>2014-10-26T08:24:59Z</time>
      </trkpt>
      <trkpt lat="44.01577" lon="4.38351">
        <ele>102.7</ele>
        <time>2014-10-26T08:25:04Z</time>
      </trkpt>
      <trkpt lat="44.01587" lon="4.38351">
        <ele>102.7</ele>
        <time>2014-10-26T08:25:08Z</time>
      </trkpt>
      <trkpt lat="44.01596" lon="4.38349">
        <ele>103</ele>
        <time>2014-10-26T08:25:13Z</time>
      </trkpt>
      <trkpt lat="44.01606" lon="4.38346">
        <ele>103.3</ele>
        <time>2014-10-26T08:25:20Z</time>
      </trkpt>
      <trkpt lat="44.01615" lon="4.38343">
        <ele>103.4</ele>
        <time>2014-10-26T08:25:26Z</time>
      </trkpt>
      <trkpt lat="44.01624" lon="4.38341">
        <ele>103.5</ele>
        <time>2014-10-26T08:25:32Z</time>
      </trkpt>
      <trkpt lat="44.01635" lon="4.3834">
        <ele>103.8</ele>
        <time>2014-10-26T08:25:37Z</time>
      </trkpt>
      <trkpt lat="44.01644" lon="4.38342">
        <ele>104</ele>
        <time>2014-10-26T08:25:43Z</time>
      </trkpt>
      <trkpt lat="44.01654" lon="4.38344">
        <ele>104</ele>
        <time>2014-10-26T08:25:49Z</time>
      </trkpt>
      <trkpt lat="44.01664" lon="4.38346">
        <ele>104.3</ele>
        <time>2014-10-26T08:25:56Z</time>
      </trkpt>
      <trkpt lat="44.01674" lon="4.38347">
        <ele>104.5</ele>
        <time>2014-10-26T08:26:03Z</time>
      </trkpt>
      <trkpt lat="44.01684" lon="4.38352">
        <ele>104.5</ele>
        <time>2014-10-26T08:26:10Z</time>
      </trkpt>
      <trkpt lat="44.01693" lon="4.38355">
        <ele>104.8</ele>
        <time>2014-10-26T08:26:16Z</time>
      </trkpt>
      <trkpt lat="44.01704" lon="4.38358">
        <ele>104.7</ele>
        <time>2014-10-26T08:26:22Z</time>
      </trkpt>
      <trkpt lat="44.01714" lon="4.3836">
        <ele>104.7</ele>
        <time>2014-10-26T08:26:28Z</time>
      </trkpt>
      <trkpt lat="44.01725" lon="4.38361">
        <ele>104.9</ele>
        <time>2014-10-26T08:26:34Z</time>
      </trkpt>
      <trkpt lat="44.01735" lon="4.38361">
        <ele>104.8</ele>
        <time>2014-10-26T08:26:40Z</time>
      </trkpt>
      <trkpt lat="44.01744" lon="4.3836">
        <ele>104.8</ele>
        <time>2014-10-26T08:26:46Z</time>
      </trkpt>
      <trkpt lat="44.01753" lon="4.3836">
        <ele>104.8</ele>
        <time>2014-10-26T08:26:51Z</time>
      </trkpt>
      <trkpt lat="44.01764" lon="4.38359">
        <ele>104.8</ele>
        <time>2014-10-26T08:26:57Z</time>
      </trkpt>
      <trkpt lat="44.01774" lon="4.38358">
        <ele>104.7</ele>
        <time>2014-10-26T08:27:02Z</time>
      </trkpt>
      <trkpt lat="44.01784" lon="4.38355">
        <ele>105</ele>
        <time>2014-10-26T08:27:10Z</time>
      </trkpt>
      <trkpt lat="44.01794" lon="4.38354">
        <ele>104.9</ele>
        <time>2014-10-26T08:27:17Z</time>
      </trkpt>
      <trkpt lat="44.01804" lon="4.38352">
        <ele>105</ele>
        <time>2014-10-26T08:27:23Z</time>
      </trkpt>
      <trkpt lat="44.01813" lon="4.3835">
        <ele>105</ele>
        <time>2014-10-26T08:27:28Z</time>
      </trkpt>
      <trkpt lat="44.01823" lon="4.38348">
        <ele>105.2</ele>
        <time>2014-10-26T08:27:33Z</time>
      </trkpt>
      <trkpt lat="44.01833" lon="4.38347">
        <ele>105.1</ele>
        <time>2014-10-26T08:27:39Z</time>
      </trkpt>
      <trkpt lat="44.01842" lon="4.38346">
        <ele>105</ele>
        <time>2014-10-26T08:27:45Z</time>
      </trkpt>
      <trkpt lat="44.01852" lon="4.38347">
        <ele>105</ele>
        <time>2014-10-26T08:27:52Z</time>
      </trkpt>
      <trkpt lat="44.01863" lon="4.38349">
        <ele>105.3</ele>
        <time>2014-10-26T08:27:58Z</time>
      </trkpt>
      <trkpt lat="44.01872" lon="4.38352">
        <ele>105.2</ele>
        <time>2014-10-26T08:28:03Z</time>
      </trkpt>
      <trkpt lat="44.01882" lon="4.38355">
        <ele>105.3</ele>
        <time>2014-10-26T08:28:09Z</time>
      </trkpt>
      <trkpt lat="44.01891" lon="4.38357">
        <ele>105.1</ele>
        <time>2014-10-26T08:28:15Z</time>
      </trkpt>
      <trkpt lat="44.01901" lon="4.38359">
        <ele>105.3</ele>
        <time>2014-10-26T08:28:21Z</time>
      </trkpt>
      <trkpt lat="44.01911" lon="4.3836">
        <ele>105.2</ele>
        <time>2014-10-26T08:28:28Z</time>
      </trkpt>
      <trkpt lat="44.01921" lon="4.38362">
        <ele>104.8</ele>
        <time>2014-10-26T08:28:34Z</time>
      </trkpt>
      <trkpt lat="44.0193" lon="4.38363">
        <ele>104.8</ele>
        <time>2014-10-26T08:28:40Z</time>
      </trkpt>
      <trkpt lat="44.0194" lon="4.38365">
        <ele>104.8</ele>
        <time>2014-10-26T08:28:46Z</time>
      </trkpt>
      <trkpt lat="44.0195" lon="4.38367">
        <ele>104.8</ele>
        <time>2014-10-26T08:28:53Z</time>
      </trkpt>
      <trkpt lat="44.0196" lon="4.38368">
        <ele>105.4</ele>
        <time>2014-10-26T08:29:00Z</time>
      </trkpt>
      <trkpt lat="44.0197" lon="4.38367">
        <ele>105</ele>
        <time>2014-10-26T08:29:06Z</time>
      </trkpt>
      <trkpt lat="44.01979" lon="4.3837">
        <ele>104.8</ele>
        <time>2014-10-26T08:29:11Z</time>
      </trkpt>
      <trkpt lat="44.01989" lon="4.38371">
        <ele>104.9</ele>
        <time>2014-10-26T08:29:17Z</time>
      </trkpt>
      <trkpt lat="44.01998" lon="4.38372">
        <ele>105</ele>
        <time>2014-10-26T08:29:23Z</time>
      </trkpt>
      <trkpt lat="44.02008" lon="4.38374">
        <ele>104.9</ele>
        <time>2014-10-26T08:29:29Z</time>
      </trkpt>
      <trkpt lat="44.02017" lon="4.38374">
        <ele>105</ele>
        <time>2014-10-26T08:29:35Z</time>
      </trkpt>
      <trkpt lat="44.02026" lon="4.38375">
        <ele>104.9</ele>
        <time>2014-10-26T08:29:40Z</time>
      </trkpt>
      <trkpt lat="44.02037" lon="4.38377">
        <ele>104.9</ele>
        <time>2014-10-26T08:29:45Z</time>
      </trkpt>
      <trkpt lat="44.02047" lon="4.38378">
        <ele>105.3</ele>
        <time>2014-10-26T08:29:52Z</time>
      </trkpt>
      <trkpt lat="44.02056" lon="4.38379">
        <ele>104.9</ele>
        <time>2014-10-26T08:29:58Z</time>
      </trkpt>
      <trkpt lat="44.02065" lon="4.3838">
        <ele>105.1</ele>
        <time>2014-10-26T08:30:06Z</time>
      </trkpt>
      <trkpt lat="44.02076" lon="4.38382">
        <ele>105</ele>
        <time>2014-10-26T08:30:12Z</time>
      </trkpt>
      <trkpt lat="44.02085" lon="4.38385">
        <ele>104.9</ele>
        <time>2014-10-26T08:30:17Z</time>
      </trkpt>
      <trkpt lat="44.02095" lon="4.38387">
        <ele>104.5</ele>
        <time>2014-10-26T08:30:23Z</time>
      </trkpt>
      <trkpt lat="44.02104" lon="4.38388">
        <ele>104.8</ele>
        <time>2014-10-26T08:30:28Z</time>
      </trkpt>
      <trkpt lat="44.02114" lon="4.38388">
        <ele>104.7</ele>
        <time>2014-10-26T08:30:35Z</time>
      </trkpt>
      <trkpt lat="44.02123" lon="4.38389">
        <ele>104.6</ele>
        <time>2014-10-26T08:30:41Z</time>
      </trkpt>
      <trkpt lat="44.02133" lon="4.3839">
        <ele>105</ele>
        <time>2014-10-26T08:30:48Z</time>
      </trkpt>
      <trkpt lat="44.02142" lon="4.3839">
        <ele>104.9</ele>
        <time>2014-10-26T08:30:56Z</time>
      </trkpt>
      <trkpt lat="44.02153" lon="4.38393">
        <ele>105</ele>
        <time>2014-10-26T08:31:02Z</time>
      </trkpt>
      <trkpt lat="44.02162" lon="4.38395">
        <ele>105.1</ele>
        <time>2014-10-26T08:31:09Z</time>
      </trkpt>
      <trkpt lat="44.02171" lon="4.38398">
        <ele>104.9</ele>
        <time>2014-10-26T08:31:14Z</time>
      </trkpt>
      <trkpt lat="44.02181" lon="4.38401">
        <ele>105.1</ele>
        <time>2014-10-26T08:31:20Z</time>
      </trkpt>
      <trkpt lat="44.0219" lon="4.38406">
        <ele>105.2</ele>
        <time>2014-10-26T08:31:26Z</time>
      </trkpt>
      <trkpt lat="44.022" lon="4.38409">
        <ele>105.9</ele>
        <time>2014-10-26T08:31:33Z</time>
      </trkpt>
      <trkpt lat="44.02211" lon="4.38413">
        <ele>106</ele>
        <time>2014-10-26T08:31:39Z</time>
      </trkpt>
      <trkpt lat="44.02219" lon="4.38418">
        <ele>106.1</ele>
        <time>2014-10-26T08:31:49Z</time>
      </trkpt>
      <trkpt lat="44.02228" lon="4.38413">
        <ele>106.1</ele>
        <time>2014-10-26T08:31:57Z</time>
      </trkpt>
      <trkpt lat="44.02235" lon="4.38404">
        <ele>106.1</ele>
        <time>2014-10-26T08:32:04Z</time>
      </trkpt>
      <trkpt lat="44.02243" lon="4.38394">
        <ele>105.8</ele>
        <time>2014-10-26T08:32:13Z</time>
      </trkpt>
      <trkpt lat="44.02251" lon="4.38386">
        <ele>105.5</ele>
        <time>2014-10-26T08:32:19Z</time>
      </trkpt>
      <trkpt lat="44.02259" lon="4.38376">
        <ele>105.4</ele>
        <time>2014-10-26T08:32:24Z</time>
      </trkpt>
      <trkpt lat="44.02265" lon="4.38366">
        <ele>105.5</ele>
        <time>2014-10-26T08:32:30Z</time>
      </trkpt>
      <trkpt lat="44.02273" lon="4.38358">
        <ele>105.4</ele>
        <time>2014-10-26T08:32:35Z</time>
      </trkpt>
      <trkpt lat="44.0228" lon="4.3835">
        <ele>105.5</ele>
        <time>2014-10-26T08:32:41Z</time>
      </trkpt>
      <trkpt lat="44.02288" lon="4.38343">
        <ele>105.4</ele>
        <time>2014-10-26T08:32:46Z</time>
      </trkpt>
      <trkpt lat="44.02295" lon="4.38332">
        <ele>105.3</ele>
        <time>2014-10-26T08:32:52Z</time>
      </trkpt>
      <trkpt lat="44.02302" lon="4.38322">
        <ele>105.5</ele>
        <time>2014-10-26T08:32:59Z</time>
      </trkpt>
      <trkpt lat="44.02309" lon="4.38312">
        <ele>105.4</ele>
        <time>2014-10-26T08:33:06Z</time>
      </trkpt>
      <trkpt lat="44.02316" lon="4.38302">
        <ele>105.1</ele>
        <time>2014-10-26T08:33:13Z</time>
      </trkpt>
      <trkpt lat="44.02323" lon="4.38294">
        <ele>105.5</ele>
        <time>2014-10-26T08:33:18Z</time>
      </trkpt>
      <trkpt lat="44.0233" lon="4.38285">
        <ele>105.1</ele>
        <time>2014-10-26T08:33:24Z</time>
      </trkpt>
      <trkpt lat="44.02337" lon="4.38276">
        <ele>105.2</ele>
        <time>2014-10-26T08:33:29Z</time>
      </trkpt>
      <trkpt lat="44.02344" lon="4.38267">
        <ele>105</ele>
        <time>2014-10-26T08:33:34Z</time>
      </trkpt>
      <trkpt lat="44.02349" lon="4.38255">
        <ele>105</ele>
        <time>2014-10-26T08:33:41Z</time>
      </trkpt>
      <trkpt lat="44.02354" lon="4.38244">
        <ele>104.8</ele>
        <time>2014-10-26T08:33:48Z</time>
      </trkpt>
      <trkpt lat="44.02362" lon="4.38234">
        <ele>104.9</ele>
        <time>2014-10-26T08:33:55Z</time>
      </trkpt>
      <trkpt lat="44.02367" lon="4.38223">
        <ele>104.9</ele>
        <time>2014-10-26T08:34:01Z</time>
      </trkpt>
      <trkpt lat="44.02373" lon="4.38212">
        <ele>104.7</ele>
        <time>2014-10-26T08:34:09Z</time>
      </trkpt>
      <trkpt lat="44.02381" lon="4.38204">
        <ele>104.5</ele>
        <time>2014-10-26T08:34:16Z</time>
      </trkpt>
      <trkpt lat="44.02389" lon="4.38197">
        <ele>104.9</ele>
        <time>2014-10-26T08:34:22Z</time>
      </trkpt>
      <trkpt lat="44.02396" lon="4.38185">
        <ele>104.8</ele>
        <time>2014-10-26T08:34:27Z</time>
      </trkpt>
      <trkpt lat="44.02402" lon="4.38174">
        <ele>104.4</ele>
        <time>2014-10-26T08:34:32Z</time>
      </trkpt>
      <trkpt lat="44.02409" lon="4.38164">
        <ele>104.2</ele>
        <time>2014-10-26T08:34:37Z</time>
      </trkpt>
      <trkpt lat="44.02418" lon="4.38154">
        <ele>104.2</ele>
        <time>2014-10-26T08:34:43Z</time>
      </trkpt>
      <trkpt lat="44.02425" lon="4.38147">
        <ele>104.3</ele>
        <time>2014-10-26T08:34:48Z</time>
      </trkpt>
      <trkpt lat="44.02431" lon="4.38137">
        <ele>104.3</ele>
        <time>2014-10-26T08:34:54Z</time>
      </trkpt>
      <trkpt lat="44.02439" lon="4.38127">
        <ele>103.8</ele>
        <time>2014-10-26T08:35:00Z</time>
      </trkpt>
      <trkpt lat="44.02447" lon="4.38118">
        <ele>104.2</ele>
        <time>2014-10-26T08:35:06Z</time>
      </trkpt>
      <trkpt lat="44.02455" lon="4.3811">
        <ele>104.2</ele>
        <time>2014-10-26T08:35:11Z</time>
      </trkpt>
      <trkpt lat="44.02463" lon="4.38102">
        <ele>104.1</ele>
        <time>2014-10-26T08:35:16Z</time>
      </trkpt>
      <trkpt lat="44.0247" lon="4.38092">
        <ele>104</ele>
        <time>2014-10-26T08:35:22Z</time>
      </trkpt>
      <trkpt lat="44.02476" lon="4.38082">
        <ele>104.2</ele>
        <time>2014-10-26T08:35:29Z</time>
      </trkpt>
      <trkpt lat="44.0248" lon="4.3807">
        <ele>104.2</ele>
        <time>2014-10-26T08:35:36Z</time>
      </trkpt>
      <trkpt lat="44.02487" lon="4.3806">
        <ele>104.4</ele>
        <time>2014-10-26T08:35:42Z</time>
      </trkpt>
      <trkpt lat="44.02493" lon="4.38051">
        <ele>104.4</ele>
        <time>2014-10-26T08:35:48Z</time>
      </trkpt>
      <trkpt lat="44.025" lon="4.38041">
        <ele>104.4</ele>
        <time>2014-10-26T08:35:54Z</time>
      </trkpt>
      <trkpt lat="44.02506" lon="4.3803">
        <ele>104.3</ele>
        <time>2014-10-26T08:36:00Z</time>
      </trkpt>
      <trkpt lat="44.02512" lon="4.38021">
        <ele>104.4</ele>
        <time>2014-10-26T08:36:06Z</time>
      </trkpt>
      <trkpt lat="44.02519" lon="4.38012">
        <ele>104.5</ele>
        <time>2014-10-26T08:36:12Z</time>
      </trkpt>
      <trkpt lat="44.02527" lon="4.38002">
        <ele>104.4</ele>
        <time>2014-10-26T08:36:18Z</time>
      </trkpt>
      <trkpt lat="44.02535" lon="4.37995">
        <ele>104.5</ele>
        <time>2014-10-26T08:36:23Z</time>
      </trkpt>
      <trkpt lat="44.02542" lon="4.37988">
        <ele>104.3</ele>
        <time>2014-10-26T08:36:27Z</time>
      </trkpt>
      <trkpt lat="44.02546" lon="4.37975">
        <ele>104.4</ele>
        <time>2014-10-26T08:36:32Z</time>
      </trkpt>
      <trkpt lat="44.02552" lon="4.37964">
        <ele>104.5</ele>
        <time>2014-10-26T08:36:38Z</time>
      </trkpt>
      <trkpt lat="44.02559" lon="4.37956">
        <ele>104</ele>
        <time>2014-10-26T08:36:44Z</time>
      </trkpt>
      <trkpt lat="44.02565" lon="4.37944">
        <ele>104.1</ele>
        <time>2014-10-26T08:36:49Z</time>
      </trkpt>
      <trkpt lat="44.02574" lon="4.37942">
        <ele>104.2</ele>
        <time>2014-10-26T08:36:57Z</time>
      </trkpt>
      <trkpt lat="44.0258" lon="4.37933">
        <ele>104</ele>
        <time>2014-10-26T08:37:03Z</time>
      </trkpt>
      <trkpt lat="44.02586" lon="4.37922">
        <ele>103.4</ele>
        <time>2014-10-26T08:37:08Z</time>
      </trkpt>
      <trkpt lat="44.02594" lon="4.37917">
        <ele>103.6</ele>
        <time>2014-10-26T08:37:13Z</time>
      </trkpt>
      <trkpt lat="44.02601" lon="4.37907">
        <ele>103.7</ele>
        <time>2014-10-26T08:37:19Z</time>
      </trkpt>
      <trkpt lat="44.02608" lon="4.37896">
        <ele>103.7</ele>
        <time>2014-10-26T08:37:25Z</time>
      </trkpt>
      <trkpt lat="44.02616" lon="4.37889">
        <ele>103.7</ele>
        <time>2014-10-26T08:37:30Z</time>
      </trkpt>
      <trkpt lat="44.02623" lon="4.37881">
        <ele>103.8</ele>
        <time>2014-10-26T08:37:36Z</time>
      </trkpt>
      <trkpt lat="44.02631" lon="4.37873">
        <ele>103.5</ele>
        <time>2014-10-26T08:37:42Z</time>
      </trkpt>
      <trkpt lat="44.02637" lon="4.3786">
        <ele>102.9</ele>
        <time>2014-10-26T08:37:47Z</time>
      </trkpt>
      <trkpt lat="44.02644" lon="4.3785">
        <ele>102.6</ele>
        <time>2014-10-26T08:37:52Z</time>
      </trkpt>
      <trkpt lat="44.02651" lon="4.37839">
        <ele>102.6</ele>
        <time>2014-10-26T08:37:58Z</time>
      </trkpt>
      <trkpt lat="44.02657" lon="4.3783">
        <ele>102.6</ele>
        <time>2014-10-26T08:38:03Z</time>
      </trkpt>
      <trkpt lat="44.02664" lon="4.3782">
        <ele>102.5</ele>
        <time>2014-10-26T08:38:09Z</time>
      </trkpt>
      <trkpt lat="44.0267" lon="4.37811">
        <ele>102.3</ele>
        <time>2014-10-26T08:38:15Z</time>
      </trkpt>
      <trkpt lat="44.02678" lon="4.37802">
        <ele>102.1</ele>
        <time>2014-10-26T08:38:21Z</time>
      </trkpt>
      <trkpt lat="44.02685" lon="4.37793">
        <ele>101.9</ele>
        <time>2014-10-26T08:38:26Z</time>
      </trkpt>
      <trkpt lat="44.02692" lon="4.37784">
        <ele>102</ele>
        <time>2014-10-26T08:38:32Z</time>
      </trkpt>
      <trkpt lat="44.02695" lon="4.37772">
        <ele>102</ele>
        <time>2014-10-26T08:38:38Z</time>
      </trkpt>
      <trkpt lat="44.02702" lon="4.37763">
        <ele>102.2</ele>
        <time>2014-10-26T08:38:43Z</time>
      </trkpt>
      <trkpt lat="44.02711" lon="4.37753">
        <ele>102.2</ele>
        <time>2014-10-26T08:38:48Z</time>
      </trkpt>
      <trkpt lat="44.02717" lon="4.37742">
        <ele>101.9</ele>
        <time>2014-10-26T08:38:54Z</time>
      </trkpt>
      <trkpt lat="44.02723" lon="4.37732">
        <ele>102.1</ele>
        <time>2014-10-26T08:38:58Z</time>
      </trkpt>
      <trkpt lat="44.02729" lon="4.37723">
        <ele>102</ele>
        <time>2014-10-26T08:39:02Z</time>
      </trkpt>
      <trkpt lat="44.02736" lon="4.37714">
        <ele>102</ele>
        <time>2014-10-26T08:39:07Z</time>
      </trkpt>
      <trkpt lat="44.02744" lon="4.37704">
        <ele>101.7</ele>
        <time>2014-10-26T08:39:13Z</time>
      </trkpt>
      <trkpt lat="44.02751" lon="4.37696">
        <ele>102</ele>
        <time>2014-10-26T08:39:19Z</time>
      </trkpt>
      <trkpt lat="44.02759" lon="4.37686">
        <ele>101.8</ele>
        <time>2014-10-26T08:39:24Z</time>
      </trkpt>
      <trkpt lat="44.02767" lon="4.37675">
        <ele>101.8</ele>
        <time>2014-10-26T08:39:28Z</time>
      </trkpt>
      <trkpt lat="44.02775" lon="4.37663">
        <ele>101.8</ele>
        <time>2014-10-26T08:39:32Z</time>
      </trkpt>
      <trkpt lat="44.0278" lon="4.37652">
        <ele>101.8</ele>
        <time>2014-10-26T08:39:36Z</time>
      </trkpt>
      <trkpt lat="44.02789" lon="4.3764">
        <ele>102</ele>
        <time>2014-10-26T08:39:40Z</time>
      </trkpt>
      <trkpt lat="44.02797" lon="4.3763">
        <ele>101.9</ele>
        <time>2014-10-26T08:39:43Z</time>
      </trkpt>
      <trkpt lat="44.02807" lon="4.3762">
        <ele>101.7</ele>
        <time>2014-10-26T08:39:46Z</time>
      </trkpt>
      <trkpt lat="44.02816" lon="4.37608">
        <ele>101.8</ele>
        <time>2014-10-26T08:39:49Z</time>
      </trkpt>
      <trkpt lat="44.02826" lon="4.37595">
        <ele>101.7</ele>
        <time>2014-10-26T08:39:52Z</time>
      </trkpt>
      <trkpt lat="44.02833" lon="4.37586">
        <ele>101.7</ele>
        <time>2014-10-26T08:39:54Z</time>
      </trkpt>
      <trkpt lat="44.02841" lon="4.37578">
        <ele>101.4</ele>
        <time>2014-10-26T08:39:56Z</time>
      </trkpt>
      <trkpt lat="44.02848" lon="4.37569">
        <ele>101.7</ele>
        <time>2014-10-26T08:39:58Z</time>
      </trkpt>
      <trkpt lat="44.02857" lon="4.37556">
        <ele>101.7</ele>
        <time>2014-10-26T08:40:01Z</time>
      </trkpt>
      <trkpt lat="44.02868" lon="4.37544">
        <ele>101.5</ele>
        <time>2014-10-26T08:40:04Z</time>
      </trkpt>
      <trkpt lat="44.02874" lon="4.37534">
        <ele>101.7</ele>
        <time>2014-10-26T08:40:06Z</time>
      </trkpt>
      <trkpt lat="44.02879" lon="4.37523">
        <ele>101.9</ele>
        <time>2014-10-26T08:40:08Z</time>
      </trkpt>
      <trkpt lat="44.0289" lon="4.37512">
        <ele>101.6</ele>
        <time>2014-10-26T08:40:11Z</time>
      </trkpt>
      <trkpt lat="44.02897" lon="4.37499">
        <ele>101.7</ele>
        <time>2014-10-26T08:40:14Z</time>
      </trkpt>
      <trkpt lat="44.02904" lon="4.37489">
        <ele>101.8</ele>
        <time>2014-10-26T08:40:17Z</time>
      </trkpt>
      <trkpt lat="44.02911" lon="4.37477">
        <ele>101.9</ele>
        <time>2014-10-26T08:40:20Z</time>
      </trkpt>
      <trkpt lat="44.02917" lon="4.37463">
        <ele>101.8</ele>
        <time>2014-10-26T08:40:23Z</time>
      </trkpt>
      <trkpt lat="44.02924" lon="4.37448">
        <ele>101.6</ele>
        <time>2014-10-26T08:40:26Z</time>
      </trkpt>
      <trkpt lat="44.02932" lon="4.37436">
        <ele>101.4</ele>
        <time>2014-10-26T08:40:29Z</time>
      </trkpt>
      <trkpt lat="44.02938" lon="4.37427">
        <ele>101.2</ele>
        <time>2014-10-26T08:40:32Z</time>
      </trkpt>
      <trkpt lat="44.02944" lon="4.37413">
        <ele>101</ele>
        <time>2014-10-26T08:40:35Z</time>
      </trkpt>
      <trkpt lat="44.02952" lon="4.37399">
        <ele>101</ele>
        <time>2014-10-26T08:40:38Z</time>
      </trkpt>
      <trkpt lat="44.0296" lon="4.3739">
        <ele>100.8</ele>
        <time>2014-10-26T08:40:41Z</time>
      </trkpt>
      <trkpt lat="44.02963" lon="4.37375">
        <ele>100.9</ele>
        <time>2014-10-26T08:40:45Z</time>
      </trkpt>
      <trkpt lat="44.02969" lon="4.37362">
        <ele>101.1</ele>
        <time>2014-10-26T08:40:52Z</time>
      </trkpt>
      <trkpt lat="44.02972" lon="4.37351">
        <ele>100.9</ele>
        <time>2014-10-26T08:40:58Z</time>
      </trkpt>
      <trkpt lat="44.02978" lon="4.37341">
        <ele>100.6</ele>
        <time>2014-10-26T08:41:03Z</time>
      </trkpt>
      <trkpt lat="44.02984" lon="4.37328">
        <ele>100.6</ele>
        <time>2014-10-26T08:41:09Z</time>
      </trkpt>
      <trkpt lat="44.02989" lon="4.37317">
        <ele>100.2</ele>
        <time>2014-10-26T08:41:15Z</time>
      </trkpt>
      <trkpt lat="44.02995" lon="4.37307">
        <ele>100.2</ele>
        <time>2014-10-26T08:41:21Z</time>
      </trkpt>
      <trkpt lat="44.03002" lon="4.37296">
        <ele>99.9</ele>
        <time>2014-10-26T08:41:28Z</time>
      </trkpt>
      <trkpt lat="44.03006" lon="4.37285">
        <ele>99.5</ele>
        <time>2014-10-26T08:41:34Z</time>
      </trkpt>
      <trkpt lat="44.03012" lon="4.37273">
        <ele>99.3</ele>
        <time>2014-10-26T08:41:42Z</time>
      </trkpt>
      <trkpt lat="44.03019" lon="4.37263">
        <ele>99.7</ele>
        <time>2014-10-26T08:41:47Z</time>
      </trkpt>
      <trkpt lat="44.03027" lon="4.37255">
        <ele>99.2</ele>
        <time>2014-10-26T08:41:53Z</time>
      </trkpt>
      <trkpt lat="44.03033" lon="4.37246">
        <ele>99.4</ele>
        <time>2014-10-26T08:42:00Z</time>
      </trkpt>
      <trkpt lat="44.0304" lon="4.37236">
        <ele>99.7</ele>
        <time>2014-10-26T08:42:07Z</time>
      </trkpt>
      <trkpt lat="44.03048" lon="4.3723">
        <ele>99.4</ele>
        <time>2014-10-26T08:42:12Z</time>
      </trkpt>
      <trkpt lat="44.03056" lon="4.37215">
        <ele>99.3</ele>
        <time>2014-10-26T08:42:15Z</time>
      </trkpt>
      <trkpt lat="44.03061" lon="4.37202">
        <ele>99.4</ele>
        <time>2014-10-26T08:42:17Z</time>
      </trkpt>
      <trkpt lat="44.03068" lon="4.37187">
        <ele>99.5</ele>
        <time>2014-10-26T08:42:19Z</time>
      </trkpt>
      <trkpt lat="44.03074" lon="4.3717">
        <ele>99.2</ele>
        <time>2014-10-26T08:42:21Z</time>
      </trkpt>
      <trkpt lat="44.0308" lon="4.37152">
        <ele>99</ele>
        <time>2014-10-26T08:42:23Z</time>
      </trkpt>
      <trkpt lat="44.03086" lon="4.37136">
        <ele>99.3</ele>
        <time>2014-10-26T08:42:25Z</time>
      </trkpt>
      <trkpt lat="44.03092" lon="4.37121">
        <ele>99.1</ele>
        <time>2014-10-26T08:42:27Z</time>
      </trkpt>
      <trkpt lat="44.03099" lon="4.37106">
        <ele>99.2</ele>
        <time>2014-10-26T08:42:29Z</time>
      </trkpt>
      <trkpt lat="44.03105" lon="4.37091">
        <ele>98.9</ele>
        <time>2014-10-26T08:42:31Z</time>
      </trkpt>
      <trkpt lat="44.03111" lon="4.37077">
        <ele>98.8</ele>
        <time>2014-10-26T08:42:33Z</time>
      </trkpt>
      <trkpt lat="44.03116" lon="4.37063">
        <ele>98.8</ele>
        <time>2014-10-26T08:42:35Z</time>
      </trkpt>
      <trkpt lat="44.03123" lon="4.3705">
        <ele>98.8</ele>
        <time>2014-10-26T08:42:37Z</time>
      </trkpt>
      <trkpt lat="44.03129" lon="4.37035">
        <ele>98.9</ele>
        <time>2014-10-26T08:42:39Z</time>
      </trkpt>
      <trkpt lat="44.03135" lon="4.3702">
        <ele>98.9</ele>
        <time>2014-10-26T08:42:41Z</time>
      </trkpt>
      <trkpt lat="44.03141" lon="4.37003">
        <ele>98.9</ele>
        <time>2014-10-26T08:42:43Z</time>
      </trkpt>
      <trkpt lat="44.03148" lon="4.36986">
        <ele>98.9</ele>
        <time>2014-10-26T08:42:45Z</time>
      </trkpt>
      <trkpt lat="44.03154" lon="4.36973">
        <ele>99</ele>
        <time>2014-10-26T08:42:47Z</time>
      </trkpt>
      <trkpt lat="44.03161" lon="4.36958">
        <ele>99.2</ele>
        <time>2014-10-26T08:42:49Z</time>
      </trkpt>
      <trkpt lat="44.03167" lon="4.36944">
        <ele>99</ele>
        <time>2014-10-26T08:42:51Z</time>
      </trkpt>
      <trkpt lat="44.03174" lon="4.36928">
        <ele>99</ele>
        <time>2014-10-26T08:42:53Z</time>
      </trkpt>
      <trkpt lat="44.03181" lon="4.36913">
        <ele>98.9</ele>
        <time>2014-10-26T08:42:55Z</time>
      </trkpt>
      <trkpt lat="44.03188" lon="4.36897">
        <ele>98.9</ele>
        <time>2014-10-26T08:42:57Z</time>
      </trkpt>
      <trkpt lat="44.03196" lon="4.36881">
        <ele>99.2</ele>
        <time>2014-10-26T08:42:59Z</time>
      </trkpt>
      <trkpt lat="44.03202" lon="4.36865">
        <ele>99.2</ele>
        <time>2014-10-26T08:43:01Z</time>
      </trkpt>
      <trkpt lat="44.03207" lon="4.36852">
        <ele>99.6</ele>
        <time>2014-10-26T08:43:03Z</time>
      </trkpt>
      <trkpt lat="44.03212" lon="4.36841">
        <ele>100.3</ele>
        <time>2014-10-26T08:43:07Z</time>
      </trkpt>
      <trkpt lat="44.03217" lon="4.36827">
        <ele>100.6</ele>
        <time>2014-10-26T08:43:12Z</time>
      </trkpt>
      <trkpt lat="44.03225" lon="4.36812">
        <ele>100.5</ele>
        <time>2014-10-26T08:43:15Z</time>
      </trkpt>
      <trkpt lat="44.03231" lon="4.36799">
        <ele>100.5</ele>
        <time>2014-10-26T08:43:17Z</time>
      </trkpt>
      <trkpt lat="44.03237" lon="4.36787">
        <ele>100.6</ele>
        <time>2014-10-26T08:43:19Z</time>
      </trkpt>
      <trkpt lat="44.03241" lon="4.36774">
        <ele>100.6</ele>
        <time>2014-10-26T08:43:21Z</time>
      </trkpt>
      <trkpt lat="44.03245" lon="4.36763">
        <ele>100.7</ele>
        <time>2014-10-26T08:43:23Z</time>
      </trkpt>
      <trkpt lat="44.03249" lon="4.3675">
        <ele>100.8</ele>
        <time>2014-10-26T08:43:25Z</time>
      </trkpt>
      <trkpt lat="44.03253" lon="4.36735">
        <ele>100.9</ele>
        <time>2014-10-26T08:43:27Z</time>
      </trkpt>
      <trkpt lat="44.03258" lon="4.36721">
        <ele>101.1</ele>
        <time>2014-10-26T08:43:29Z</time>
      </trkpt>
      <trkpt lat="44.03264" lon="4.36707">
        <ele>101.2</ele>
        <time>2014-10-26T08:43:31Z</time>
      </trkpt>
      <trkpt lat="44.03269" lon="4.36696">
        <ele>101.6</ele>
        <time>2014-10-26T08:43:33Z</time>
      </trkpt>
      <trkpt lat="44.03275" lon="4.36682">
        <ele>102.3</ele>
        <time>2014-10-26T08:43:36Z</time>
      </trkpt>
      <trkpt lat="44.03282" lon="4.36667">
        <ele>102</ele>
        <time>2014-10-26T08:43:39Z</time>
      </trkpt>
      <trkpt lat="44.03288" lon="4.36655">
        <ele>101.9</ele>
        <time>2014-10-26T08:43:41Z</time>
      </trkpt>
      <trkpt lat="44.03293" lon="4.36641">
        <ele>101.9</ele>
        <time>2014-10-26T08:43:43Z</time>
      </trkpt>
      <trkpt lat="44.03298" lon="4.36628">
        <ele>101.4</ele>
        <time>2014-10-26T08:43:45Z</time>
      </trkpt>
      <trkpt lat="44.03306" lon="4.36614">
        <ele>101.3</ele>
        <time>2014-10-26T08:43:47Z</time>
      </trkpt>
      <trkpt lat="44.03312" lon="4.36601">
        <ele>100.9</ele>
        <time>2014-10-26T08:43:49Z</time>
      </trkpt>
      <trkpt lat="44.03318" lon="4.36585">
        <ele>101</ele>
        <time>2014-10-26T08:43:51Z</time>
      </trkpt>
      <trkpt lat="44.03326" lon="4.36568">
        <ele>101.1</ele>
        <time>2014-10-26T08:43:53Z</time>
      </trkpt>
      <trkpt lat="44.03332" lon="4.36551">
        <ele>101.4</ele>
        <time>2014-10-26T08:43:55Z</time>
      </trkpt>
      <trkpt lat="44.03337" lon="4.36538">
        <ele>101.7</ele>
        <time>2014-10-26T08:43:57Z</time>
      </trkpt>
      <trkpt lat="44.03342" lon="4.36525">
        <ele>102.2</ele>
        <time>2014-10-26T08:43:59Z</time>
      </trkpt>
      <trkpt lat="44.03348" lon="4.36514">
        <ele>102.6</ele>
        <time>2014-10-26T08:44:01Z</time>
      </trkpt>
      <trkpt lat="44.03352" lon="4.36499">
        <ele>102.6</ele>
        <time>2014-10-26T08:44:03Z</time>
      </trkpt>
      <trkpt lat="44.03359" lon="4.36485">
        <ele>102.6</ele>
        <time>2014-10-26T08:44:05Z</time>
      </trkpt>
      <trkpt lat="44.03364" lon="4.3647">
        <ele>102.7</ele>
        <time>2014-10-26T08:44:07Z</time>
      </trkpt>
      <trkpt lat="44.03369" lon="4.36455">
        <ele>102.6</ele>
        <time>2014-10-26T08:44:09Z</time>
      </trkpt>
      <trkpt lat="44.03372" lon="4.3644">
        <ele>102.8</ele>
        <time>2014-10-26T08:44:11Z</time>
      </trkpt>
      <trkpt lat="44.03377" lon="4.36424">
        <ele>103.3</ele>
        <time>2014-10-26T08:44:13Z</time>
      </trkpt>
      <trkpt lat="44.03382" lon="4.36409">
        <ele>103.3</ele>
        <time>2014-10-26T08:44:15Z</time>
      </trkpt>
      <trkpt lat="44.03388" lon="4.36395">
        <ele>103.7</ele>
        <time>2014-10-26T08:44:17Z</time>
      </trkpt>
      <trkpt lat="44.03393" lon="4.3638">
        <ele>103.9</ele>
        <time>2014-10-26T08:44:19Z</time>
      </trkpt>
      <trkpt lat="44.03398" lon="4.36365">
        <ele>104.3</ele>
        <time>2014-10-26T08:44:21Z</time>
      </trkpt>
      <trkpt lat="44.03404" lon="4.36351">
        <ele>104.4</ele>
        <time>2014-10-26T08:44:23Z</time>
      </trkpt>
      <trkpt lat="44.03412" lon="4.36337">
        <ele>104.6</ele>
        <time>2014-10-26T08:44:25Z</time>
      </trkpt>
      <trkpt lat="44.0342" lon="4.36323">
        <ele>104.8</ele>
        <time>2014-10-26T08:44:27Z</time>
      </trkpt>
      <trkpt lat="44.03427" lon="4.36309">
        <ele>105</ele>
        <time>2014-10-26T08:44:29Z</time>
      </trkpt>
      <trkpt lat="44.03434" lon="4.36294">
        <ele>105</ele>
        <time>2014-10-26T08:44:31Z</time>
      </trkpt>
      <trkpt lat="44.0344" lon="4.36279">
        <ele>105.3</ele>
        <time>2014-10-26T08:44:33Z</time>
      </trkpt>
      <trkpt lat="44.03447" lon="4.36263">
        <ele>105.6</ele>
        <time>2014-10-26T08:44:35Z</time>
      </trkpt>
      <trkpt lat="44.03453" lon="4.36248">
        <ele>105.9</ele>
        <time>2014-10-26T08:44:37Z</time>
      </trkpt>
      <trkpt lat="44.03459" lon="4.36237">
        <ele>106.3</ele>
        <time>2014-10-26T08:44:39Z</time>
      </trkpt>
      <trkpt lat="44.03467" lon="4.36229">
        <ele>106.5</ele>
        <time>2014-10-26T08:44:41Z</time>
      </trkpt>
      <trkpt lat="44.03476" lon="4.36225">
        <ele>106.4</ele>
        <time>2014-10-26T08:44:43Z</time>
      </trkpt>
      <trkpt lat="44.03486" lon="4.36221">
        <ele>106.4</ele>
        <time>2014-10-26T08:44:45Z</time>
      </trkpt>
      <trkpt lat="44.03496" lon="4.36216">
        <ele>106.9</ele>
        <time>2014-10-26T08:44:47Z</time>
      </trkpt>
      <trkpt lat="44.03507" lon="4.36211">
        <ele>107.4</ele>
        <time>2014-10-26T08:44:49Z</time>
      </trkpt>
      <trkpt lat="44.03517" lon="4.36205">
        <ele>108.1</ele>
        <time>2014-10-26T08:44:51Z</time>
      </trkpt>
      <trkpt lat="44.03526" lon="4.36197">
        <ele>108.6</ele>
        <time>2014-10-26T08:44:53Z</time>
      </trkpt>
      <trkpt lat="44.03534" lon="4.36185">
        <ele>108.8</ele>
        <time>2014-10-26T08:44:55Z</time>
      </trkpt>
      <trkpt lat="44.03541" lon="4.36171">
        <ele>109</ele>
        <time>2014-10-26T08:44:57Z</time>
      </trkpt>
      <trkpt lat="44.03547" lon="4.36157">
        <ele>109.1</ele>
        <time>2014-10-26T08:44:59Z</time>
      </trkpt>
      <trkpt lat="44.03553" lon="4.3614">
        <ele>109.4</ele>
        <time>2014-10-26T08:45:01Z</time>
      </trkpt>
      <trkpt lat="44.0356" lon="4.36124">
        <ele>109</ele>
        <time>2014-10-26T08:45:03Z</time>
      </trkpt>
      <trkpt lat="44.03568" lon="4.36107">
        <ele>108.9</ele>
        <time>2014-10-26T08:45:05Z</time>
      </trkpt>
      <trkpt lat="44.03575" lon="4.36091">
        <ele>108.7</ele>
        <time>2014-10-26T08:45:07Z</time>
      </trkpt>
      <trkpt lat="44.03582" lon="4.36074">
        <ele>108.4</ele>
        <time>2014-10-26T08:45:09Z</time>
      </trkpt>
      <trkpt lat="44.03589" lon="4.36058">
        <ele>108.6</ele>
        <time>2014-10-26T08:45:11Z</time>
      </trkpt>
      <trkpt lat="44.03597" lon="4.36042">
        <ele>108.6</ele>
        <time>2014-10-26T08:45:13Z</time>
      </trkpt>
      <trkpt lat="44.03604" lon="4.36026">
        <ele>108.6</ele>
        <time>2014-10-26T08:45:15Z</time>
      </trkpt>
      <trkpt lat="44.0361" lon="4.36012">
        <ele>109.1</ele>
        <time>2014-10-26T08:45:17Z</time>
      </trkpt>
      <trkpt lat="44.03616" lon="4.36">
        <ele>109.6</ele>
        <time>2014-10-26T08:45:19Z</time>
      </trkpt>
      <trkpt lat="44.03621" lon="4.35985">
        <ele>110</ele>
        <time>2014-10-26T08:45:22Z</time>
      </trkpt>
      <trkpt lat="44.03624" lon="4.35971">
        <ele>110</ele>
        <time>2014-10-26T08:45:25Z</time>
      </trkpt>
      <trkpt lat="44.03628" lon="4.35955">
        <ele>109.8</ele>
        <time>2014-10-26T08:45:28Z</time>
      </trkpt>
      <trkpt lat="44.03633" lon="4.35941">
        <ele>110.2</ele>
        <time>2014-10-26T08:45:32Z</time>
      </trkpt>
      <trkpt lat="44.03636" lon="4.35929">
        <ele>110</ele>
        <time>2014-10-26T08:45:37Z</time>
      </trkpt>
      <trkpt lat="44.03639" lon="4.35917">
        <ele>109.4</ele>
        <time>2014-10-26T08:45:44Z</time>
      </trkpt>
      <trkpt lat="44.03645" lon="4.35906">
        <ele>109.4</ele>
        <time>2014-10-26T08:45:52Z</time>
      </trkpt>
      <trkpt lat="44.03653" lon="4.35898">
        <ele>109.5</ele>
        <time>2014-10-26T08:45:58Z</time>
      </trkpt>
      <trkpt lat="44.03662" lon="4.35891">
        <ele>109.7</ele>
        <time>2014-10-26T08:46:05Z</time>
      </trkpt>
      <trkpt lat="44.03671" lon="4.35884">
        <ele>110</ele>
        <time>2014-10-26T08:46:12Z</time>
      </trkpt>
      <trkpt lat="44.03678" lon="4.35876">
        <ele>110</ele>
        <time>2014-10-26T08:46:18Z</time>
      </trkpt>
      <trkpt lat="44.03687" lon="4.35874">
        <ele>109.8</ele>
        <time>2014-10-26T08:46:23Z</time>
      </trkpt>
      <trkpt lat="44.03695" lon="4.35867">
        <ele>109.5</ele>
        <time>2014-10-26T08:46:29Z</time>
      </trkpt>
      <trkpt lat="44.03704" lon="4.35861">
        <ele>109.6</ele>
        <time>2014-10-26T08:46:35Z</time>
      </trkpt>
      <trkpt lat="44.03713" lon="4.35854">
        <ele>109.5</ele>
        <time>2014-10-26T08:46:42Z</time>
      </trkpt>
      <trkpt lat="44.03719" lon="4.35845">
        <ele>109.5</ele>
        <time>2014-10-26T08:46:48Z</time>
      </trkpt>
      <trkpt lat="44.03726" lon="4.35833">
        <ele>109.6</ele>
        <time>2014-10-26T08:46:54Z</time>
      </trkpt>
      <trkpt lat="44.03733" lon="4.35827">
        <ele>109.6</ele>
        <time>2014-10-26T08:46:58Z</time>
      </trkpt>
      <trkpt lat="44.03739" lon="4.35816">
        <ele>109.3</ele>
        <time>2014-10-26T08:47:04Z</time>
      </trkpt>
      <trkpt lat="44.03748" lon="4.35813">
        <ele>109.5</ele>
        <time>2014-10-26T08:47:16Z</time>
      </trkpt>
      <trkpt lat="44.03739" lon="4.35815">
        <ele>106.7</ele>
        <time>2014-10-26T08:49:25Z</time>
      </trkpt>
      <trkpt lat="44.03714" lon="4.35759">
        <ele>106</ele>
        <time>2014-10-26T08:49:30Z</time>
      </trkpt>
      <trkpt lat="44.03741" lon="4.35747">
        <ele>106.5</ele>
        <time>2014-10-26T08:49:35Z</time>
      </trkpt>
      <trkpt lat="44.03755" lon="4.35746">
        <ele>106.2</ele>
        <time>2014-10-26T08:49:37Z</time>
      </trkpt>
      <trkpt lat="44.03767" lon="4.35745">
        <ele>106.1</ele>
        <time>2014-10-26T08:49:40Z</time>
      </trkpt>
      <trkpt lat="44.03754" lon="4.35745">
        <ele>105.5</ele>
        <time>2014-10-26T08:49:52Z</time>
      </trkpt>
      <trkpt lat="44.03743" lon="4.35742">
        <ele>105.5</ele>
        <time>2014-10-26T08:49:54Z</time>
      </trkpt>
      <trkpt lat="44.03721" lon="4.3573">
        <ele>105.8</ele>
        <time>2014-10-26T08:49:56Z</time>
      </trkpt>
      <trkpt lat="44.03711" lon="4.35725">
        <ele>105.7</ele>
        <time>2014-10-26T08:49:57Z</time>
      </trkpt>
      <trkpt lat="44.03701" lon="4.35721">
        <ele>105.6</ele>
        <time>2014-10-26T08:49:58Z</time>
      </trkpt>
      <trkpt lat="44.0369" lon="4.35716">
        <ele>105.7</ele>
        <time>2014-10-26T08:49:59Z</time>
      </trkpt>
      <trkpt lat="44.0368" lon="4.35712">
        <ele>105.8</ele>
        <time>2014-10-26T08:50:00Z</time>
      </trkpt>
      <trkpt lat="44.03667" lon="4.35705">
        <ele>105.9</ele>
        <time>2014-10-26T08:50:01Z</time>
      </trkpt>
      <trkpt lat="44.03655" lon="4.35701">
        <ele>106</ele>
        <time>2014-10-26T08:50:02Z</time>
      </trkpt>
      <trkpt lat="44.0364" lon="4.35695">
        <ele>105.8</ele>
        <time>2014-10-26T08:50:03Z</time>
      </trkpt>
      <trkpt lat="44.03625" lon="4.35689">
        <ele>105.8</ele>
        <time>2014-10-26T08:50:04Z</time>
      </trkpt>
      <trkpt lat="44.03611" lon="4.35683">
        <ele>105.9</ele>
        <time>2014-10-26T08:50:05Z</time>
      </trkpt>
      <trkpt lat="44.03596" lon="4.35678">
        <ele>105.8</ele>
        <time>2014-10-26T08:50:06Z</time>
      </trkpt>
      <trkpt lat="44.03583" lon="4.35672">
        <ele>106</ele>
        <time>2014-10-26T08:50:07Z</time>
      </trkpt>
      <trkpt lat="44.03569" lon="4.35666">
        <ele>105.9</ele>
        <time>2014-10-26T08:50:08Z</time>
      </trkpt>
      <trkpt lat="44.03551" lon="4.35658">
        <ele>106</ele>
        <time>2014-10-26T08:50:09Z</time>
      </trkpt>
      <trkpt lat="44.03533" lon="4.3565">
        <ele>105.9</ele>
        <time>2014-10-26T08:50:10Z</time>
      </trkpt>
      <trkpt lat="44.03516" lon="4.35643">
        <ele>105.8</ele>
        <time>2014-10-26T08:50:11Z</time>
      </trkpt>
      <trkpt lat="44.035" lon="4.35635">
        <ele>105.6</ele>
        <time>2014-10-26T08:50:12Z</time>
      </trkpt>
      <trkpt lat="44.03482" lon="4.35627">
        <ele>105.7</ele>
        <time>2014-10-26T08:50:13Z</time>
      </trkpt>
      <trkpt lat="44.03465" lon="4.35619">
        <ele>105.8</ele>
        <time>2014-10-26T08:50:14Z</time>
      </trkpt>
      <trkpt lat="44.03449" lon="4.35614">
        <ele>105.9</ele>
        <time>2014-10-26T08:50:15Z</time>
      </trkpt>
      <trkpt lat="44.03432" lon="4.35607">
        <ele>105.7</ele>
        <time>2014-10-26T08:50:16Z</time>
      </trkpt>
      <trkpt lat="44.03414" lon="4.356">
        <ele>105.6</ele>
        <time>2014-10-26T08:50:17Z</time>
      </trkpt>
      <trkpt lat="44.03397" lon="4.35592">
        <ele>105.6</ele>
        <time>2014-10-26T08:50:18Z</time>
      </trkpt>
      <trkpt lat="44.03379" lon="4.35584">
        <ele>105.4</ele>
        <time>2014-10-26T08:50:19Z</time>
      </trkpt>
      <trkpt lat="44.03361" lon="4.35576">
        <ele>105.4</ele>
        <time>2014-10-26T08:50:20Z</time>
      </trkpt>
      <trkpt lat="44.03347" lon="4.35568">
        <ele>105.3</ele>
        <time>2014-10-26T08:50:21Z</time>
      </trkpt>
      <trkpt lat="44.03331" lon="4.3556">
        <ele>105.5</ele>
        <time>2014-10-26T08:50:22Z</time>
      </trkpt>
      <trkpt lat="44.03317" lon="4.35553">
        <ele>105.5</ele>
        <time>2014-10-26T08:50:23Z</time>
      </trkpt>
      <trkpt lat="44.03323" lon="4.3554">
        <ele>105.3</ele>
        <time>2014-10-26T08:50:24Z</time>
      </trkpt>
      <trkpt lat="44.03293" lon="4.35501">
        <ele>105</ele>
        <time>2014-10-26T08:50:29Z</time>
      </trkpt>
      <trkpt lat="44.03238" lon="4.35464">
        <ele>106</ele>
        <time>2014-10-26T08:50:34Z</time>
      </trkpt>
      <trkpt lat="44.03225" lon="4.35455">
        <ele>106</ele>
        <time>2014-10-26T08:50:35Z</time>
      </trkpt>
      <trkpt lat="44.03174" lon="4.35425">
        <ele>105</ele>
        <time>2014-10-26T08:50:40Z</time>
      </trkpt>
      <trkpt lat="44.03304" lon="4.35464">
        <ele>104</ele>
        <time>2014-10-26T08:50:58Z</time>
      </trkpt>
      <trkpt lat="44.03346" lon="4.35473">
        <ele>104.1</ele>
        <time>2014-10-26T08:51:03Z</time>
      </trkpt>
      <trkpt lat="44.03331" lon="4.35459">
        <ele>103</ele>
        <time>2014-10-26T08:51:08Z</time>
      </trkpt>
      <trkpt lat="44.0331" lon="4.35444">
        <ele>103.8</ele>
        <time>2014-10-26T08:51:13Z</time>
      </trkpt>
      <trkpt lat="44.03298" lon="4.35422">
        <ele>103</ele>
        <time>2014-10-26T08:51:19Z</time>
      </trkpt>
      <trkpt lat="44.03289" lon="4.35397">
        <ele>103</ele>
        <time>2014-10-26T08:51:28Z</time>
      </trkpt>
      <trkpt lat="44.03301" lon="4.35386">
        <ele>103</ele>
        <time>2014-10-26T08:51:37Z</time>
      </trkpt>
      <trkpt lat="44.03325" lon="4.35388">
        <ele>103</ele>
        <time>2014-10-26T08:51:46Z</time>
      </trkpt>
      <trkpt lat="44.03303" lon="4.35383">
        <ele>103</ele>
        <time>2014-10-26T08:52:04Z</time>
      </trkpt>
      <trkpt lat="44.03277" lon="4.35375">
        <ele>103.2</ele>
        <time>2014-10-26T08:52:09Z</time>
      </trkpt>
      <trkpt lat="44.03264" lon="4.35368">
        <ele>103.2</ele>
        <time>2014-10-26T08:52:11Z</time>
      </trkpt>
      <trkpt lat="44.03251" lon="4.35364">
        <ele>103.2</ele>
        <time>2014-10-26T08:52:13Z</time>
      </trkpt>
      <trkpt lat="44.03237" lon="4.35363">
        <ele>103</ele>
        <time>2014-10-26T08:52:27Z</time>
      </trkpt>
      <trkpt lat="44.03217" lon="4.35367">
        <ele>103</ele>
        <time>2014-10-26T08:52:36Z</time>
      </trkpt>
      <trkpt lat="44.0317" lon="4.35357">
        <ele>103</ele>
        <time>2014-10-26T08:52:45Z</time>
      </trkpt>
      <trkpt lat="44.0309" lon="4.35336">
        <ele>105</ele>
        <time>2014-10-26T08:52:54Z</time>
      </trkpt>
      <trkpt lat="44.03021" lon="4.35318">
        <ele>106</ele>
        <time>2014-10-26T08:53:03Z</time>
      </trkpt>
      <trkpt lat="44.03053" lon="4.35327">
        <ele>106</ele>
        <time>2014-10-26T08:53:12Z</time>
      </trkpt>
      <trkpt lat="44.03255" lon="4.35379">
        <ele>107</ele>
        <time>2014-10-26T08:53:21Z</time>
      </trkpt>
      <trkpt lat="44.03293" lon="4.3539">
        <ele>108.1</ele>
        <time>2014-10-26T08:53:26Z</time>
      </trkpt>
      <trkpt lat="44.03305" lon="4.35392">
        <ele>108.3</ele>
        <time>2014-10-26T08:53:28Z</time>
      </trkpt>
      <trkpt lat="44.03314" lon="4.35395">
        <ele>108.3</ele>
        <time>2014-10-26T08:53:31Z</time>
      </trkpt>
      <trkpt lat="44.03323" lon="4.35399">
        <ele>108.9</ele>
        <time>2014-10-26T08:53:35Z</time>
      </trkpt>
      <trkpt lat="44.03333" lon="4.35403">
        <ele>108.6</ele>
        <time>2014-10-26T08:53:39Z</time>
      </trkpt>
      <trkpt lat="44.03344" lon="4.35407">
        <ele>109.3</ele>
        <time>2014-10-26T08:53:43Z</time>
      </trkpt>
      <trkpt lat="44.03355" lon="4.35414">
        <ele>109.5</ele>
        <time>2014-10-26T08:53:46Z</time>
      </trkpt>
      <trkpt lat="44.03366" lon="4.35419">
        <ele>109.7</ele>
        <time>2014-10-26T08:53:49Z</time>
      </trkpt>
      <trkpt lat="44.03725" lon="4.35536">
        <ele>110</ele>
        <time>2014-10-26T08:53:54Z</time>
      </trkpt>
      <trkpt lat="44.03712" lon="4.35535">
        <ele>111</ele>
        <time>2014-10-26T08:53:59Z</time>
      </trkpt>
      <trkpt lat="44.03703" lon="4.35535">
        <ele>111.3</ele>
        <time>2014-10-26T08:54:05Z</time>
      </trkpt>
      <trkpt lat="44.03702" lon="4.35522">
        <ele>112.7</ele>
        <time>2014-10-26T08:54:15Z</time>
      </trkpt>
      <trkpt lat="44.03694" lon="4.35514">
        <ele>113.1</ele>
        <time>2014-10-26T08:54:19Z</time>
      </trkpt>
      <trkpt lat="44.03688" lon="4.35503">
        <ele>113.7</ele>
        <time>2014-10-26T08:54:24Z</time>
      </trkpt>
      <trkpt lat="44.03681" lon="4.35494">
        <ele>114.7</ele>
        <time>2014-10-26T08:54:31Z</time>
      </trkpt>
      <trkpt lat="44.03672" lon="4.35491">
        <ele>115</ele>
        <time>2014-10-26T08:54:36Z</time>
      </trkpt>
      <trkpt lat="44.03665" lon="4.35483">
        <ele>116.2</ele>
        <time>2014-10-26T08:54:43Z</time>
      </trkpt>
      <trkpt lat="44.03673" lon="4.35474">
        <ele>115.7</ele>
        <time>2014-10-26T08:55:22Z</time>
      </trkpt>
      <trkpt lat="44.03672" lon="4.3546">
        <ele>115.3</ele>
        <time>2014-10-26T08:55:39Z</time>
      </trkpt>
      <trkpt lat="44.03674" lon="4.35474">
        <ele>116</ele>
        <time>2014-10-26T08:55:51Z</time>
      </trkpt>
      <trkpt lat="44.03672" lon="4.35487">
        <ele>116.9</ele>
        <time>2014-10-26T08:55:55Z</time>
      </trkpt>
      <trkpt lat="44.03682" lon="4.35493">
        <ele>117.5</ele>
        <time>2014-10-26T08:56:03Z</time>
      </trkpt>
      <trkpt lat="44.03694" lon="4.35492">
        <ele>117.6</ele>
        <time>2014-10-26T08:56:06Z</time>
      </trkpt>
      <trkpt lat="44.03704" lon="4.35495">
        <ele>117.5</ele>
        <time>2014-10-26T08:56:09Z</time>
      </trkpt>
      <trkpt lat="44.03715" lon="4.35494">
        <ele>117.5</ele>
        <time>2014-10-26T08:56:12Z</time>
      </trkpt>
      <trkpt lat="44.03722" lon="4.35501">
        <ele>118.3</ele>
        <time>2014-10-26T08:56:18Z</time>
      </trkpt>
      <trkpt lat="44.0373" lon="4.3551">
        <ele>119.2</ele>
        <time>2014-10-26T08:56:25Z</time>
      </trkpt>
      <trkpt lat="44.03739" lon="4.35517">
        <ele>119.3</ele>
        <time>2014-10-26T08:56:31Z</time>
      </trkpt>
      <trkpt lat="44.03748" lon="4.35521">
        <ele>119.9</ele>
        <time>2014-10-26T08:56:38Z</time>
      </trkpt>
      <trkpt lat="44.03756" lon="4.35511">
        <ele>121.1</ele>
        <time>2014-10-26T08:56:47Z</time>
      </trkpt>
      <trkpt lat="44.03765" lon="4.35504">
        <ele>122.1</ele>
        <time>2014-10-26T08:56:52Z</time>
      </trkpt>
      <trkpt lat="44.03766" lon="4.35491">
        <ele>123.3</ele>
        <time>2014-10-26T08:56:59Z</time>
      </trkpt>
      <trkpt lat="44.03759" lon="4.35483">
        <ele>124.6</ele>
        <time>2014-10-26T08:57:07Z</time>
      </trkpt>
      <trkpt lat="44.03751" lon="4.35473">
        <ele>126.4</ele>
        <time>2014-10-26T08:57:17Z</time>
      </trkpt>
      <trkpt lat="44.03742" lon="4.35467">
        <ele>127.8</ele>
        <time>2014-10-26T08:57:26Z</time>
      </trkpt>
      <trkpt lat="44.03736" lon="4.35457">
        <ele>128.7</ele>
        <time>2014-10-26T08:57:32Z</time>
      </trkpt>
      <trkpt lat="44.03731" lon="4.35446">
        <ele>129.5</ele>
        <time>2014-10-26T08:57:39Z</time>
      </trkpt>
      <trkpt lat="44.03727" lon="4.35434">
        <ele>130.5</ele>
        <time>2014-10-26T08:57:45Z</time>
      </trkpt>
      <trkpt lat="44.03719" lon="4.35425">
        <ele>130.7</ele>
        <time>2014-10-26T08:57:49Z</time>
      </trkpt>
      <trkpt lat="44.03714" lon="4.35413">
        <ele>131.4</ele>
        <time>2014-10-26T08:57:55Z</time>
      </trkpt>
      <trkpt lat="44.03704" lon="4.35408">
        <ele>132.8</ele>
        <time>2014-10-26T08:58:01Z</time>
      </trkpt>
      <trkpt lat="44.03701" lon="4.35396">
        <ele>133.5</ele>
        <time>2014-10-26T08:58:06Z</time>
      </trkpt>
      <trkpt lat="44.03697" lon="4.35382">
        <ele>134</ele>
        <time>2014-10-26T08:58:11Z</time>
      </trkpt>
      <trkpt lat="44.03695" lon="4.35368">
        <ele>134.6</ele>
        <time>2014-10-26T08:58:16Z</time>
      </trkpt>
      <trkpt lat="44.03703" lon="4.35355">
        <ele>137.2</ele>
        <time>2014-10-26T08:58:30Z</time>
      </trkpt>
      <trkpt lat="44.03705" lon="4.35343">
        <ele>137.7</ele>
        <time>2014-10-26T08:58:35Z</time>
      </trkpt>
      <trkpt lat="44.03699" lon="4.35325">
        <ele>137.9</ele>
        <time>2014-10-26T08:58:37Z</time>
      </trkpt>
      <trkpt lat="44.03696" lon="4.35312">
        <ele>138.3</ele>
        <time>2014-10-26T08:58:40Z</time>
      </trkpt>
      <trkpt lat="44.03696" lon="4.35298">
        <ele>138.5</ele>
        <time>2014-10-26T08:58:47Z</time>
      </trkpt>
      <trkpt lat="44.03694" lon="4.35285">
        <ele>138.6</ele>
        <time>2014-10-26T08:58:53Z</time>
      </trkpt>
      <trkpt lat="44.0369" lon="4.35272">
        <ele>138.7</ele>
        <time>2014-10-26T08:59:00Z</time>
      </trkpt>
      <trkpt lat="44.03687" lon="4.35258">
        <ele>139.1</ele>
        <time>2014-10-26T08:59:06Z</time>
      </trkpt>
      <trkpt lat="44.03684" lon="4.35244">
        <ele>138.7</ele>
        <time>2014-10-26T08:59:11Z</time>
      </trkpt>
      <trkpt lat="44.03682" lon="4.3523">
        <ele>138.3</ele>
        <time>2014-10-26T08:59:16Z</time>
      </trkpt>
      <trkpt lat="44.03679" lon="4.35217">
        <ele>137.6</ele>
        <time>2014-10-26T08:59:22Z</time>
      </trkpt>
      <trkpt lat="44.03674" lon="4.35205">
        <ele>137.4</ele>
        <time>2014-10-26T08:59:28Z</time>
      </trkpt>
      <trkpt lat="44.03673" lon="4.35192">
        <ele>137.7</ele>
        <time>2014-10-26T08:59:37Z</time>
      </trkpt>
      <trkpt lat="44.03665" lon="4.35182">
        <ele>137.7</ele>
        <time>2014-10-26T08:59:45Z</time>
      </trkpt>
      <trkpt lat="44.03661" lon="4.35166">
        <ele>137.5</ele>
        <time>2014-10-26T08:59:50Z</time>
      </trkpt>
      <trkpt lat="44.03657" lon="4.35155">
        <ele>137.9</ele>
        <time>2014-10-26T08:59:54Z</time>
      </trkpt>
      <trkpt lat="44.03655" lon="4.35139">
        <ele>138.1</ele>
        <time>2014-10-26T09:00:05Z</time>
      </trkpt>
      <trkpt lat="44.03649" lon="4.35129">
        <ele>138.1</ele>
        <time>2014-10-26T09:00:08Z</time>
      </trkpt>
      <trkpt lat="44.03643" lon="4.35117">
        <ele>138</ele>
        <time>2014-10-26T09:00:17Z</time>
      </trkpt>
      <trkpt lat="44.03636" lon="4.35106">
        <ele>138.3</ele>
        <time>2014-10-26T09:00:21Z</time>
      </trkpt>
      <trkpt lat="44.03632" lon="4.35094">
        <ele>138.7</ele>
        <time>2014-10-26T09:00:27Z</time>
      </trkpt>
      <trkpt lat="44.03625" lon="4.35082">
        <ele>140.1</ele>
        <time>2014-10-26T09:00:46Z</time>
      </trkpt>
      <trkpt lat="44.0362" lon="4.35071">
        <ele>140.7</ele>
        <time>2014-10-26T09:00:54Z</time>
      </trkpt>
      <trkpt lat="44.03617" lon="4.35059">
        <ele>141.4</ele>
        <time>2014-10-26T09:01:04Z</time>
      </trkpt>
      <trkpt lat="44.03611" lon="4.35047">
        <ele>141.4</ele>
        <time>2014-10-26T09:01:12Z</time>
      </trkpt>
      <trkpt lat="44.03609" lon="4.35035">
        <ele>141.7</ele>
        <time>2014-10-26T09:01:22Z</time>
      </trkpt>
      <trkpt lat="44.03604" lon="4.35022">
        <ele>142.3</ele>
        <time>2014-10-26T09:01:32Z</time>
      </trkpt>
      <trkpt lat="44.03609" lon="4.35008">
        <ele>142.9</ele>
        <time>2014-10-26T09:01:43Z</time>
      </trkpt>
      <trkpt lat="44.03613" lon="4.34997">
        <ele>143.3</ele>
        <time>2014-10-26T09:01:47Z</time>
      </trkpt>
      <trkpt lat="44.03609" lon="4.34985">
        <ele>143.7</ele>
        <time>2014-10-26T09:01:54Z</time>
      </trkpt>
      <trkpt lat="44.03607" lon="4.34973">
        <ele>144</ele>
        <time>2014-10-26T09:02:00Z</time>
      </trkpt>
      <trkpt lat="44.03602" lon="4.3496">
        <ele>144.8</ele>
        <time>2014-10-26T09:02:06Z</time>
      </trkpt>
      <trkpt lat="44.03594" lon="4.34954">
        <ele>144.9</ele>
        <time>2014-10-26T09:02:24Z</time>
      </trkpt>
      <trkpt lat="44.03592" lon="4.34941">
        <ele>145.6</ele>
        <time>2014-10-26T09:02:36Z</time>
      </trkpt>
      <trkpt lat="44.03591" lon="4.34928">
        <ele>146.8</ele>
        <time>2014-10-26T09:02:52Z</time>
      </trkpt>
      <trkpt lat="44.03596" lon="4.34917">
        <ele>148.4</ele>
        <time>2014-10-26T09:02:59Z</time>
      </trkpt>
      <trkpt lat="44.03594" lon="4.34903">
        <ele>149.6</ele>
        <time>2014-10-26T09:03:08Z</time>
      </trkpt>
      <trkpt lat="44.03592" lon="4.34888">
        <ele>149.4</ele>
        <time>2014-10-26T09:03:15Z</time>
      </trkpt>
      <trkpt lat="44.03586" lon="4.34877">
        <ele>149.5</ele>
        <time>2014-10-26T09:03:21Z</time>
      </trkpt>
      <trkpt lat="44.03582" lon="4.34864">
        <ele>149.3</ele>
        <time>2014-10-26T09:03:27Z</time>
      </trkpt>
      <trkpt lat="44.03577" lon="4.34851">
        <ele>149.4</ele>
        <time>2014-10-26T09:03:32Z</time>
      </trkpt>
      <trkpt lat="44.03571" lon="4.3484">
        <ele>149.1</ele>
        <time>2014-10-26T09:03:36Z</time>
      </trkpt>
      <trkpt lat="44.03563" lon="4.34831">
        <ele>149.3</ele>
        <time>2014-10-26T09:03:41Z</time>
      </trkpt>
      <trkpt lat="44.03559" lon="4.34819">
        <ele>148.7</ele>
        <time>2014-10-26T09:03:46Z</time>
      </trkpt>
      <trkpt lat="44.03554" lon="4.34805">
        <ele>148.6</ele>
        <time>2014-10-26T09:03:52Z</time>
      </trkpt>
      <trkpt lat="44.0355" lon="4.34794">
        <ele>148.2</ele>
        <time>2014-10-26T09:03:58Z</time>
      </trkpt>
      <trkpt lat="44.03547" lon="4.34781">
        <ele>148</ele>
        <time>2014-10-26T09:04:03Z</time>
      </trkpt>
      <trkpt lat="44.03542" lon="4.34769">
        <ele>147.8</ele>
        <time>2014-10-26T09:04:09Z</time>
      </trkpt>
      <trkpt lat="44.0354" lon="4.34756">
        <ele>147.3</ele>
        <time>2014-10-26T09:04:16Z</time>
      </trkpt>
      <trkpt lat="44.03535" lon="4.34744">
        <ele>147.1</ele>
        <time>2014-10-26T09:04:22Z</time>
      </trkpt>
      <trkpt lat="44.03534" lon="4.3473">
        <ele>146.9</ele>
        <time>2014-10-26T09:04:29Z</time>
      </trkpt>
      <trkpt lat="44.03527" lon="4.34718">
        <ele>146.4</ele>
        <time>2014-10-26T09:04:35Z</time>
      </trkpt>
      <trkpt lat="44.03523" lon="4.34707">
        <ele>145.9</ele>
        <time>2014-10-26T09:04:40Z</time>
      </trkpt>
      <trkpt lat="44.03518" lon="4.34695">
        <ele>145.2</ele>
        <time>2014-10-26T09:04:45Z</time>
      </trkpt>
      <trkpt lat="44.03513" lon="4.34682">
        <ele>144.8</ele>
        <time>2014-10-26T09:04:50Z</time>
      </trkpt>
      <trkpt lat="44.03506" lon="4.3467">
        <ele>144.8</ele>
        <time>2014-10-26T09:04:54Z</time>
      </trkpt>
      <trkpt lat="44.03499" lon="4.34659">
        <ele>145.3</ele>
        <time>2014-10-26T09:04:58Z</time>
      </trkpt>
      <trkpt lat="44.03495" lon="4.34647">
        <ele>146</ele>
        <time>2014-10-26T09:05:03Z</time>
      </trkpt>
      <trkpt lat="44.03491" lon="4.34635">
        <ele>146.5</ele>
        <time>2014-10-26T09:05:08Z</time>
      </trkpt>
      <trkpt lat="44.03485" lon="4.34624">
        <ele>146.9</ele>
        <time>2014-10-26T09:05:12Z</time>
      </trkpt>
      <trkpt lat="44.03481" lon="4.34612">
        <ele>147.4</ele>
        <time>2014-10-26T09:05:16Z</time>
      </trkpt>
      <trkpt lat="44.03478" lon="4.34597">
        <ele>147.7</ele>
        <time>2014-10-26T09:05:20Z</time>
      </trkpt>
      <trkpt lat="44.03473" lon="4.34583">
        <ele>147.9</ele>
        <time>2014-10-26T09:05:23Z</time>
      </trkpt>
      <trkpt lat="44.03466" lon="4.34568">
        <ele>148</ele>
        <time>2014-10-26T09:05:26Z</time>
      </trkpt>
      <trkpt lat="44.03461" lon="4.34552">
        <ele>148.2</ele>
        <time>2014-10-26T09:05:29Z</time>
      </trkpt>
      <trkpt lat="44.03455" lon="4.34538">
        <ele>148.2</ele>
        <time>2014-10-26T09:05:32Z</time>
      </trkpt>
      <trkpt lat="44.03449" lon="4.34521">
        <ele>147.6</ele>
        <time>2014-10-26T09:05:35Z</time>
      </trkpt>
      <trkpt lat="44.03445" lon="4.34507">
        <ele>146.9</ele>
        <time>2014-10-26T09:05:37Z</time>
      </trkpt>
      <trkpt lat="44.0344" lon="4.34491">
        <ele>146.5</ele>
        <time>2014-10-26T09:05:39Z</time>
      </trkpt>
      <trkpt lat="44.03434" lon="4.34472">
        <ele>146.4</ele>
        <time>2014-10-26T09:05:41Z</time>
      </trkpt>
      <trkpt lat="44.03427" lon="4.34454">
        <ele>146.5</ele>
        <time>2014-10-26T09:05:43Z</time>
      </trkpt>
      <trkpt lat="44.0342" lon="4.34435">
        <ele>147.8</ele>
        <time>2014-10-26T09:05:45Z</time>
      </trkpt>
      <trkpt lat="44.03415" lon="4.34419">
        <ele>148.6</ele>
        <time>2014-10-26T09:05:47Z</time>
      </trkpt>
      <trkpt lat="44.03408" lon="4.34402">
        <ele>149.2</ele>
        <time>2014-10-26T09:05:49Z</time>
      </trkpt>
      <trkpt lat="44.03407" lon="4.34386">
        <ele>149.5</ele>
        <time>2014-10-26T09:05:51Z</time>
      </trkpt>
      <trkpt lat="44.03402" lon="4.34373">
        <ele>149.8</ele>
        <time>2014-10-26T09:05:53Z</time>
      </trkpt>
      <trkpt lat="44.03397" lon="4.34355">
        <ele>149.7</ele>
        <time>2014-10-26T09:05:56Z</time>
      </trkpt>
      <trkpt lat="44.03392" lon="4.34343">
        <ele>149.4</ele>
        <time>2014-10-26T09:05:58Z</time>
      </trkpt>
      <trkpt lat="44.03388" lon="4.34331">
        <ele>148.9</ele>
        <time>2014-10-26T09:06:00Z</time>
      </trkpt>
      <trkpt lat="44.03382" lon="4.34317">
        <ele>149.1</ele>
        <time>2014-10-26T09:06:02Z</time>
      </trkpt>
      <trkpt lat="44.03377" lon="4.34303">
        <ele>149.1</ele>
        <time>2014-10-26T09:06:04Z</time>
      </trkpt>
      <trkpt lat="44.03373" lon="4.34288">
        <ele>149.5</ele>
        <time>2014-10-26T09:06:07Z</time>
      </trkpt>
      <trkpt lat="44.03367" lon="4.34275">
        <ele>149.8</ele>
        <time>2014-10-26T09:06:09Z</time>
      </trkpt>
      <trkpt lat="44.03362" lon="4.34264">
        <ele>149.9</ele>
        <time>2014-10-26T09:06:11Z</time>
      </trkpt>
      <trkpt lat="44.03355" lon="4.34252">
        <ele>150</ele>
        <time>2014-10-26T09:06:13Z</time>
      </trkpt>
      <trkpt lat="44.03349" lon="4.34242">
        <ele>150.6</ele>
        <time>2014-10-26T09:06:15Z</time>
      </trkpt>
      <trkpt lat="44.03341" lon="4.3423">
        <ele>151.3</ele>
        <time>2014-10-26T09:06:17Z</time>
      </trkpt>
      <trkpt lat="44.03333" lon="4.34218">
        <ele>151.7</ele>
        <time>2014-10-26T09:06:19Z</time>
      </trkpt>
      <trkpt lat="44.03325" lon="4.34208">
        <ele>151.6</ele>
        <time>2014-10-26T09:06:21Z</time>
      </trkpt>
      <trkpt lat="44.03316" lon="4.34196">
        <ele>151.9</ele>
        <time>2014-10-26T09:06:23Z</time>
      </trkpt>
      <trkpt lat="44.03307" lon="4.34185">
        <ele>152</ele>
        <time>2014-10-26T09:06:25Z</time>
      </trkpt>
      <trkpt lat="44.03298" lon="4.34174">
        <ele>152.4</ele>
        <time>2014-10-26T09:06:27Z</time>
      </trkpt>
      <trkpt lat="44.03291" lon="4.34163">
        <ele>152.8</ele>
        <time>2014-10-26T09:06:29Z</time>
      </trkpt>
      <trkpt lat="44.03283" lon="4.34152">
        <ele>153</ele>
        <time>2014-10-26T09:06:31Z</time>
      </trkpt>
      <trkpt lat="44.03276" lon="4.34141">
        <ele>153.3</ele>
        <time>2014-10-26T09:06:33Z</time>
      </trkpt>
      <trkpt lat="44.03271" lon="4.34125">
        <ele>153.5</ele>
        <time>2014-10-26T09:06:36Z</time>
      </trkpt>
      <trkpt lat="44.03266" lon="4.34113">
        <ele>153.4</ele>
        <time>2014-10-26T09:06:38Z</time>
      </trkpt>
      <trkpt lat="44.0326" lon="4.341">
        <ele>153.1</ele>
        <time>2014-10-26T09:06:40Z</time>
      </trkpt>
      <trkpt lat="44.03254" lon="4.34088">
        <ele>153.1</ele>
        <time>2014-10-26T09:06:42Z</time>
      </trkpt>
      <trkpt lat="44.03249" lon="4.34076">
        <ele>152.7</ele>
        <time>2014-10-26T09:06:45Z</time>
      </trkpt>
      <trkpt lat="44.03246" lon="4.34064">
        <ele>152</ele>
        <time>2014-10-26T09:06:52Z</time>
      </trkpt>
      <trkpt lat="44.0324" lon="4.34052">
        <ele>151.8</ele>
        <time>2014-10-26T09:06:56Z</time>
      </trkpt>
      <trkpt lat="44.03234" lon="4.34042">
        <ele>151.2</ele>
        <time>2014-10-26T09:07:02Z</time>
      </trkpt>
      <trkpt lat="44.03227" lon="4.3403">
        <ele>150.4</ele>
        <time>2014-10-26T09:07:07Z</time>
      </trkpt>
      <trkpt lat="44.03222" lon="4.34019">
        <ele>149.4</ele>
        <time>2014-10-26T09:07:15Z</time>
      </trkpt>
      <trkpt lat="44.0322" lon="4.34005">
        <ele>148.6</ele>
        <time>2014-10-26T09:07:25Z</time>
      </trkpt>
      <trkpt lat="44.03214" lon="4.33993">
        <ele>148.1</ele>
        <time>2014-10-26T09:07:34Z</time>
      </trkpt>
      <trkpt lat="44.0322" lon="4.34002">
        <ele>148.2</ele>
        <time>2014-10-26T09:07:41Z</time>
      </trkpt>
      <trkpt lat="44.03216" lon="4.3399">
        <ele>146.8</ele>
        <time>2014-10-26T09:11:40Z</time>
      </trkpt>
      <trkpt lat="44.03209" lon="4.33976">
        <ele>146.9</ele>
        <time>2014-10-26T09:11:45Z</time>
      </trkpt>
      <trkpt lat="44.03202" lon="4.33962">
        <ele>146.4</ele>
        <time>2014-10-26T09:11:49Z</time>
      </trkpt>
      <trkpt lat="44.03195" lon="4.3395">
        <ele>146.3</ele>
        <time>2014-10-26T09:11:54Z</time>
      </trkpt>
      <trkpt lat="44.03186" lon="4.33933">
        <ele>146.2</ele>
        <time>2014-10-26T09:11:57Z</time>
      </trkpt>
      <trkpt lat="44.0318" lon="4.33922">
        <ele>146.2</ele>
        <time>2014-10-26T09:11:58Z</time>
      </trkpt>
      <trkpt lat="44.03174" lon="4.33908">
        <ele>146.4</ele>
        <time>2014-10-26T09:12:01Z</time>
      </trkpt>
      <trkpt lat="44.03167" lon="4.33895">
        <ele>145.7</ele>
        <time>2014-10-26T09:12:04Z</time>
      </trkpt>
      <trkpt lat="44.03162" lon="4.33884">
        <ele>145.7</ele>
        <time>2014-10-26T09:12:08Z</time>
      </trkpt>
      <trkpt lat="44.03156" lon="4.33874">
        <ele>145.8</ele>
        <time>2014-10-26T09:12:12Z</time>
      </trkpt>
      <trkpt lat="44.0315" lon="4.33865">
        <ele>145.7</ele>
        <time>2014-10-26T09:12:15Z</time>
      </trkpt>
      <trkpt lat="44.03142" lon="4.33854">
        <ele>145.9</ele>
        <time>2014-10-26T09:12:19Z</time>
      </trkpt>
      <trkpt lat="44.03135" lon="4.33841">
        <ele>146.1</ele>
        <time>2014-10-26T09:12:23Z</time>
      </trkpt>
      <trkpt lat="44.03129" lon="4.3383">
        <ele>146.2</ele>
        <time>2014-10-26T09:12:26Z</time>
      </trkpt>
      <trkpt lat="44.03122" lon="4.33819">
        <ele>146.4</ele>
        <time>2014-10-26T09:12:29Z</time>
      </trkpt>
      <trkpt lat="44.03115" lon="4.33808">
        <ele>146.3</ele>
        <time>2014-10-26T09:12:33Z</time>
      </trkpt>
      <trkpt lat="44.03109" lon="4.33797">
        <ele>145.9</ele>
        <time>2014-10-26T09:12:37Z</time>
      </trkpt>
      <trkpt lat="44.03102" lon="4.33787">
        <ele>145.5</ele>
        <time>2014-10-26T09:12:42Z</time>
      </trkpt>
      <trkpt lat="44.03096" lon="4.33778">
        <ele>145.1</ele>
        <time>2014-10-26T09:12:45Z</time>
      </trkpt>
      <trkpt lat="44.0309" lon="4.33767">
        <ele>144.8</ele>
        <time>2014-10-26T09:12:48Z</time>
      </trkpt>
      <trkpt lat="44.03085" lon="4.33755">
        <ele>144.5</ele>
        <time>2014-10-26T09:12:54Z</time>
      </trkpt>
      <trkpt lat="44.03083" lon="4.33741">
        <ele>144.4</ele>
        <time>2014-10-26T09:12:59Z</time>
      </trkpt>
      <trkpt lat="44.0308" lon="4.33727">
        <ele>144.7</ele>
        <time>2014-10-26T09:13:04Z</time>
      </trkpt>
      <trkpt lat="44.03071" lon="4.33707">
        <ele>144.6</ele>
        <time>2014-10-26T09:13:07Z</time>
      </trkpt>
      <trkpt lat="44.03064" lon="4.33695">
        <ele>144.6</ele>
        <time>2014-10-26T09:13:08Z</time>
      </trkpt>
      <trkpt lat="44.03061" lon="4.33682">
        <ele>144.7</ele>
        <time>2014-10-26T09:13:12Z</time>
      </trkpt>
      <trkpt lat="44.03057" lon="4.33667">
        <ele>144.1</ele>
        <time>2014-10-26T09:13:17Z</time>
      </trkpt>
      <trkpt lat="44.03051" lon="4.33655">
        <ele>144.2</ele>
        <time>2014-10-26T09:13:22Z</time>
      </trkpt>
      <trkpt lat="44.03045" lon="4.33644">
        <ele>143.4</ele>
        <time>2014-10-26T09:13:29Z</time>
      </trkpt>
      <trkpt lat="44.03036" lon="4.33635">
        <ele>142.6</ele>
        <time>2014-10-26T09:13:37Z</time>
      </trkpt>
      <trkpt lat="44.03027" lon="4.33629">
        <ele>141.5</ele>
        <time>2014-10-26T09:13:46Z</time>
      </trkpt>
      <trkpt lat="44.03019" lon="4.3362">
        <ele>140.7</ele>
        <time>2014-10-26T09:13:54Z</time>
      </trkpt>
      <trkpt lat="44.03009" lon="4.33616">
        <ele>140.7</ele>
        <time>2014-10-26T09:13:58Z</time>
      </trkpt>
      <trkpt lat="44.02999" lon="4.33614">
        <ele>140.6</ele>
        <time>2014-10-26T09:14:04Z</time>
      </trkpt>
      <trkpt lat="44.02989" lon="4.33615">
        <ele>140.4</ele>
        <time>2014-10-26T09:14:10Z</time>
      </trkpt>
      <trkpt lat="44.0298" lon="4.33616">
        <ele>140.6</ele>
        <time>2014-10-26T09:14:16Z</time>
      </trkpt>
      <trkpt lat="44.0297" lon="4.33616">
        <ele>141</ele>
        <time>2014-10-26T09:14:25Z</time>
      </trkpt>
      <trkpt lat="44.0296" lon="4.33611">
        <ele>140.9</ele>
        <time>2014-10-26T09:14:31Z</time>
      </trkpt>
      <trkpt lat="44.02951" lon="4.33606">
        <ele>140.7</ele>
        <time>2014-10-26T09:14:37Z</time>
      </trkpt>
      <trkpt lat="44.02942" lon="4.336">
        <ele>140.9</ele>
        <time>2014-10-26T09:14:43Z</time>
      </trkpt>
      <trkpt lat="44.02933" lon="4.33594">
        <ele>141.2</ele>
        <time>2014-10-26T09:14:49Z</time>
      </trkpt>
      <trkpt lat="44.02924" lon="4.33593">
        <ele>140.9</ele>
        <time>2014-10-26T09:14:55Z</time>
      </trkpt>
      <trkpt lat="44.02914" lon="4.33591">
        <ele>140.9</ele>
        <time>2014-10-26T09:15:01Z</time>
      </trkpt>
      <trkpt lat="44.02905" lon="4.3359">
        <ele>141</ele>
        <time>2014-10-26T09:15:07Z</time>
      </trkpt>
      <trkpt lat="44.02894" lon="4.33588">
        <ele>141</ele>
        <time>2014-10-26T09:15:13Z</time>
      </trkpt>
      <trkpt lat="44.02884" lon="4.33585">
        <ele>141.7</ele>
        <time>2014-10-26T09:15:20Z</time>
      </trkpt>
      <trkpt lat="44.02874" lon="4.33581">
        <ele>141.7</ele>
        <time>2014-10-26T09:15:26Z</time>
      </trkpt>
      <trkpt lat="44.02865" lon="4.33577">
        <ele>141.9</ele>
        <time>2014-10-26T09:15:32Z</time>
      </trkpt>
      <trkpt lat="44.02856" lon="4.33574">
        <ele>142.1</ele>
        <time>2014-10-26T09:15:39Z</time>
      </trkpt>
      <trkpt lat="44.02847" lon="4.3357">
        <ele>142.5</ele>
        <time>2014-10-26T09:15:46Z</time>
      </trkpt>
      <trkpt lat="44.02838" lon="4.33564">
        <ele>142.9</ele>
        <time>2014-10-26T09:15:52Z</time>
      </trkpt>
      <trkpt lat="44.0283" lon="4.33557">
        <ele>143.1</ele>
        <time>2014-10-26T09:15:59Z</time>
      </trkpt>
      <trkpt lat="44.0282" lon="4.33551">
        <ele>143.4</ele>
        <time>2014-10-26T09:16:05Z</time>
      </trkpt>
      <trkpt lat="44.02812" lon="4.33543">
        <ele>143.5</ele>
        <time>2014-10-26T09:16:11Z</time>
      </trkpt>
      <trkpt lat="44.02802" lon="4.33538">
        <ele>143.5</ele>
        <time>2014-10-26T09:16:16Z</time>
      </trkpt>
      <trkpt lat="44.02793" lon="4.33531">
        <ele>143</ele>
        <time>2014-10-26T09:16:22Z</time>
      </trkpt>
      <trkpt lat="44.02785" lon="4.33525">
        <ele>142.9</ele>
        <time>2014-10-26T09:16:28Z</time>
      </trkpt>
      <trkpt lat="44.02778" lon="4.33516">
        <ele>142.7</ele>
        <time>2014-10-26T09:16:34Z</time>
      </trkpt>
      <trkpt lat="44.02771" lon="4.33507">
        <ele>142.3</ele>
        <time>2014-10-26T09:16:41Z</time>
      </trkpt>
      <trkpt lat="44.02762" lon="4.335">
        <ele>142.7</ele>
        <time>2014-10-26T09:16:46Z</time>
      </trkpt>
      <trkpt lat="44.02754" lon="4.33494">
        <ele>142.1</ele>
        <time>2014-10-26T09:16:52Z</time>
      </trkpt>
      <trkpt lat="44.02746" lon="4.33488">
        <ele>141.8</ele>
        <time>2014-10-26T09:16:57Z</time>
      </trkpt>
      <trkpt lat="44.02738" lon="4.33479">
        <ele>141.1</ele>
        <time>2014-10-26T09:17:02Z</time>
      </trkpt>
      <trkpt lat="44.02729" lon="4.33471">
        <ele>140.7</ele>
        <time>2014-10-26T09:17:10Z</time>
      </trkpt>
      <trkpt lat="44.02722" lon="4.33462">
        <ele>140.3</ele>
        <time>2014-10-26T09:17:17Z</time>
      </trkpt>
      <trkpt lat="44.02714" lon="4.33457">
        <ele>140.2</ele>
        <time>2014-10-26T09:17:22Z</time>
      </trkpt>
      <trkpt lat="44.02704" lon="4.33453">
        <ele>139.8</ele>
        <time>2014-10-26T09:17:27Z</time>
      </trkpt>
      <trkpt lat="44.02694" lon="4.33451">
        <ele>139.5</ele>
        <time>2014-10-26T09:17:32Z</time>
      </trkpt>
      <trkpt lat="44.02684" lon="4.33452">
        <ele>139.1</ele>
        <time>2014-10-26T09:17:37Z</time>
      </trkpt>
      <trkpt lat="44.02674" lon="4.33456">
        <ele>138.6</ele>
        <time>2014-10-26T09:17:43Z</time>
      </trkpt>
      <trkpt lat="44.02666" lon="4.33463">
        <ele>138</ele>
        <time>2014-10-26T09:17:50Z</time>
      </trkpt>
      <trkpt lat="44.02656" lon="4.33468">
        <ele>137.2</ele>
        <time>2014-10-26T09:17:55Z</time>
      </trkpt>
      <trkpt lat="44.02647" lon="4.33472">
        <ele>137.2</ele>
        <time>2014-10-26T09:18:00Z</time>
      </trkpt>
      <trkpt lat="44.02637" lon="4.33479">
        <ele>136.7</ele>
        <time>2014-10-26T09:18:07Z</time>
      </trkpt>
      <trkpt lat="44.02628" lon="4.33486">
        <ele>135.9</ele>
        <time>2014-10-26T09:18:13Z</time>
      </trkpt>
      <trkpt lat="44.02618" lon="4.3349">
        <ele>135.5</ele>
        <time>2014-10-26T09:18:19Z</time>
      </trkpt>
      <trkpt lat="44.02608" lon="4.33491">
        <ele>134.5</ele>
        <time>2014-10-26T09:18:24Z</time>
      </trkpt>
      <trkpt lat="44.02599" lon="4.33491">
        <ele>134.3</ele>
        <time>2014-10-26T09:18:30Z</time>
      </trkpt>
      <trkpt lat="44.02589" lon="4.3349">
        <ele>133.5</ele>
        <time>2014-10-26T09:18:37Z</time>
      </trkpt>
      <trkpt lat="44.0258" lon="4.33487">
        <ele>133.3</ele>
        <time>2014-10-26T09:18:49Z</time>
      </trkpt>
      <trkpt lat="44.02571" lon="4.3348">
        <ele>133.1</ele>
        <time>2014-10-26T09:18:55Z</time>
      </trkpt>
      <trkpt lat="44.02563" lon="4.33475">
        <ele>132.9</ele>
        <time>2014-10-26T09:19:01Z</time>
      </trkpt>
      <trkpt lat="44.02553" lon="4.3347">
        <ele>132.2</ele>
        <time>2014-10-26T09:19:07Z</time>
      </trkpt>
      <trkpt lat="44.02543" lon="4.33464">
        <ele>131.7</ele>
        <time>2014-10-26T09:19:13Z</time>
      </trkpt>
      <trkpt lat="44.02534" lon="4.3346">
        <ele>131</ele>
        <time>2014-10-26T09:19:20Z</time>
      </trkpt>
      <trkpt lat="44.02524" lon="4.33458">
        <ele>131</ele>
        <time>2014-10-26T09:19:24Z</time>
      </trkpt>
      <trkpt lat="44.02516" lon="4.33453">
        <ele>130.7</ele>
        <time>2014-10-26T09:19:31Z</time>
      </trkpt>
      <trkpt lat="44.02507" lon="4.33448">
        <ele>130.2</ele>
        <time>2014-10-26T09:19:36Z</time>
      </trkpt>
      <trkpt lat="44.02499" lon="4.33442">
        <ele>129.5</ele>
        <time>2014-10-26T09:19:40Z</time>
      </trkpt>
      <trkpt lat="44.0249" lon="4.33437">
        <ele>129</ele>
        <time>2014-10-26T09:19:45Z</time>
      </trkpt>
      <trkpt lat="44.0248" lon="4.3343">
        <ele>128</ele>
        <time>2014-10-26T09:19:52Z</time>
      </trkpt>
      <trkpt lat="44.0247" lon="4.33425">
        <ele>127.1</ele>
        <time>2014-10-26T09:19:59Z</time>
      </trkpt>
      <trkpt lat="44.0246" lon="4.33423">
        <ele>125.8</ele>
        <time>2014-10-26T09:20:08Z</time>
      </trkpt>
      <trkpt lat="44.0245" lon="4.3342">
        <ele>125</ele>
        <time>2014-10-26T09:20:14Z</time>
      </trkpt>
      <trkpt lat="44.02446" lon="4.33432">
        <ele>124.3</ele>
        <time>2014-10-26T09:23:54Z</time>
      </trkpt>
      <trkpt lat="44.02457" lon="4.33432">
        <ele>124.7</ele>
        <time>2014-10-26T09:24:04Z</time>
      </trkpt>
      <trkpt lat="44.02465" lon="4.33422">
        <ele>125.1</ele>
        <time>2014-10-26T09:24:10Z</time>
      </trkpt>
      <trkpt lat="44.02473" lon="4.33414">
        <ele>125</ele>
        <time>2014-10-26T09:24:15Z</time>
      </trkpt>
      <trkpt lat="44.02478" lon="4.33404">
        <ele>125.3</ele>
        <time>2014-10-26T09:24:20Z</time>
      </trkpt>
      <trkpt lat="44.02485" lon="4.33394">
        <ele>125.5</ele>
        <time>2014-10-26T09:24:25Z</time>
      </trkpt>
      <trkpt lat="44.02493" lon="4.33386">
        <ele>125.5</ele>
        <time>2014-10-26T09:24:31Z</time>
      </trkpt>
      <trkpt lat="44.02501" lon="4.33376">
        <ele>125.7</ele>
        <time>2014-10-26T09:24:36Z</time>
      </trkpt>
      <trkpt lat="44.0251" lon="4.33369">
        <ele>126.1</ele>
        <time>2014-10-26T09:24:41Z</time>
      </trkpt>
      <trkpt lat="44.02518" lon="4.33361">
        <ele>126.3</ele>
        <time>2014-10-26T09:24:47Z</time>
      </trkpt>
      <trkpt lat="44.02525" lon="4.33353">
        <ele>125.9</ele>
        <time>2014-10-26T09:24:53Z</time>
      </trkpt>
      <trkpt lat="44.02531" lon="4.33343">
        <ele>126.1</ele>
        <time>2014-10-26T09:24:58Z</time>
      </trkpt>
      <trkpt lat="44.02537" lon="4.33333">
        <ele>126.6</ele>
        <time>2014-10-26T09:25:04Z</time>
      </trkpt>
      <trkpt lat="44.02543" lon="4.33323">
        <ele>126.4</ele>
        <time>2014-10-26T09:25:09Z</time>
      </trkpt>
      <trkpt lat="44.02552" lon="4.33315">
        <ele>126.6</ele>
        <time>2014-10-26T09:25:15Z</time>
      </trkpt>
      <trkpt lat="44.02561" lon="4.33307">
        <ele>126.9</ele>
        <time>2014-10-26T09:25:21Z</time>
      </trkpt>
      <trkpt lat="44.02569" lon="4.33299">
        <ele>126.9</ele>
        <time>2014-10-26T09:25:28Z</time>
      </trkpt>
      <trkpt lat="44.02577" lon="4.33291">
        <ele>127.2</ele>
        <time>2014-10-26T09:25:35Z</time>
      </trkpt>
      <trkpt lat="44.02585" lon="4.33284">
        <ele>127.4</ele>
        <time>2014-10-26T09:25:41Z</time>
      </trkpt>
      <trkpt lat="44.0259" lon="4.33273">
        <ele>127.5</ele>
        <time>2014-10-26T09:25:48Z</time>
      </trkpt>
      <trkpt lat="44.02595" lon="4.3326">
        <ele>128</ele>
        <time>2014-10-26T09:25:55Z</time>
      </trkpt>
      <trkpt lat="44.026" lon="4.33248">
        <ele>128.1</ele>
        <time>2014-10-26T09:26:01Z</time>
      </trkpt>
      <trkpt lat="44.02606" lon="4.33239">
        <ele>128.1</ele>
        <time>2014-10-26T09:26:16Z</time>
      </trkpt>
      <trkpt lat="44.02612" lon="4.33228">
        <ele>128.3</ele>
        <time>2014-10-26T09:26:24Z</time>
      </trkpt>
      <trkpt lat="44.02613" lon="4.33214">
        <ele>128.2</ele>
        <time>2014-10-26T09:26:30Z</time>
      </trkpt>
      <trkpt lat="44.0261" lon="4.332">
        <ele>127.8</ele>
        <time>2014-10-26T09:26:36Z</time>
      </trkpt>
      <trkpt lat="44.0261" lon="4.33186">
        <ele>127.4</ele>
        <time>2014-10-26T09:26:42Z</time>
      </trkpt>
      <trkpt lat="44.0261" lon="4.33172">
        <ele>126.8</ele>
        <time>2014-10-26T09:26:48Z</time>
      </trkpt>
      <trkpt lat="44.02609" lon="4.33159">
        <ele>126.7</ele>
        <time>2014-10-26T09:26:54Z</time>
      </trkpt>
      <trkpt lat="44.02609" lon="4.33145">
        <ele>126.4</ele>
        <time>2014-10-26T09:27:00Z</time>
      </trkpt>
      <trkpt lat="44.02609" lon="4.33132">
        <ele>126.3</ele>
        <time>2014-10-26T09:27:05Z</time>
      </trkpt>
      <trkpt lat="44.02607" lon="4.3312">
        <ele>125.7</ele>
        <time>2014-10-26T09:27:11Z</time>
      </trkpt>
      <trkpt lat="44.02602" lon="4.3311">
        <ele>125.6</ele>
        <time>2014-10-26T09:27:17Z</time>
      </trkpt>
      <trkpt lat="44.02593" lon="4.33102">
        <ele>125.7</ele>
        <time>2014-10-26T09:27:23Z</time>
      </trkpt>
      <trkpt lat="44.02582" lon="4.33101">
        <ele>125.3</ele>
        <time>2014-10-26T09:27:29Z</time>
      </trkpt>
      <trkpt lat="44.02572" lon="4.331">
        <ele>125</ele>
        <time>2014-10-26T09:27:35Z</time>
      </trkpt>
      <trkpt lat="44.02563" lon="4.33099">
        <ele>124.6</ele>
        <time>2014-10-26T09:27:42Z</time>
      </trkpt>
      <trkpt lat="44.02554" lon="4.33096">
        <ele>124.2</ele>
        <time>2014-10-26T09:27:47Z</time>
      </trkpt>
      <trkpt lat="44.02545" lon="4.33092">
        <ele>123.8</ele>
        <time>2014-10-26T09:27:52Z</time>
      </trkpt>
      <trkpt lat="44.02536" lon="4.33092">
        <ele>123.3</ele>
        <time>2014-10-26T09:27:57Z</time>
      </trkpt>
      <trkpt lat="44.02526" lon="4.33093">
        <ele>123</ele>
        <time>2014-10-26T09:28:03Z</time>
      </trkpt>
      <trkpt lat="44.02516" lon="4.33092">
        <ele>122.6</ele>
        <time>2014-10-26T09:28:09Z</time>
      </trkpt>
      <trkpt lat="44.02508" lon="4.33084">
        <ele>122.5</ele>
        <time>2014-10-26T09:28:14Z</time>
      </trkpt>
      <trkpt lat="44.02508" lon="4.33071">
        <ele>122.5</ele>
        <time>2014-10-26T09:28:22Z</time>
      </trkpt>
      <trkpt lat="44.02509" lon="4.33057">
        <ele>123.4</ele>
        <time>2014-10-26T09:28:30Z</time>
      </trkpt>
      <trkpt lat="44.02518" lon="4.33048">
        <ele>124.2</ele>
        <time>2014-10-26T09:28:36Z</time>
      </trkpt>
      <trkpt lat="44.02523" lon="4.33036">
        <ele>124.6</ele>
        <time>2014-10-26T09:28:42Z</time>
      </trkpt>
      <trkpt lat="44.02528" lon="4.33025">
        <ele>125.3</ele>
        <time>2014-10-26T09:28:48Z</time>
      </trkpt>
      <trkpt lat="44.02533" lon="4.33012">
        <ele>125.6</ele>
        <time>2014-10-26T09:28:55Z</time>
      </trkpt>
      <trkpt lat="44.02537" lon="4.33001">
        <ele>125.2</ele>
        <time>2014-10-26T09:29:01Z</time>
      </trkpt>
      <trkpt lat="44.02543" lon="4.32988">
        <ele>124.9</ele>
        <time>2014-10-26T09:29:07Z</time>
      </trkpt>
      <trkpt lat="44.02551" lon="4.32984">
        <ele>124.7</ele>
        <time>2014-10-26T09:29:10Z</time>
      </trkpt>
      <trkpt lat="44.02558" lon="4.32974">
        <ele>124.2</ele>
        <time>2014-10-26T09:29:15Z</time>
      </trkpt>
      <trkpt lat="44.02562" lon="4.32961">
        <ele>123.9</ele>
        <time>2014-10-26T09:29:21Z</time>
      </trkpt>
      <trkpt lat="44.02568" lon="4.32949">
        <ele>123.2</ele>
        <time>2014-10-26T09:29:28Z</time>
      </trkpt>
      <trkpt lat="44.02573" lon="4.32937">
        <ele>122.5</ele>
        <time>2014-10-26T09:29:34Z</time>
      </trkpt>
      <trkpt lat="44.02578" lon="4.32926">
        <ele>122.1</ele>
        <time>2014-10-26T09:29:40Z</time>
      </trkpt>
      <trkpt lat="44.02583" lon="4.32915">
        <ele>121.9</ele>
        <time>2014-10-26T09:29:45Z</time>
      </trkpt>
      <trkpt lat="44.02587" lon="4.32902">
        <ele>121.4</ele>
        <time>2014-10-26T09:29:52Z</time>
      </trkpt>
      <trkpt lat="44.02591" lon="4.3289">
        <ele>121.5</ele>
        <time>2014-10-26T09:29:59Z</time>
      </trkpt>
      <trkpt lat="44.02595" lon="4.32877">
        <ele>121.4</ele>
        <time>2014-10-26T09:30:05Z</time>
      </trkpt>
      <trkpt lat="44.02601" lon="4.32868">
        <ele>121.1</ele>
        <time>2014-10-26T09:30:11Z</time>
      </trkpt>
      <trkpt lat="44.02603" lon="4.32854">
        <ele>120.7</ele>
        <time>2014-10-26T09:30:18Z</time>
      </trkpt>
      <trkpt lat="44.02604" lon="4.32841">
        <ele>120.7</ele>
        <time>2014-10-26T09:30:23Z</time>
      </trkpt>
      <trkpt lat="44.02605" lon="4.32828">
        <ele>121</ele>
        <time>2014-10-26T09:30:28Z</time>
      </trkpt>
      <trkpt lat="44.02608" lon="4.32814">
        <ele>120.9</ele>
        <time>2014-10-26T09:30:35Z</time>
      </trkpt>
      <trkpt lat="44.02611" lon="4.32802">
        <ele>120.7</ele>
        <time>2014-10-26T09:30:39Z</time>
      </trkpt>
      <trkpt lat="44.02614" lon="4.3279">
        <ele>120.5</ele>
        <time>2014-10-26T09:30:41Z</time>
      </trkpt>
      <trkpt lat="44.02618" lon="4.32776">
        <ele>120.5</ele>
        <time>2014-10-26T09:30:43Z</time>
      </trkpt>
      <trkpt lat="44.02622" lon="4.32763">
        <ele>120.6</ele>
        <time>2014-10-26T09:30:45Z</time>
      </trkpt>
      <trkpt lat="44.02627" lon="4.32747">
        <ele>120.4</ele>
        <time>2014-10-26T09:30:47Z</time>
      </trkpt>
      <trkpt lat="44.02634" lon="4.32729">
        <ele>120</ele>
        <time>2014-10-26T09:30:49Z</time>
      </trkpt>
      <trkpt lat="44.02643" lon="4.32709">
        <ele>119.7</ele>
        <time>2014-10-26T09:30:51Z</time>
      </trkpt>
      <trkpt lat="44.02649" lon="4.3269">
        <ele>119.6</ele>
        <time>2014-10-26T09:30:53Z</time>
      </trkpt>
      <trkpt lat="44.02658" lon="4.32671">
        <ele>119.2</ele>
        <time>2014-10-26T09:30:55Z</time>
      </trkpt>
      <trkpt lat="44.02663" lon="4.32653">
        <ele>119.2</ele>
        <time>2014-10-26T09:30:57Z</time>
      </trkpt>
      <trkpt lat="44.02668" lon="4.32635">
        <ele>118.9</ele>
        <time>2014-10-26T09:30:59Z</time>
      </trkpt>
      <trkpt lat="44.02675" lon="4.32618">
        <ele>119</ele>
        <time>2014-10-26T09:31:01Z</time>
      </trkpt>
      <trkpt lat="44.02679" lon="4.32602">
        <ele>119.1</ele>
        <time>2014-10-26T09:31:03Z</time>
      </trkpt>
      <trkpt lat="44.02683" lon="4.32585">
        <ele>119.1</ele>
        <time>2014-10-26T09:31:05Z</time>
      </trkpt>
      <trkpt lat="44.02685" lon="4.32569">
        <ele>119.1</ele>
        <time>2014-10-26T09:31:07Z</time>
      </trkpt>
      <trkpt lat="44.02688" lon="4.32552">
        <ele>119</ele>
        <time>2014-10-26T09:31:09Z</time>
      </trkpt>
      <trkpt lat="44.02696" lon="4.32538">
        <ele>118.9</ele>
        <time>2014-10-26T09:31:11Z</time>
      </trkpt>
      <trkpt lat="44.02685" lon="4.32524">
        <ele>118.8</ele>
        <time>2014-10-26T09:31:14Z</time>
      </trkpt>
      <trkpt lat="44.02676" lon="4.32519">
        <ele>119.1</ele>
        <time>2014-10-26T09:31:20Z</time>
      </trkpt>
      <trkpt lat="44.02686" lon="4.32526">
        <ele>118.6</ele>
        <time>2014-10-26T09:31:35Z</time>
      </trkpt>
      <trkpt lat="44.02695" lon="4.3253">
        <ele>119</ele>
        <time>2014-10-26T09:31:38Z</time>
      </trkpt>
      <trkpt lat="44.02704" lon="4.32531">
        <ele>119</ele>
        <time>2014-10-26T09:31:45Z</time>
      </trkpt>
      <trkpt lat="44.02718" lon="4.32502">
        <ele>119</ele>
        <time>2014-10-26T09:32:18Z</time>
      </trkpt>
      <trkpt lat="44.02719" lon="4.32484">
        <ele>119.1</ele>
        <time>2014-10-26T09:32:23Z</time>
      </trkpt>
      <trkpt lat="44.02723" lon="4.32472">
        <ele>119.5</ele>
        <time>2014-10-26T09:32:30Z</time>
      </trkpt>
      <trkpt lat="44.02731" lon="4.32464">
        <ele>119.2</ele>
        <time>2014-10-26T09:32:36Z</time>
      </trkpt>
      <trkpt lat="44.02738" lon="4.32454">
        <ele>119.3</ele>
        <time>2014-10-26T09:32:41Z</time>
      </trkpt>
      <trkpt lat="44.02743" lon="4.32444">
        <ele>119.2</ele>
        <time>2014-10-26T09:32:47Z</time>
      </trkpt>
      <trkpt lat="44.02747" lon="4.32431">
        <ele>119</ele>
        <time>2014-10-26T09:32:53Z</time>
      </trkpt>
      <trkpt lat="44.02745" lon="4.32419">
        <ele>119.1</ele>
        <time>2014-10-26T09:32:57Z</time>
      </trkpt>
      <trkpt lat="44.02745" lon="4.32406">
        <ele>118.8</ele>
        <time>2014-10-26T09:33:03Z</time>
      </trkpt>
      <trkpt lat="44.02748" lon="4.32392">
        <ele>119.1</ele>
        <time>2014-10-26T09:33:10Z</time>
      </trkpt>
      <trkpt lat="44.02754" lon="4.32381">
        <ele>119</ele>
        <time>2014-10-26T09:33:14Z</time>
      </trkpt>
      <trkpt lat="44.02757" lon="4.32368">
        <ele>118.7</ele>
        <time>2014-10-26T09:33:20Z</time>
      </trkpt>
      <trkpt lat="44.02766" lon="4.32364">
        <ele>118.4</ele>
        <time>2014-10-26T09:33:23Z</time>
      </trkpt>
      <trkpt lat="44.02772" lon="4.32353">
        <ele>118.4</ele>
        <time>2014-10-26T09:33:28Z</time>
      </trkpt>
      <trkpt lat="44.02774" lon="4.3234">
        <ele>118.2</ele>
        <time>2014-10-26T09:33:35Z</time>
      </trkpt>
      <trkpt lat="44.02777" lon="4.32328">
        <ele>117.6</ele>
        <time>2014-10-26T09:33:42Z</time>
      </trkpt>
      <trkpt lat="44.02779" lon="4.32313">
        <ele>116.5</ele>
        <time>2014-10-26T09:33:49Z</time>
      </trkpt>
      <trkpt lat="44.0278" lon="4.323">
        <ele>116.1</ele>
        <time>2014-10-26T09:33:55Z</time>
      </trkpt>
      <trkpt lat="44.02782" lon="4.32287">
        <ele>115.9</ele>
        <time>2014-10-26T09:34:00Z</time>
      </trkpt>
      <trkpt lat="44.02789" lon="4.32278">
        <ele>115.8</ele>
        <time>2014-10-26T09:34:06Z</time>
      </trkpt>
      <trkpt lat="44.0279" lon="4.32263">
        <ele>115.8</ele>
        <time>2014-10-26T09:34:13Z</time>
      </trkpt>
      <trkpt lat="44.02799" lon="4.32253">
        <ele>115.6</ele>
        <time>2014-10-26T09:34:19Z</time>
      </trkpt>
      <trkpt lat="44.02807" lon="4.32243">
        <ele>115.8</ele>
        <time>2014-10-26T09:34:24Z</time>
      </trkpt>
      <trkpt lat="44.02809" lon="4.32229">
        <ele>115.7</ele>
        <time>2014-10-26T09:34:30Z</time>
      </trkpt>
      <trkpt lat="44.02811" lon="4.32217">
        <ele>116.1</ele>
        <time>2014-10-26T09:34:36Z</time>
      </trkpt>
      <trkpt lat="44.02817" lon="4.32205">
        <ele>116.4</ele>
        <time>2014-10-26T09:34:43Z</time>
      </trkpt>
      <trkpt lat="44.02821" lon="4.32193">
        <ele>117.4</ele>
        <time>2014-10-26T09:34:49Z</time>
      </trkpt>
      <trkpt lat="44.02827" lon="4.32181">
        <ele>118</ele>
        <time>2014-10-26T09:34:54Z</time>
      </trkpt>
      <trkpt lat="44.0283" lon="4.32168">
        <ele>118.3</ele>
        <time>2014-10-26T09:34:59Z</time>
      </trkpt>
      <trkpt lat="44.02836" lon="4.32159">
        <ele>118.5</ele>
        <time>2014-10-26T09:35:03Z</time>
      </trkpt>
      <trkpt lat="44.02842" lon="4.32147">
        <ele>119.2</ele>
        <time>2014-10-26T09:35:08Z</time>
      </trkpt>
      <trkpt lat="44.02848" lon="4.32135">
        <ele>119.9</ele>
        <time>2014-10-26T09:35:14Z</time>
      </trkpt>
      <trkpt lat="44.02854" lon="4.32124">
        <ele>120.3</ele>
        <time>2014-10-26T09:35:19Z</time>
      </trkpt>
      <trkpt lat="44.02861" lon="4.32112">
        <ele>120.8</ele>
        <time>2014-10-26T09:35:26Z</time>
      </trkpt>
      <trkpt lat="44.02864" lon="4.32098">
        <ele>121.6</ele>
        <time>2014-10-26T09:35:32Z</time>
      </trkpt>
      <trkpt lat="44.02865" lon="4.32085">
        <ele>122.4</ele>
        <time>2014-10-26T09:35:36Z</time>
      </trkpt>
      <trkpt lat="44.02866" lon="4.32071">
        <ele>123.3</ele>
        <time>2014-10-26T09:35:42Z</time>
      </trkpt>
      <trkpt lat="44.02861" lon="4.32056">
        <ele>123.8</ele>
        <time>2014-10-26T09:35:47Z</time>
      </trkpt>
      <trkpt lat="44.02862" lon="4.32038">
        <ele>124.1</ele>
        <time>2014-10-26T09:35:50Z</time>
      </trkpt>
      <trkpt lat="44.02864" lon="4.32023">
        <ele>124.8</ele>
        <time>2014-10-26T09:35:55Z</time>
      </trkpt>
      <trkpt lat="44.02867" lon="4.32011">
        <ele>125.7</ele>
        <time>2014-10-26T09:36:01Z</time>
      </trkpt>
      <trkpt lat="44.02869" lon="4.31997">
        <ele>126.6</ele>
        <time>2014-10-26T09:36:08Z</time>
      </trkpt>
      <trkpt lat="44.02875" lon="4.31986">
        <ele>126.5</ele>
        <time>2014-10-26T09:36:14Z</time>
      </trkpt>
      <trkpt lat="44.0288" lon="4.31976">
        <ele>126.7</ele>
        <time>2014-10-26T09:36:19Z</time>
      </trkpt>
      <trkpt lat="44.02888" lon="4.31969">
        <ele>126.4</ele>
        <time>2014-10-26T09:36:23Z</time>
      </trkpt>
      <trkpt lat="44.0289" lon="4.31957">
        <ele>126.1</ele>
        <time>2014-10-26T09:36:30Z</time>
      </trkpt>
      <trkpt lat="44.02893" lon="4.31944">
        <ele>125.7</ele>
        <time>2014-10-26T09:36:36Z</time>
      </trkpt>
      <trkpt lat="44.02897" lon="4.3193">
        <ele>125</ele>
        <time>2014-10-26T09:36:42Z</time>
      </trkpt>
      <trkpt lat="44.02902" lon="4.31919">
        <ele>124.4</ele>
        <time>2014-10-26T09:36:49Z</time>
      </trkpt>
      <trkpt lat="44.02908" lon="4.31909">
        <ele>124</ele>
        <time>2014-10-26T09:36:54Z</time>
      </trkpt>
      <trkpt lat="44.02914" lon="4.31899">
        <ele>123.8</ele>
        <time>2014-10-26T09:37:00Z</time>
      </trkpt>
      <trkpt lat="44.0292" lon="4.31888">
        <ele>123.2</ele>
        <time>2014-10-26T09:37:06Z</time>
      </trkpt>
      <trkpt lat="44.02925" lon="4.31877">
        <ele>122.6</ele>
        <time>2014-10-26T09:37:13Z</time>
      </trkpt>
      <trkpt lat="44.02929" lon="4.31866">
        <ele>122.4</ele>
        <time>2014-10-26T09:37:19Z</time>
      </trkpt>
      <trkpt lat="44.02932" lon="4.31855">
        <ele>121.8</ele>
        <time>2014-10-26T09:37:26Z</time>
      </trkpt>
      <trkpt lat="44.02938" lon="4.31843">
        <ele>121</ele>
        <time>2014-10-26T09:37:33Z</time>
      </trkpt>
      <trkpt lat="44.02939" lon="4.31831">
        <ele>120.9</ele>
        <time>2014-10-26T09:37:41Z</time>
      </trkpt>
      <trkpt lat="44.02943" lon="4.31818">
        <ele>120.7</ele>
        <time>2014-10-26T09:37:49Z</time>
      </trkpt>
      <trkpt lat="44.02949" lon="4.31805">
        <ele>120.7</ele>
        <time>2014-10-26T09:37:54Z</time>
      </trkpt>
      <trkpt lat="44.02957" lon="4.31797">
        <ele>120.8</ele>
        <time>2014-10-26T09:37:59Z</time>
      </trkpt>
      <trkpt lat="44.02963" lon="4.31787">
        <ele>120.9</ele>
        <time>2014-10-26T09:38:22Z</time>
      </trkpt>
      <trkpt lat="44.02972" lon="4.31777">
        <ele>120.5</ele>
        <time>2014-10-26T09:38:29Z</time>
      </trkpt>
      <trkpt lat="44.02975" lon="4.31765">
        <ele>119.7</ele>
        <time>2014-10-26T09:38:41Z</time>
      </trkpt>
      <trkpt lat="44.02969" lon="4.31755">
        <ele>120.1</ele>
        <time>2014-10-26T09:39:17Z</time>
      </trkpt>
      <trkpt lat="44.0296" lon="4.3175">
        <ele>119.4</ele>
        <time>2014-10-26T09:39:24Z</time>
      </trkpt>
      <trkpt lat="44.0295" lon="4.31747">
        <ele>118.8</ele>
        <time>2014-10-26T09:39:35Z</time>
      </trkpt>
      <trkpt lat="44.02941" lon="4.31741">
        <ele>118.2</ele>
        <time>2014-10-26T09:39:43Z</time>
      </trkpt>
      <trkpt lat="44.02932" lon="4.31736">
        <ele>118.1</ele>
        <time>2014-10-26T09:39:50Z</time>
      </trkpt>
      <trkpt lat="44.02925" lon="4.31728">
        <ele>117.9</ele>
        <time>2014-10-26T09:39:56Z</time>
      </trkpt>
      <trkpt lat="44.02917" lon="4.3172">
        <ele>117.8</ele>
        <time>2014-10-26T09:40:00Z</time>
      </trkpt>
      <trkpt lat="44.02908" lon="4.31714">
        <ele>117.6</ele>
        <time>2014-10-26T09:40:06Z</time>
      </trkpt>
      <trkpt lat="44.02898" lon="4.31705">
        <ele>117.5</ele>
        <time>2014-10-26T09:40:14Z</time>
      </trkpt>
      <trkpt lat="44.02888" lon="4.31699">
        <ele>117.3</ele>
        <time>2014-10-26T09:40:23Z</time>
      </trkpt>
      <trkpt lat="44.0288" lon="4.3169">
        <ele>117.3</ele>
        <time>2014-10-26T09:40:28Z</time>
      </trkpt>
      <trkpt lat="44.02872" lon="4.31683">
        <ele>117.1</ele>
        <time>2014-10-26T09:40:32Z</time>
      </trkpt>
      <trkpt lat="44.02863" lon="4.31675">
        <ele>117.1</ele>
        <time>2014-10-26T09:40:38Z</time>
      </trkpt>
      <trkpt lat="44.02855" lon="4.31669">
        <ele>117</ele>
        <time>2014-10-26T09:40:44Z</time>
      </trkpt>
      <trkpt lat="44.02846" lon="4.3166">
        <ele>116.8</ele>
        <time>2014-10-26T09:40:49Z</time>
      </trkpt>
      <trkpt lat="44.02837" lon="4.31652">
        <ele>117</ele>
        <time>2014-10-26T09:40:54Z</time>
      </trkpt>
      <trkpt lat="44.02828" lon="4.31644">
        <ele>116.8</ele>
        <time>2014-10-26T09:40:58Z</time>
      </trkpt>
      <trkpt lat="44.02819" lon="4.31638">
        <ele>116.9</ele>
        <time>2014-10-26T09:41:01Z</time>
      </trkpt>
      <trkpt lat="44.02812" lon="4.3163">
        <ele>116.8</ele>
        <time>2014-10-26T09:41:05Z</time>
      </trkpt>
      <trkpt lat="44.02803" lon="4.31624">
        <ele>117</ele>
        <time>2014-10-26T09:41:11Z</time>
      </trkpt>
      <trkpt lat="44.02795" lon="4.31617">
        <ele>117.2</ele>
        <time>2014-10-26T09:41:16Z</time>
      </trkpt>
      <trkpt lat="44.02786" lon="4.31612">
        <ele>116.7</ele>
        <time>2014-10-26T09:41:25Z</time>
      </trkpt>
      <trkpt lat="44.02778" lon="4.31608">
        <ele>117.3</ele>
        <time>2014-10-26T09:41:34Z</time>
      </trkpt>
      <trkpt lat="44.02768" lon="4.31604">
        <ele>118.3</ele>
        <time>2014-10-26T09:41:42Z</time>
      </trkpt>
      <trkpt lat="44.02759" lon="4.31599">
        <ele>118.8</ele>
        <time>2014-10-26T09:41:50Z</time>
      </trkpt>
      <trkpt lat="44.02749" lon="4.31593">
        <ele>118.9</ele>
        <time>2014-10-26T09:41:57Z</time>
      </trkpt>
      <trkpt lat="44.0274" lon="4.31589">
        <ele>119.3</ele>
        <time>2014-10-26T09:42:02Z</time>
      </trkpt>
      <trkpt lat="44.02729" lon="4.31573">
        <ele>119.2</ele>
        <time>2014-10-26T09:42:05Z</time>
      </trkpt>
      <trkpt lat="44.0272" lon="4.31566">
        <ele>119</ele>
        <time>2014-10-26T09:42:08Z</time>
      </trkpt>
      <trkpt lat="44.02712" lon="4.3156">
        <ele>118.7</ele>
        <time>2014-10-26T09:42:13Z</time>
      </trkpt>
      <trkpt lat="44.02703" lon="4.31554">
        <ele>118.2</ele>
        <time>2014-10-26T09:42:18Z</time>
      </trkpt>
      <trkpt lat="44.02695" lon="4.31545">
        <ele>118.1</ele>
        <time>2014-10-26T09:42:25Z</time>
      </trkpt>
      <trkpt lat="44.02688" lon="4.31537">
        <ele>118.1</ele>
        <time>2014-10-26T09:42:32Z</time>
      </trkpt>
      <trkpt lat="44.0268" lon="4.31533">
        <ele>118.3</ele>
        <time>2014-10-26T09:42:37Z</time>
      </trkpt>
      <trkpt lat="44.02671" lon="4.31527">
        <ele>118.5</ele>
        <time>2014-10-26T09:42:44Z</time>
      </trkpt>
      <trkpt lat="44.02662" lon="4.3152">
        <ele>118.6</ele>
        <time>2014-10-26T09:42:51Z</time>
      </trkpt>
      <trkpt lat="44.02654" lon="4.31513">
        <ele>118.6</ele>
        <time>2014-10-26T09:42:58Z</time>
      </trkpt>
      <trkpt lat="44.02645" lon="4.31509">
        <ele>118.7</ele>
        <time>2014-10-26T09:43:04Z</time>
      </trkpt>
      <trkpt lat="44.02636" lon="4.31505">
        <ele>118.2</ele>
        <time>2014-10-26T09:43:11Z</time>
      </trkpt>
      <trkpt lat="44.02625" lon="4.31502">
        <ele>116.8</ele>
        <time>2014-10-26T09:43:18Z</time>
      </trkpt>
      <trkpt lat="44.02615" lon="4.31501">
        <ele>116.6</ele>
        <time>2014-10-26T09:43:25Z</time>
      </trkpt>
      <trkpt lat="44.02605" lon="4.31503">
        <ele>115.2</ele>
        <time>2014-10-26T09:43:34Z</time>
      </trkpt>
      <trkpt lat="44.02596" lon="4.31504">
        <ele>114.7</ele>
        <time>2014-10-26T09:43:43Z</time>
      </trkpt>
      <trkpt lat="44.02586" lon="4.31506">
        <ele>113.7</ele>
        <time>2014-10-26T09:43:52Z</time>
      </trkpt>
      <trkpt lat="44.02573" lon="4.31503">
        <ele>113.4</ele>
        <time>2014-10-26T09:43:58Z</time>
      </trkpt>
      <trkpt lat="44.02564" lon="4.31499">
        <ele>113</ele>
        <time>2014-10-26T09:44:02Z</time>
      </trkpt>
      <trkpt lat="44.02556" lon="4.31493">
        <ele>112.5</ele>
        <time>2014-10-26T09:44:06Z</time>
      </trkpt>
      <trkpt lat="44.02545" lon="4.31489">
        <ele>112.1</ele>
        <time>2014-10-26T09:44:11Z</time>
      </trkpt>
      <trkpt lat="44.02533" lon="4.31483">
        <ele>111.1</ele>
        <time>2014-10-26T09:44:16Z</time>
      </trkpt>
      <trkpt lat="44.02524" lon="4.31481">
        <ele>111.5</ele>
        <time>2014-10-26T09:44:19Z</time>
      </trkpt>
      <trkpt lat="44.02514" lon="4.31481">
        <ele>110.6</ele>
        <time>2014-10-26T09:44:25Z</time>
      </trkpt>
      <trkpt lat="44.02503" lon="4.31482">
        <ele>110</ele>
        <time>2014-10-26T09:44:31Z</time>
      </trkpt>
      <trkpt lat="44.02493" lon="4.31482">
        <ele>109.3</ele>
        <time>2014-10-26T09:44:37Z</time>
      </trkpt>
      <trkpt lat="44.02484" lon="4.31481">
        <ele>109</ele>
        <time>2014-10-26T09:44:43Z</time>
      </trkpt>
      <trkpt lat="44.02475" lon="4.3148">
        <ele>109.2</ele>
        <time>2014-10-26T09:44:49Z</time>
      </trkpt>
      <trkpt lat="44.02465" lon="4.31476">
        <ele>108.8</ele>
        <time>2014-10-26T09:44:57Z</time>
      </trkpt>
      <trkpt lat="44.02454" lon="4.31472">
        <ele>108.9</ele>
        <time>2014-10-26T09:45:03Z</time>
      </trkpt>
      <trkpt lat="44.02445" lon="4.31466">
        <ele>108.8</ele>
        <time>2014-10-26T09:45:08Z</time>
      </trkpt>
      <trkpt lat="44.02435" lon="4.31465">
        <ele>108.5</ele>
        <time>2014-10-26T09:45:20Z</time>
      </trkpt>
      <trkpt lat="44.02426" lon="4.31461">
        <ele>108.7</ele>
        <time>2014-10-26T09:45:30Z</time>
      </trkpt>
      <trkpt lat="44.02416" lon="4.3146">
        <ele>108.7</ele>
        <time>2014-10-26T09:45:38Z</time>
      </trkpt>
      <trkpt lat="44.02408" lon="4.31455">
        <ele>108.4</ele>
        <time>2014-10-26T09:45:42Z</time>
      </trkpt>
      <trkpt lat="44.02396" lon="4.3145">
        <ele>108.5</ele>
        <time>2014-10-26T09:45:48Z</time>
      </trkpt>
      <trkpt lat="44.02387" lon="4.31448">
        <ele>108.2</ele>
        <time>2014-10-26T09:45:56Z</time>
      </trkpt>
      <trkpt lat="44.02376" lon="4.31441">
        <ele>107.6</ele>
        <time>2014-10-26T09:46:01Z</time>
      </trkpt>
      <trkpt lat="44.02366" lon="4.31433">
        <ele>108</ele>
        <time>2014-10-26T09:46:04Z</time>
      </trkpt>
      <trkpt lat="44.02356" lon="4.31428">
        <ele>108.1</ele>
        <time>2014-10-26T09:46:08Z</time>
      </trkpt>
      <trkpt lat="44.02346" lon="4.31422">
        <ele>107.6</ele>
        <time>2014-10-26T09:46:13Z</time>
      </trkpt>
      <trkpt lat="44.02338" lon="4.31418">
        <ele>107.2</ele>
        <time>2014-10-26T09:46:17Z</time>
      </trkpt>
      <trkpt lat="44.02328" lon="4.31414">
        <ele>106.9</ele>
        <time>2014-10-26T09:46:22Z</time>
      </trkpt>
      <trkpt lat="44.02319" lon="4.3141">
        <ele>106.5</ele>
        <time>2014-10-26T09:46:28Z</time>
      </trkpt>
      <trkpt lat="44.02311" lon="4.31405">
        <ele>106.5</ele>
        <time>2014-10-26T09:46:33Z</time>
      </trkpt>
      <trkpt lat="44.02302" lon="4.314">
        <ele>106.2</ele>
        <time>2014-10-26T09:46:38Z</time>
      </trkpt>
      <trkpt lat="44.02292" lon="4.31397">
        <ele>105.7</ele>
        <time>2014-10-26T09:46:44Z</time>
      </trkpt>
      <trkpt lat="44.02282" lon="4.31396">
        <ele>105.6</ele>
        <time>2014-10-26T09:46:50Z</time>
      </trkpt>
      <trkpt lat="44.02273" lon="4.31394">
        <ele>105.7</ele>
        <time>2014-10-26T09:46:55Z</time>
      </trkpt>
      <trkpt lat="44.02264" lon="4.314">
        <ele>105.6</ele>
        <time>2014-10-26T09:47:02Z</time>
      </trkpt>
      <trkpt lat="44.02255" lon="4.31407">
        <ele>105.5</ele>
        <time>2014-10-26T09:47:08Z</time>
      </trkpt>
      <trkpt lat="44.02248" lon="4.31415">
        <ele>105.8</ele>
        <time>2014-10-26T09:47:14Z</time>
      </trkpt>
      <trkpt lat="44.0224" lon="4.3142">
        <ele>106</ele>
        <time>2014-10-26T09:47:20Z</time>
      </trkpt>
      <trkpt lat="44.02232" lon="4.31429">
        <ele>106.4</ele>
        <time>2014-10-26T09:47:25Z</time>
      </trkpt>
      <trkpt lat="44.02224" lon="4.31437">
        <ele>106.5</ele>
        <time>2014-10-26T09:47:30Z</time>
      </trkpt>
      <trkpt lat="44.02217" lon="4.31447">
        <ele>106.4</ele>
        <time>2014-10-26T09:47:45Z</time>
      </trkpt>
      <trkpt lat="44.02208" lon="4.31449">
        <ele>105.8</ele>
        <time>2014-10-26T09:47:53Z</time>
      </trkpt>
      <trkpt lat="44.02199" lon="4.31443">
        <ele>104.5</ele>
        <time>2014-10-26T09:48:00Z</time>
      </trkpt>
      <trkpt lat="44.02193" lon="4.31434">
        <ele>103.6</ele>
        <time>2014-10-26T09:48:06Z</time>
      </trkpt>
      <trkpt lat="44.02187" lon="4.31424">
        <ele>102.9</ele>
        <time>2014-10-26T09:48:11Z</time>
      </trkpt>
      <trkpt lat="44.02177" lon="4.31418">
        <ele>102.7</ele>
        <time>2014-10-26T09:48:17Z</time>
      </trkpt>
      <trkpt lat="44.02168" lon="4.31413">
        <ele>103</ele>
        <time>2014-10-26T09:48:19Z</time>
      </trkpt>
      <trkpt lat="44.02161" lon="4.31422">
        <ele>102.6</ele>
        <time>2014-10-26T09:48:25Z</time>
      </trkpt>
      <trkpt lat="44.02159" lon="4.31434">
        <ele>102.7</ele>
        <time>2014-10-26T09:48:31Z</time>
      </trkpt>
      <trkpt lat="44.02157" lon="4.31447">
        <ele>102.5</ele>
        <time>2014-10-26T09:48:37Z</time>
      </trkpt>
      <trkpt lat="44.02154" lon="4.31461">
        <ele>102.3</ele>
        <time>2014-10-26T09:48:43Z</time>
      </trkpt>
      <trkpt lat="44.02149" lon="4.31472">
        <ele>102.1</ele>
        <time>2014-10-26T09:48:49Z</time>
      </trkpt>
      <trkpt lat="44.02145" lon="4.31485">
        <ele>102.2</ele>
        <time>2014-10-26T09:48:56Z</time>
      </trkpt>
      <trkpt lat="44.02141" lon="4.31497">
        <ele>102.4</ele>
        <time>2014-10-26T09:49:02Z</time>
      </trkpt>
      <trkpt lat="44.02135" lon="4.31509">
        <ele>102.5</ele>
        <time>2014-10-26T09:49:08Z</time>
      </trkpt>
      <trkpt lat="44.0213" lon="4.31521">
        <ele>101.1</ele>
        <time>2014-10-26T09:49:15Z</time>
      </trkpt>
      <trkpt lat="44.02125" lon="4.31533">
        <ele>101.9</ele>
        <time>2014-10-26T09:49:22Z</time>
      </trkpt>
      <trkpt lat="44.02123" lon="4.31546">
        <ele>102.2</ele>
        <time>2014-10-26T09:49:28Z</time>
      </trkpt>
      <trkpt lat="44.02122" lon="4.31559">
        <ele>102.7</ele>
        <time>2014-10-26T09:49:34Z</time>
      </trkpt>
      <trkpt lat="44.02119" lon="4.31572">
        <ele>102.3</ele>
        <time>2014-10-26T09:49:41Z</time>
      </trkpt>
      <trkpt lat="44.02112" lon="4.3158">
        <ele>102.3</ele>
        <time>2014-10-26T09:49:47Z</time>
      </trkpt>
      <trkpt lat="44.02103" lon="4.31588">
        <ele>102.1</ele>
        <time>2014-10-26T09:49:55Z</time>
      </trkpt>
      <trkpt lat="44.02095" lon="4.31595">
        <ele>102.6</ele>
        <time>2014-10-26T09:50:02Z</time>
      </trkpt>
      <trkpt lat="44.02089" lon="4.31605">
        <ele>102.2</ele>
        <time>2014-10-26T09:50:07Z</time>
      </trkpt>
      <trkpt lat="44.02086" lon="4.31618">
        <ele>102</ele>
        <time>2014-10-26T09:50:15Z</time>
      </trkpt>
      <trkpt lat="44.02086" lon="4.31632">
        <ele>102.2</ele>
        <time>2014-10-26T09:50:21Z</time>
      </trkpt>
      <trkpt lat="44.02085" lon="4.31645">
        <ele>102.4</ele>
        <time>2014-10-26T09:50:27Z</time>
      </trkpt>
      <trkpt lat="44.02085" lon="4.3166">
        <ele>103</ele>
        <time>2014-10-26T09:50:31Z</time>
      </trkpt>
      <trkpt lat="44.02086" lon="4.31673">
        <ele>102.7</ele>
        <time>2014-10-26T09:50:36Z</time>
      </trkpt>
      <trkpt lat="44.02087" lon="4.31687">
        <ele>103</ele>
        <time>2014-10-26T09:50:40Z</time>
      </trkpt>
      <trkpt lat="44.02087" lon="4.31701">
        <ele>102.8</ele>
        <time>2014-10-26T09:50:46Z</time>
      </trkpt>
      <trkpt lat="44.02084" lon="4.31715">
        <ele>102.6</ele>
        <time>2014-10-26T09:50:52Z</time>
      </trkpt>
      <trkpt lat="44.0208" lon="4.31727">
        <ele>102.4</ele>
        <time>2014-10-26T09:50:57Z</time>
      </trkpt>
      <trkpt lat="44.02074" lon="4.31738">
        <ele>102</ele>
        <time>2014-10-26T09:51:05Z</time>
      </trkpt>
      <trkpt lat="44.02071" lon="4.31751">
        <ele>102.5</ele>
        <time>2014-10-26T09:51:10Z</time>
      </trkpt>
      <trkpt lat="44.02068" lon="4.31764">
        <ele>102.5</ele>
        <time>2014-10-26T09:51:15Z</time>
      </trkpt>
      <trkpt lat="44.02069" lon="4.31777">
        <ele>103</ele>
        <time>2014-10-26T09:51:21Z</time>
      </trkpt>
      <trkpt lat="44.02073" lon="4.3179">
        <ele>102.9</ele>
        <time>2014-10-26T09:51:26Z</time>
      </trkpt>
      <trkpt lat="44.02076" lon="4.31802">
        <ele>102.9</ele>
        <time>2014-10-26T09:51:32Z</time>
      </trkpt>
      <trkpt lat="44.02078" lon="4.31816">
        <ele>102.9</ele>
        <time>2014-10-26T09:51:38Z</time>
      </trkpt>
      <trkpt lat="44.02078" lon="4.31828">
        <ele>102.7</ele>
        <time>2014-10-26T09:51:44Z</time>
      </trkpt>
      <trkpt lat="44.02078" lon="4.31842">
        <ele>102.7</ele>
        <time>2014-10-26T09:51:52Z</time>
      </trkpt>
      <trkpt lat="44.02077" lon="4.31855">
        <ele>102.8</ele>
        <time>2014-10-26T09:51:57Z</time>
      </trkpt>
      <trkpt lat="44.02075" lon="4.31868">
        <ele>102.8</ele>
        <time>2014-10-26T09:52:03Z</time>
      </trkpt>
      <trkpt lat="44.02073" lon="4.31881">
        <ele>102.7</ele>
        <time>2014-10-26T09:52:09Z</time>
      </trkpt>
      <trkpt lat="44.02069" lon="4.31895">
        <ele>102.8</ele>
        <time>2014-10-26T09:52:16Z</time>
      </trkpt>
      <trkpt lat="44.02067" lon="4.31908">
        <ele>102.6</ele>
        <time>2014-10-26T09:52:22Z</time>
      </trkpt>
      <trkpt lat="44.02064" lon="4.31921">
        <ele>102.7</ele>
        <time>2014-10-26T09:52:28Z</time>
      </trkpt>
      <trkpt lat="44.02062" lon="4.31934">
        <ele>102.9</ele>
        <time>2014-10-26T09:52:36Z</time>
      </trkpt>
      <trkpt lat="44.02062" lon="4.31946">
        <ele>102.7</ele>
        <time>2014-10-26T09:52:45Z</time>
      </trkpt>
      <trkpt lat="44.0206" lon="4.31962">
        <ele>103.3</ele>
        <time>2014-10-26T09:52:54Z</time>
      </trkpt>
      <trkpt lat="44.02062" lon="4.31976">
        <ele>103.6</ele>
        <time>2014-10-26T09:53:01Z</time>
      </trkpt>
      <trkpt lat="44.02063" lon="4.31991">
        <ele>104.2</ele>
        <time>2014-10-26T09:53:07Z</time>
      </trkpt>
      <trkpt lat="44.02065" lon="4.32004">
        <ele>104.6</ele>
        <time>2014-10-26T09:53:14Z</time>
      </trkpt>
      <trkpt lat="44.02065" lon="4.32017">
        <ele>104.9</ele>
        <time>2014-10-26T09:53:19Z</time>
      </trkpt>
      <trkpt lat="44.02064" lon="4.3203">
        <ele>105</ele>
        <time>2014-10-26T09:53:24Z</time>
      </trkpt>
      <trkpt lat="44.02062" lon="4.32043">
        <ele>104.9</ele>
        <time>2014-10-26T09:53:32Z</time>
      </trkpt>
      <trkpt lat="44.02054" lon="4.32055">
        <ele>104.6</ele>
        <time>2014-10-26T09:53:41Z</time>
      </trkpt>
      <trkpt lat="44.02048" lon="4.32066">
        <ele>104.8</ele>
        <time>2014-10-26T09:53:49Z</time>
      </trkpt>
      <trkpt lat="44.02042" lon="4.32075">
        <ele>104.9</ele>
        <time>2014-10-26T09:53:57Z</time>
      </trkpt>
      <trkpt lat="44.02033" lon="4.32085">
        <ele>104.5</ele>
        <time>2014-10-26T09:54:02Z</time>
      </trkpt>
      <trkpt lat="44.02024" lon="4.32094">
        <ele>104.5</ele>
        <time>2014-10-26T09:54:06Z</time>
      </trkpt>
      <trkpt lat="44.02016" lon="4.32103">
        <ele>104.7</ele>
        <time>2014-10-26T09:54:13Z</time>
      </trkpt>
      <trkpt lat="44.02009" lon="4.32112">
        <ele>104.3</ele>
        <time>2014-10-26T09:54:18Z</time>
      </trkpt>
      <trkpt lat="44.02002" lon="4.32122">
        <ele>103.9</ele>
        <time>2014-10-26T09:54:27Z</time>
      </trkpt>
      <trkpt lat="44.01992" lon="4.32126">
        <ele>104.1</ele>
        <time>2014-10-26T09:54:36Z</time>
      </trkpt>
      <trkpt lat="44.01984" lon="4.32134">
        <ele>104.3</ele>
        <time>2014-10-26T09:54:43Z</time>
      </trkpt>
      <trkpt lat="44.01977" lon="4.32142">
        <ele>104.3</ele>
        <time>2014-10-26T09:54:50Z</time>
      </trkpt>
      <trkpt lat="44.01971" lon="4.32154">
        <ele>104.2</ele>
        <time>2014-10-26T09:54:57Z</time>
      </trkpt>
      <trkpt lat="44.01969" lon="4.32166">
        <ele>104</ele>
        <time>2014-10-26T09:55:05Z</time>
      </trkpt>
      <trkpt lat="44.01965" lon="4.3218">
        <ele>103.6</ele>
        <time>2014-10-26T09:55:13Z</time>
      </trkpt>
      <trkpt lat="44.01961" lon="4.32191">
        <ele>103.4</ele>
        <time>2014-10-26T09:55:17Z</time>
      </trkpt>
      <trkpt lat="44.01958" lon="4.32203">
        <ele>103.4</ele>
        <time>2014-10-26T09:55:23Z</time>
      </trkpt>
      <trkpt lat="44.01956" lon="4.32218">
        <ele>103.1</ele>
        <time>2014-10-26T09:55:28Z</time>
      </trkpt>
      <trkpt lat="44.01951" lon="4.3223">
        <ele>103.3</ele>
        <time>2014-10-26T09:55:35Z</time>
      </trkpt>
      <trkpt lat="44.01946" lon="4.32243">
        <ele>103.5</ele>
        <time>2014-10-26T09:55:40Z</time>
      </trkpt>
      <trkpt lat="44.01935" lon="4.32286">
        <ele>103</ele>
        <time>2014-10-26T09:55:46Z</time>
      </trkpt>
      <trkpt lat="44.01929" lon="4.32308">
        <ele>103.7</ele>
        <time>2014-10-26T09:55:51Z</time>
      </trkpt>
      <trkpt lat="44.01927" lon="4.32321">
        <ele>103.5</ele>
        <time>2014-10-26T09:55:55Z</time>
      </trkpt>
      <trkpt lat="44.01922" lon="4.32332">
        <ele>103.7</ele>
        <time>2014-10-26T09:56:01Z</time>
      </trkpt>
      <trkpt lat="44.01919" lon="4.32346">
        <ele>103.1</ele>
        <time>2014-10-26T09:56:07Z</time>
      </trkpt>
      <trkpt lat="44.01917" lon="4.32358">
        <ele>103.5</ele>
        <time>2014-10-26T09:56:12Z</time>
      </trkpt>
      <trkpt lat="44.01915" lon="4.32374">
        <ele>103.3</ele>
        <time>2014-10-26T09:56:20Z</time>
      </trkpt>
      <trkpt lat="44.01909" lon="4.32385">
        <ele>103.5</ele>
        <time>2014-10-26T09:56:28Z</time>
      </trkpt>
      <trkpt lat="44.01909" lon="4.32399">
        <ele>103.3</ele>
        <time>2014-10-26T09:56:35Z</time>
      </trkpt>
      <trkpt lat="44.01908" lon="4.32412">
        <ele>103.1</ele>
        <time>2014-10-26T09:56:42Z</time>
      </trkpt>
      <trkpt lat="44.01908" lon="4.32425">
        <ele>102.9</ele>
        <time>2014-10-26T09:56:49Z</time>
      </trkpt>
      <trkpt lat="44.01902" lon="4.32436">
        <ele>103.1</ele>
        <time>2014-10-26T09:56:56Z</time>
      </trkpt>
      <trkpt lat="44.01892" lon="4.32438">
        <ele>103.3</ele>
        <time>2014-10-26T09:57:05Z</time>
      </trkpt>
      <trkpt lat="44.01883" lon="4.3244">
        <ele>103</ele>
        <time>2014-10-26T09:57:14Z</time>
      </trkpt>
      <trkpt lat="44.01874" lon="4.32445">
        <ele>102.9</ele>
        <time>2014-10-26T09:57:21Z</time>
      </trkpt>
      <trkpt lat="44.01865" lon="4.32446">
        <ele>103.1</ele>
        <time>2014-10-26T09:57:26Z</time>
      </trkpt>
      <trkpt lat="44.01856" lon="4.32452">
        <ele>103.2</ele>
        <time>2014-10-26T09:57:34Z</time>
      </trkpt>
      <trkpt lat="44.01847" lon="4.32458">
        <ele>103.2</ele>
        <time>2014-10-26T09:57:41Z</time>
      </trkpt>
      <trkpt lat="44.0184" lon="4.32469">
        <ele>102.9</ele>
        <time>2014-10-26T09:57:50Z</time>
      </trkpt>
      <trkpt lat="44.01837" lon="4.32481">
        <ele>102.1</ele>
        <time>2014-10-26T09:57:59Z</time>
      </trkpt>
      <trkpt lat="44.01828" lon="4.32508">
        <ele>102</ele>
        <time>2014-10-26T09:59:12Z</time>
      </trkpt>
      <trkpt lat="44.01832" lon="4.3252">
        <ele>102.5</ele>
        <time>2014-10-26T09:59:32Z</time>
      </trkpt>
      <trkpt lat="44.01823" lon="4.32517">
        <ele>102.6</ele>
        <time>2014-10-26T10:01:03Z</time>
      </trkpt>
      <trkpt lat="44.01828" lon="4.32506">
        <ele>102.2</ele>
        <time>2014-10-26T10:01:28Z</time>
      </trkpt>
      <trkpt lat="44.0183" lon="4.32493">
        <ele>102.5</ele>
        <time>2014-10-26T10:01:36Z</time>
      </trkpt>
      <trkpt lat="44.01834" lon="4.32479">
        <ele>103</ele>
        <time>2014-10-26T10:01:43Z</time>
      </trkpt>
      <trkpt lat="44.01839" lon="4.32468">
        <ele>104</ele>
        <time>2014-10-26T10:01:51Z</time>
      </trkpt>
      <trkpt lat="44.01848" lon="4.32461">
        <ele>104.5</ele>
        <time>2014-10-26T10:02:00Z</time>
      </trkpt>
      <trkpt lat="44.01856" lon="4.32455">
        <ele>104.6</ele>
        <time>2014-10-26T10:02:10Z</time>
      </trkpt>
      <trkpt lat="44.01864" lon="4.3245">
        <ele>104.7</ele>
        <time>2014-10-26T10:02:17Z</time>
      </trkpt>
      <trkpt lat="44.01873" lon="4.32447">
        <ele>104.6</ele>
        <time>2014-10-26T10:02:23Z</time>
      </trkpt>
      <trkpt lat="44.01883" lon="4.32446">
        <ele>104.8</ele>
        <time>2014-10-26T10:02:28Z</time>
      </trkpt>
      <trkpt lat="44.01892" lon="4.3245">
        <ele>105.2</ele>
        <time>2014-10-26T10:02:33Z</time>
      </trkpt>
      <trkpt lat="44.01897" lon="4.32461">
        <ele>105.2</ele>
        <time>2014-10-26T10:02:39Z</time>
      </trkpt>
      <trkpt lat="44.01903" lon="4.32472">
        <ele>105.5</ele>
        <time>2014-10-26T10:02:45Z</time>
      </trkpt>
      <trkpt lat="44.01909" lon="4.32483">
        <ele>106.2</ele>
        <time>2014-10-26T10:02:53Z</time>
      </trkpt>
      <trkpt lat="44.01918" lon="4.32479">
        <ele>106.4</ele>
        <time>2014-10-26T10:03:00Z</time>
      </trkpt>
      <trkpt lat="44.01927" lon="4.32476">
        <ele>107</ele>
        <time>2014-10-26T10:03:05Z</time>
      </trkpt>
      <trkpt lat="44.01936" lon="4.32474">
        <ele>107.1</ele>
        <time>2014-10-26T10:03:11Z</time>
      </trkpt>
      <trkpt lat="44.01947" lon="4.32472">
        <ele>107.2</ele>
        <time>2014-10-26T10:03:16Z</time>
      </trkpt>
      <trkpt lat="44.01956" lon="4.3247">
        <ele>107.4</ele>
        <time>2014-10-26T10:03:21Z</time>
      </trkpt>
      <trkpt lat="44.01965" lon="4.32466">
        <ele>107.4</ele>
        <time>2014-10-26T10:03:26Z</time>
      </trkpt>
      <trkpt lat="44.01975" lon="4.32462">
        <ele>107.8</ele>
        <time>2014-10-26T10:03:31Z</time>
      </trkpt>
      <trkpt lat="44.01985" lon="4.32458">
        <ele>108.2</ele>
        <time>2014-10-26T10:03:35Z</time>
      </trkpt>
      <trkpt lat="44.01995" lon="4.32454">
        <ele>108.5</ele>
        <time>2014-10-26T10:03:40Z</time>
      </trkpt>
      <trkpt lat="44.02005" lon="4.3245">
        <ele>108.7</ele>
        <time>2014-10-26T10:03:45Z</time>
      </trkpt>
      <trkpt lat="44.02014" lon="4.32444">
        <ele>109.3</ele>
        <time>2014-10-26T10:03:52Z</time>
      </trkpt>
      <trkpt lat="44.02023" lon="4.3244">
        <ele>109.4</ele>
        <time>2014-10-26T10:03:59Z</time>
      </trkpt>
      <trkpt lat="44.02032" lon="4.32442">
        <ele>110.3</ele>
        <time>2014-10-26T10:04:05Z</time>
      </trkpt>
      <trkpt lat="44.02042" lon="4.32442">
        <ele>111.2</ele>
        <time>2014-10-26T10:04:13Z</time>
      </trkpt>
      <trkpt lat="44.02052" lon="4.32442">
        <ele>112.7</ele>
        <time>2014-10-26T10:04:23Z</time>
      </trkpt>
      <trkpt lat="44.02062" lon="4.32444">
        <ele>113.7</ele>
        <time>2014-10-26T10:04:29Z</time>
      </trkpt>
      <trkpt lat="44.02072" lon="4.32444">
        <ele>114.8</ele>
        <time>2014-10-26T10:04:38Z</time>
      </trkpt>
      <trkpt lat="44.02081" lon="4.32442">
        <ele>115.9</ele>
        <time>2014-10-26T10:04:47Z</time>
      </trkpt>
      <trkpt lat="44.02091" lon="4.32441">
        <ele>116.5</ele>
        <time>2014-10-26T10:04:53Z</time>
      </trkpt>
      <trkpt lat="44.021" lon="4.32441">
        <ele>117.5</ele>
        <time>2014-10-26T10:04:59Z</time>
      </trkpt>
      <trkpt lat="44.0211" lon="4.3244">
        <ele>117.9</ele>
        <time>2014-10-26T10:05:06Z</time>
      </trkpt>
      <trkpt lat="44.02119" lon="4.32439">
        <ele>118.8</ele>
        <time>2014-10-26T10:05:11Z</time>
      </trkpt>
      <trkpt lat="44.0213" lon="4.32436">
        <ele>119.1</ele>
        <time>2014-10-26T10:05:16Z</time>
      </trkpt>
      <trkpt lat="44.02139" lon="4.32433">
        <ele>119.4</ele>
        <time>2014-10-26T10:05:21Z</time>
      </trkpt>
      <trkpt lat="44.02148" lon="4.32431">
        <ele>119.6</ele>
        <time>2014-10-26T10:05:26Z</time>
      </trkpt>
      <trkpt lat="44.02158" lon="4.32429">
        <ele>119.8</ele>
        <time>2014-10-26T10:05:32Z</time>
      </trkpt>
      <trkpt lat="44.02168" lon="4.32427">
        <ele>120.2</ele>
        <time>2014-10-26T10:05:38Z</time>
      </trkpt>
      <trkpt lat="44.02177" lon="4.32427">
        <ele>119.9</ele>
        <time>2014-10-26T10:05:45Z</time>
      </trkpt>
      <trkpt lat="44.02188" lon="4.32427">
        <ele>120.3</ele>
        <time>2014-10-26T10:05:52Z</time>
      </trkpt>
      <trkpt lat="44.02199" lon="4.32425">
        <ele>120.9</ele>
        <time>2014-10-26T10:05:58Z</time>
      </trkpt>
      <trkpt lat="44.02209" lon="4.32422">
        <ele>121</ele>
        <time>2014-10-26T10:06:04Z</time>
      </trkpt>
      <trkpt lat="44.02218" lon="4.32419">
        <ele>121</ele>
        <time>2014-10-26T10:06:10Z</time>
      </trkpt>
      <trkpt lat="44.02229" lon="4.32417">
        <ele>120.9</ele>
        <time>2014-10-26T10:06:16Z</time>
      </trkpt>
      <trkpt lat="44.02239" lon="4.32417">
        <ele>121.2</ele>
        <time>2014-10-26T10:06:23Z</time>
      </trkpt>
      <trkpt lat="44.02249" lon="4.32417">
        <ele>121.2</ele>
        <time>2014-10-26T10:06:29Z</time>
      </trkpt>
      <trkpt lat="44.02258" lon="4.32417">
        <ele>121.4</ele>
        <time>2014-10-26T10:06:35Z</time>
      </trkpt>
      <trkpt lat="44.02267" lon="4.32417">
        <ele>121.6</ele>
        <time>2014-10-26T10:06:41Z</time>
      </trkpt>
      <trkpt lat="44.02277" lon="4.3242">
        <ele>121.9</ele>
        <time>2014-10-26T10:06:47Z</time>
      </trkpt>
      <trkpt lat="44.02286" lon="4.32423">
        <ele>122.3</ele>
        <time>2014-10-26T10:06:53Z</time>
      </trkpt>
      <trkpt lat="44.02296" lon="4.32427">
        <ele>122.3</ele>
        <time>2014-10-26T10:07:00Z</time>
      </trkpt>
      <trkpt lat="44.02302" lon="4.32437">
        <ele>122.6</ele>
        <time>2014-10-26T10:07:07Z</time>
      </trkpt>
      <trkpt lat="44.02306" lon="4.3245">
        <ele>123.5</ele>
        <time>2014-10-26T10:07:14Z</time>
      </trkpt>
      <trkpt lat="44.02309" lon="4.32463">
        <ele>124.4</ele>
        <time>2014-10-26T10:07:26Z</time>
      </trkpt>
      <trkpt lat="44.02305" lon="4.32477">
        <ele>126.6</ele>
        <time>2014-10-26T10:07:34Z</time>
      </trkpt>
      <trkpt lat="44.02302" lon="4.32489">
        <ele>128.8</ele>
        <time>2014-10-26T10:07:41Z</time>
      </trkpt>
      <trkpt lat="44.02298" lon="4.32501">
        <ele>129.3</ele>
        <time>2014-10-26T10:07:46Z</time>
      </trkpt>
      <trkpt lat="44.0229" lon="4.3251">
        <ele>129.7</ele>
        <time>2014-10-26T10:07:53Z</time>
      </trkpt>
      <trkpt lat="44.02282" lon="4.32514">
        <ele>129.7</ele>
        <time>2014-10-26T10:08:00Z</time>
      </trkpt>
      <trkpt lat="44.02275" lon="4.32522">
        <ele>129.7</ele>
        <time>2014-10-26T10:08:05Z</time>
      </trkpt>
      <trkpt lat="44.02268" lon="4.32531">
        <ele>129.6</ele>
        <time>2014-10-26T10:08:14Z</time>
      </trkpt>
      <trkpt lat="44.02265" lon="4.32543">
        <ele>129.8</ele>
        <time>2014-10-26T10:08:23Z</time>
      </trkpt>
      <trkpt lat="44.02259" lon="4.32554">
        <ele>130.2</ele>
        <time>2014-10-26T10:08:32Z</time>
      </trkpt>
      <trkpt lat="44.02253" lon="4.32563">
        <ele>130.1</ele>
        <time>2014-10-26T10:08:38Z</time>
      </trkpt>
      <trkpt lat="44.02248" lon="4.32575">
        <ele>130</ele>
        <time>2014-10-26T10:08:45Z</time>
      </trkpt>
      <trkpt lat="44.02248" lon="4.32589">
        <ele>129.4</ele>
        <time>2014-10-26T10:08:52Z</time>
      </trkpt>
      <trkpt lat="44.02248" lon="4.32603">
        <ele>128.2</ele>
        <time>2014-10-26T10:08:59Z</time>
      </trkpt>
      <trkpt lat="44.02242" lon="4.32613">
        <ele>128</ele>
        <time>2014-10-26T10:09:08Z</time>
      </trkpt>
      <trkpt lat="44.02236" lon="4.32623">
        <ele>129.8</ele>
        <time>2014-10-26T10:09:16Z</time>
      </trkpt>
      <trkpt lat="44.0223" lon="4.32633">
        <ele>130.7</ele>
        <time>2014-10-26T10:09:25Z</time>
      </trkpt>
      <trkpt lat="44.02225" lon="4.32645">
        <ele>130.6</ele>
        <time>2014-10-26T10:09:34Z</time>
      </trkpt>
      <trkpt lat="44.02222" lon="4.32658">
        <ele>130.7</ele>
        <time>2014-10-26T10:09:38Z</time>
      </trkpt>
      <trkpt lat="44.02219" lon="4.32671">
        <ele>130.7</ele>
        <time>2014-10-26T10:09:43Z</time>
      </trkpt>
      <trkpt lat="44.02218" lon="4.32685">
        <ele>130.9</ele>
        <time>2014-10-26T10:09:49Z</time>
      </trkpt>
      <trkpt lat="44.02215" lon="4.32697">
        <ele>130.9</ele>
        <time>2014-10-26T10:09:57Z</time>
      </trkpt>
      <trkpt lat="44.02211" lon="4.32711">
        <ele>130.8</ele>
        <time>2014-10-26T10:10:03Z</time>
      </trkpt>
      <trkpt lat="44.02208" lon="4.32724">
        <ele>131.1</ele>
        <time>2014-10-26T10:10:09Z</time>
      </trkpt>
      <trkpt lat="44.02208" lon="4.32738">
        <ele>131</ele>
        <time>2014-10-26T10:10:14Z</time>
      </trkpt>
      <trkpt lat="44.02206" lon="4.3275">
        <ele>131</ele>
        <time>2014-10-26T10:10:19Z</time>
      </trkpt>
      <trkpt lat="44.02206" lon="4.32764">
        <ele>131.1</ele>
        <time>2014-10-26T10:10:25Z</time>
      </trkpt>
      <trkpt lat="44.02207" lon="4.32779">
        <ele>131.2</ele>
        <time>2014-10-26T10:10:32Z</time>
      </trkpt>
      <trkpt lat="44.02207" lon="4.32791">
        <ele>131</ele>
        <time>2014-10-26T10:10:37Z</time>
      </trkpt>
      <trkpt lat="44.02207" lon="4.32805">
        <ele>131.2</ele>
        <time>2014-10-26T10:10:42Z</time>
      </trkpt>
      <trkpt lat="44.02207" lon="4.32818">
        <ele>131.1</ele>
        <time>2014-10-26T10:10:47Z</time>
      </trkpt>
      <trkpt lat="44.0221" lon="4.32832">
        <ele>131</ele>
        <time>2014-10-26T10:10:54Z</time>
      </trkpt>
      <trkpt lat="44.02212" lon="4.32845">
        <ele>131</ele>
        <time>2014-10-26T10:10:59Z</time>
      </trkpt>
      <trkpt lat="44.02215" lon="4.32857">
        <ele>130.8</ele>
        <time>2014-10-26T10:11:06Z</time>
      </trkpt>
      <trkpt lat="44.02218" lon="4.3287">
        <ele>131</ele>
        <time>2014-10-26T10:11:11Z</time>
      </trkpt>
      <trkpt lat="44.0222" lon="4.32883">
        <ele>130.9</ele>
        <time>2014-10-26T10:11:15Z</time>
      </trkpt>
      <trkpt lat="44.0222" lon="4.32895">
        <ele>130.9</ele>
        <time>2014-10-26T10:11:19Z</time>
      </trkpt>
      <trkpt lat="44.02219" lon="4.32909">
        <ele>131.2</ele>
        <time>2014-10-26T10:11:25Z</time>
      </trkpt>
      <trkpt lat="44.0222" lon="4.32922">
        <ele>131.5</ele>
        <time>2014-10-26T10:11:32Z</time>
      </trkpt>
      <trkpt lat="44.02222" lon="4.32937">
        <ele>131.4</ele>
        <time>2014-10-26T10:11:38Z</time>
      </trkpt>
      <trkpt lat="44.02223" lon="4.32951">
        <ele>131.4</ele>
        <time>2014-10-26T10:11:45Z</time>
      </trkpt>
      <trkpt lat="44.02225" lon="4.32964">
        <ele>131.7</ele>
        <time>2014-10-26T10:11:51Z</time>
      </trkpt>
      <trkpt lat="44.0223" lon="4.32976">
        <ele>131.8</ele>
        <time>2014-10-26T10:11:58Z</time>
      </trkpt>
      <trkpt lat="44.02237" lon="4.32986">
        <ele>132</ele>
        <time>2014-10-26T10:12:03Z</time>
      </trkpt>
      <trkpt lat="44.02241" lon="4.32999">
        <ele>131.9</ele>
        <time>2014-10-26T10:12:09Z</time>
      </trkpt>
      <trkpt lat="44.02246" lon="4.33013">
        <ele>132.2</ele>
        <time>2014-10-26T10:12:15Z</time>
      </trkpt>
      <trkpt lat="44.02249" lon="4.33025">
        <ele>132.1</ele>
        <time>2014-10-26T10:12:21Z</time>
      </trkpt>
      <trkpt lat="44.02256" lon="4.33034">
        <ele>131.9</ele>
        <time>2014-10-26T10:12:28Z</time>
      </trkpt>
      <trkpt lat="44.02262" lon="4.33046">
        <ele>131.5</ele>
        <time>2014-10-26T10:12:36Z</time>
      </trkpt>
      <trkpt lat="44.02267" lon="4.33059">
        <ele>131.6</ele>
        <time>2014-10-26T10:12:43Z</time>
      </trkpt>
      <trkpt lat="44.02273" lon="4.33069">
        <ele>131.8</ele>
        <time>2014-10-26T10:12:50Z</time>
      </trkpt>
      <trkpt lat="44.02278" lon="4.33081">
        <ele>131.8</ele>
        <time>2014-10-26T10:12:56Z</time>
      </trkpt>
      <trkpt lat="44.02277" lon="4.33094">
        <ele>131.8</ele>
        <time>2014-10-26T10:13:03Z</time>
      </trkpt>
      <trkpt lat="44.02282" lon="4.33106">
        <ele>131.7</ele>
        <time>2014-10-26T10:13:10Z</time>
      </trkpt>
      <trkpt lat="44.02287" lon="4.33115">
        <ele>131.5</ele>
        <time>2014-10-26T10:13:15Z</time>
      </trkpt>
      <trkpt lat="44.02293" lon="4.33127">
        <ele>131.7</ele>
        <time>2014-10-26T10:13:20Z</time>
      </trkpt>
      <trkpt lat="44.023" lon="4.33137">
        <ele>131.9</ele>
        <time>2014-10-26T10:13:25Z</time>
      </trkpt>
      <trkpt lat="44.02301" lon="4.33152">
        <ele>131.6</ele>
        <time>2014-10-26T10:13:33Z</time>
      </trkpt>
      <trkpt lat="44.02307" lon="4.33166">
        <ele>131.5</ele>
        <time>2014-10-26T10:13:39Z</time>
      </trkpt>
      <trkpt lat="44.02307" lon="4.33182">
        <ele>132.1</ele>
        <time>2014-10-26T10:13:44Z</time>
      </trkpt>
      <trkpt lat="44.0231" lon="4.33194">
        <ele>132.2</ele>
        <time>2014-10-26T10:13:52Z</time>
      </trkpt>
      <trkpt lat="44.02314" lon="4.33207">
        <ele>132</ele>
        <time>2014-10-26T10:14:00Z</time>
      </trkpt>
      <trkpt lat="44.02318" lon="4.33218">
        <ele>132.2</ele>
        <time>2014-10-26T10:14:05Z</time>
      </trkpt>
      <trkpt lat="44.02322" lon="4.3323">
        <ele>131.6</ele>
        <time>2014-10-26T10:14:13Z</time>
      </trkpt>
      <trkpt lat="44.02328" lon="4.3324">
        <ele>131.6</ele>
        <time>2014-10-26T10:14:21Z</time>
      </trkpt>
      <trkpt lat="44.02338" lon="4.33251">
        <ele>132.2</ele>
        <time>2014-10-26T10:14:24Z</time>
      </trkpt>
      <trkpt lat="44.0234" lon="4.33265">
        <ele>132.4</ele>
        <time>2014-10-26T10:14:26Z</time>
      </trkpt>
      <trkpt lat="44.02345" lon="4.3328">
        <ele>132.5</ele>
        <time>2014-10-26T10:14:28Z</time>
      </trkpt>
      <trkpt lat="44.02348" lon="4.33293">
        <ele>133.3</ele>
        <time>2014-10-26T10:14:30Z</time>
      </trkpt>
      <trkpt lat="44.02352" lon="4.33308">
        <ele>134.8</ele>
        <time>2014-10-26T10:14:33Z</time>
      </trkpt>
      <trkpt lat="44.02354" lon="4.33321">
        <ele>135.8</ele>
        <time>2014-10-26T10:14:37Z</time>
      </trkpt>
      <trkpt lat="44.02363" lon="4.33329">
        <ele>136.7</ele>
        <time>2014-10-26T10:14:41Z</time>
      </trkpt>
      <trkpt lat="44.02368" lon="4.3334">
        <ele>137.3</ele>
        <time>2014-10-26T10:14:46Z</time>
      </trkpt>
      <trkpt lat="44.02376" lon="4.33353">
        <ele>138.1</ele>
        <time>2014-10-26T10:14:52Z</time>
      </trkpt>
      <trkpt lat="44.02385" lon="4.33362">
        <ele>138.5</ele>
        <time>2014-10-26T10:14:57Z</time>
      </trkpt>
      <trkpt lat="44.02391" lon="4.33372">
        <ele>139.5</ele>
        <time>2014-10-26T10:15:04Z</time>
      </trkpt>
      <trkpt lat="44.02396" lon="4.33384">
        <ele>140.3</ele>
        <time>2014-10-26T10:15:13Z</time>
      </trkpt>
      <trkpt lat="44.02399" lon="4.33396">
        <ele>141.3</ele>
        <time>2014-10-26T10:15:35Z</time>
      </trkpt>
      <trkpt lat="44.02391" lon="4.33405">
        <ele>141.7</ele>
        <time>2014-10-26T10:15:46Z</time>
      </trkpt>
      <trkpt lat="44.02381" lon="4.33403">
        <ele>141.4</ele>
        <time>2014-10-26T10:15:52Z</time>
      </trkpt>
      <trkpt lat="44.02372" lon="4.33399">
        <ele>141.3</ele>
        <time>2014-10-26T10:15:59Z</time>
      </trkpt>
      <trkpt lat="44.02363" lon="4.33399">
        <ele>140.9</ele>
        <time>2014-10-26T10:16:05Z</time>
      </trkpt>
      <trkpt lat="44.0236" lon="4.33413">
        <ele>141.6</ele>
        <time>2014-10-26T10:16:13Z</time>
      </trkpt>
      <trkpt lat="44.02366" lon="4.33422">
        <ele>142.8</ele>
        <time>2014-10-26T10:16:19Z</time>
      </trkpt>
      <trkpt lat="44.02367" lon="4.33435">
        <ele>144.1</ele>
        <time>2014-10-26T10:16:28Z</time>
      </trkpt>
      <trkpt lat="44.02367" lon="4.33449">
        <ele>146.1</ele>
        <time>2014-10-26T10:16:53Z</time>
      </trkpt>
      <trkpt lat="44.02366" lon="4.33462">
        <ele>147</ele>
        <time>2014-10-26T10:17:00Z</time>
      </trkpt>
      <trkpt lat="44.02361" lon="4.33473">
        <ele>147.5</ele>
        <time>2014-10-26T10:17:07Z</time>
      </trkpt>
      <trkpt lat="44.02353" lon="4.33483">
        <ele>148.3</ele>
        <time>2014-10-26T10:17:14Z</time>
      </trkpt>
      <trkpt lat="44.02347" lon="4.33493">
        <ele>149</ele>
        <time>2014-10-26T10:17:20Z</time>
      </trkpt>
      <trkpt lat="44.0234" lon="4.33502">
        <ele>150.4</ele>
        <time>2014-10-26T10:17:28Z</time>
      </trkpt>
      <trkpt lat="44.02332" lon="4.33512">
        <ele>151.2</ele>
        <time>2014-10-26T10:17:34Z</time>
      </trkpt>
      <trkpt lat="44.02325" lon="4.33523">
        <ele>152</ele>
        <time>2014-10-26T10:17:40Z</time>
      </trkpt>
      <trkpt lat="44.0232" lon="4.33534">
        <ele>153.5</ele>
        <time>2014-10-26T10:17:47Z</time>
      </trkpt>
      <trkpt lat="44.02317" lon="4.33547">
        <ele>154.3</ele>
        <time>2014-10-26T10:17:53Z</time>
      </trkpt>
      <trkpt lat="44.02313" lon="4.33559">
        <ele>154.7</ele>
        <time>2014-10-26T10:17:58Z</time>
      </trkpt>
      <trkpt lat="44.02308" lon="4.3357">
        <ele>155.3</ele>
        <time>2014-10-26T10:18:04Z</time>
      </trkpt>
      <trkpt lat="44.02305" lon="4.33583">
        <ele>155.8</ele>
        <time>2014-10-26T10:18:11Z</time>
      </trkpt>
      <trkpt lat="44.023" lon="4.33595">
        <ele>157.1</ele>
        <time>2014-10-26T10:18:20Z</time>
      </trkpt>
      <trkpt lat="44.02297" lon="4.33607">
        <ele>158.1</ele>
        <time>2014-10-26T10:18:27Z</time>
      </trkpt>
      <trkpt lat="44.02295" lon="4.3362">
        <ele>158.5</ele>
        <time>2014-10-26T10:18:32Z</time>
      </trkpt>
      <trkpt lat="44.02296" lon="4.33633">
        <ele>159</ele>
        <time>2014-10-26T10:18:39Z</time>
      </trkpt>
      <trkpt lat="44.02296" lon="4.33646">
        <ele>161</ele>
        <time>2014-10-26T10:18:48Z</time>
      </trkpt>
      <trkpt lat="44.02291" lon="4.33659">
        <ele>162.6</ele>
        <time>2014-10-26T10:18:56Z</time>
      </trkpt>
      <trkpt lat="44.02283" lon="4.33666">
        <ele>163.2</ele>
        <time>2014-10-26T10:19:00Z</time>
      </trkpt>
      <trkpt lat="44.02275" lon="4.33675">
        <ele>163.9</ele>
        <time>2014-10-26T10:19:04Z</time>
      </trkpt>
      <trkpt lat="44.02266" lon="4.33677">
        <ele>166</ele>
        <time>2014-10-26T10:19:12Z</time>
      </trkpt>
      <trkpt lat="44.02257" lon="4.33679">
        <ele>167.4</ele>
        <time>2014-10-26T10:19:21Z</time>
      </trkpt>
      <trkpt lat="44.02247" lon="4.33683">
        <ele>168.4</ele>
        <time>2014-10-26T10:19:28Z</time>
      </trkpt>
      <trkpt lat="44.02238" lon="4.33683">
        <ele>168.7</ele>
        <time>2014-10-26T10:19:32Z</time>
      </trkpt>
      <trkpt lat="44.02229" lon="4.33688">
        <ele>168.8</ele>
        <time>2014-10-26T10:19:38Z</time>
      </trkpt>
      <trkpt lat="44.02221" lon="4.33694">
        <ele>169.3</ele>
        <time>2014-10-26T10:19:43Z</time>
      </trkpt>
      <trkpt lat="44.02211" lon="4.33701">
        <ele>169.5</ele>
        <time>2014-10-26T10:19:49Z</time>
      </trkpt>
      <trkpt lat="44.02202" lon="4.33706">
        <ele>170.1</ele>
        <time>2014-10-26T10:19:56Z</time>
      </trkpt>
      <trkpt lat="44.02196" lon="4.33718">
        <ele>170.3</ele>
        <time>2014-10-26T10:20:02Z</time>
      </trkpt>
      <trkpt lat="44.02187" lon="4.33722">
        <ele>170.6</ele>
        <time>2014-10-26T10:20:05Z</time>
      </trkpt>
      <trkpt lat="44.02178" lon="4.33725">
        <ele>170.8</ele>
        <time>2014-10-26T10:20:13Z</time>
      </trkpt>
      <trkpt lat="44.02169" lon="4.33732">
        <ele>171.9</ele>
        <time>2014-10-26T10:20:19Z</time>
      </trkpt>
      <trkpt lat="44.02159" lon="4.33734">
        <ele>173.2</ele>
        <time>2014-10-26T10:20:24Z</time>
      </trkpt>
      <trkpt lat="44.0215" lon="4.33734">
        <ele>174.3</ele>
        <time>2014-10-26T10:20:30Z</time>
      </trkpt>
      <trkpt lat="44.02144" lon="4.33748">
        <ele>175.1</ele>
        <time>2014-10-26T10:20:36Z</time>
      </trkpt>
      <trkpt lat="44.02136" lon="4.33755">
        <ele>175.9</ele>
        <time>2014-10-26T10:20:41Z</time>
      </trkpt>
      <trkpt lat="44.02129" lon="4.33763">
        <ele>176.6</ele>
        <time>2014-10-26T10:20:48Z</time>
      </trkpt>
      <trkpt lat="44.02119" lon="4.33771">
        <ele>177.1</ele>
        <time>2014-10-26T10:20:55Z</time>
      </trkpt>
      <trkpt lat="44.0211" lon="4.33779">
        <ele>177.5</ele>
        <time>2014-10-26T10:21:02Z</time>
      </trkpt>
      <trkpt lat="44.02102" lon="4.33787">
        <ele>177.8</ele>
        <time>2014-10-26T10:21:09Z</time>
      </trkpt>
      <trkpt lat="44.02096" lon="4.33797">
        <ele>178.6</ele>
        <time>2014-10-26T10:21:15Z</time>
      </trkpt>
      <trkpt lat="44.02089" lon="4.33805">
        <ele>179.3</ele>
        <time>2014-10-26T10:21:22Z</time>
      </trkpt>
      <trkpt lat="44.02081" lon="4.33813">
        <ele>180.5</ele>
        <time>2014-10-26T10:21:30Z</time>
      </trkpt>
      <trkpt lat="44.02072" lon="4.33817">
        <ele>180.8</ele>
        <time>2014-10-26T10:21:36Z</time>
      </trkpt>
      <trkpt lat="44.02061" lon="4.33826">
        <ele>181.8</ele>
        <time>2014-10-26T10:21:41Z</time>
      </trkpt>
      <trkpt lat="44.02055" lon="4.33836">
        <ele>182.7</ele>
        <time>2014-10-26T10:21:46Z</time>
      </trkpt>
      <trkpt lat="44.02047" lon="4.33844">
        <ele>183.7</ele>
        <time>2014-10-26T10:21:50Z</time>
      </trkpt>
      <trkpt lat="44.02038" lon="4.33853">
        <ele>184.5</ele>
        <time>2014-10-26T10:21:53Z</time>
      </trkpt>
      <trkpt lat="44.02029" lon="4.33862">
        <ele>186.5</ele>
        <time>2014-10-26T10:21:56Z</time>
      </trkpt>
      <trkpt lat="44.02018" lon="4.33867">
        <ele>188.5</ele>
        <time>2014-10-26T10:22:00Z</time>
      </trkpt>
      <trkpt lat="44.02009" lon="4.33869">
        <ele>189</ele>
        <time>2014-10-26T10:22:11Z</time>
      </trkpt>
      <trkpt lat="44.02001" lon="4.33882">
        <ele>189.6</ele>
        <time>2014-10-26T10:22:20Z</time>
      </trkpt>
      <trkpt lat="44.01992" lon="4.33882">
        <ele>190.1</ele>
        <time>2014-10-26T10:24:12Z</time>
      </trkpt>
      <trkpt lat="44.01988" lon="4.3387">
        <ele>190.6</ele>
        <time>2014-10-26T10:24:33Z</time>
      </trkpt>
      <trkpt lat="44.01993" lon="4.33858">
        <ele>190.3</ele>
        <time>2014-10-26T10:24:40Z</time>
      </trkpt>
      <trkpt lat="44.01996" lon="4.33844">
        <ele>190.7</ele>
        <time>2014-10-26T10:24:44Z</time>
      </trkpt>
      <trkpt lat="44.02" lon="4.33831">
        <ele>190.5</ele>
        <time>2014-10-26T10:24:47Z</time>
      </trkpt>
      <trkpt lat="44.02003" lon="4.33819">
        <ele>190.5</ele>
        <time>2014-10-26T10:24:51Z</time>
      </trkpt>
      <trkpt lat="44.02008" lon="4.33808">
        <ele>190.8</ele>
        <time>2014-10-26T10:24:55Z</time>
      </trkpt>
      <trkpt lat="44.02012" lon="4.33791">
        <ele>190.8</ele>
        <time>2014-10-26T10:25:04Z</time>
      </trkpt>
      <trkpt lat="44.02022" lon="4.33785">
        <ele>190.9</ele>
        <time>2014-10-26T10:25:08Z</time>
      </trkpt>
      <trkpt lat="44.02022" lon="4.33798">
        <ele>191.1</ele>
        <time>2014-10-26T10:25:23Z</time>
      </trkpt>
      <trkpt lat="44.02021" lon="4.33816">
        <ele>191</ele>
        <time>2014-10-26T10:25:26Z</time>
      </trkpt>
      <trkpt lat="44.02007" lon="4.33845">
        <ele>190</ele>
        <time>2014-10-26T10:25:31Z</time>
      </trkpt>
      <trkpt lat="44.02002" lon="4.33856">
        <ele>190.6</ele>
        <time>2014-10-26T10:25:36Z</time>
      </trkpt>
      <trkpt lat="44.01984" lon="4.3388">
        <ele>190</ele>
        <time>2014-10-26T10:25:42Z</time>
      </trkpt>
      <trkpt lat="44.01975" lon="4.33879">
        <ele>191.6</ele>
        <time>2014-10-26T10:28:01Z</time>
      </trkpt>
      <trkpt lat="44.01965" lon="4.33878">
        <ele>191.3</ele>
        <time>2014-10-26T10:28:06Z</time>
      </trkpt>
      <trkpt lat="44.01956" lon="4.33878">
        <ele>190.7</ele>
        <time>2014-10-26T10:28:12Z</time>
      </trkpt>
      <trkpt lat="44.01946" lon="4.33876">
        <ele>190.4</ele>
        <time>2014-10-26T10:28:17Z</time>
      </trkpt>
      <trkpt lat="44.01936" lon="4.33878">
        <ele>190.2</ele>
        <time>2014-10-26T10:28:22Z</time>
      </trkpt>
      <trkpt lat="44.01926" lon="4.33875">
        <ele>190</ele>
        <time>2014-10-26T10:28:27Z</time>
      </trkpt>
      <trkpt lat="44.01916" lon="4.33872">
        <ele>190</ele>
        <time>2014-10-26T10:28:32Z</time>
      </trkpt>
      <trkpt lat="44.01906" lon="4.33868">
        <ele>190.2</ele>
        <time>2014-10-26T10:28:38Z</time>
      </trkpt>
      <trkpt lat="44.01895" lon="4.33865">
        <ele>190.1</ele>
        <time>2014-10-26T10:28:43Z</time>
      </trkpt>
      <trkpt lat="44.01885" lon="4.33865">
        <ele>189.6</ele>
        <time>2014-10-26T10:28:49Z</time>
      </trkpt>
      <trkpt lat="44.01876" lon="4.33867">
        <ele>188.8</ele>
        <time>2014-10-26T10:28:54Z</time>
      </trkpt>
      <trkpt lat="44.01866" lon="4.33871">
        <ele>188.4</ele>
        <time>2014-10-26T10:28:59Z</time>
      </trkpt>
      <trkpt lat="44.01857" lon="4.33878">
        <ele>187.6</ele>
        <time>2014-10-26T10:29:05Z</time>
      </trkpt>
      <trkpt lat="44.0185" lon="4.33887">
        <ele>186.7</ele>
        <time>2014-10-26T10:29:11Z</time>
      </trkpt>
      <trkpt lat="44.01841" lon="4.33893">
        <ele>186.2</ele>
        <time>2014-10-26T10:29:17Z</time>
      </trkpt>
      <trkpt lat="44.01835" lon="4.33903">
        <ele>186</ele>
        <time>2014-10-26T10:29:19Z</time>
      </trkpt>
      <trkpt lat="44.01826" lon="4.33911">
        <ele>186</ele>
        <time>2014-10-26T10:29:22Z</time>
      </trkpt>
      <trkpt lat="44.01816" lon="4.33922">
        <ele>185.7</ele>
        <time>2014-10-26T10:29:26Z</time>
      </trkpt>
      <trkpt lat="44.01807" lon="4.33927">
        <ele>185.1</ele>
        <time>2014-10-26T10:29:31Z</time>
      </trkpt>
      <trkpt lat="44.01798" lon="4.33931">
        <ele>185.1</ele>
        <time>2014-10-26T10:29:37Z</time>
      </trkpt>
      <trkpt lat="44.01789" lon="4.33926">
        <ele>185.5</ele>
        <time>2014-10-26T10:29:43Z</time>
      </trkpt>
      <trkpt lat="44.01784" lon="4.33916">
        <ele>185.7</ele>
        <time>2014-10-26T10:29:52Z</time>
      </trkpt>
      <trkpt lat="44.01778" lon="4.33906">
        <ele>186.5</ele>
        <time>2014-10-26T10:29:59Z</time>
      </trkpt>
      <trkpt lat="44.01769" lon="4.339">
        <ele>187.2</ele>
        <time>2014-10-26T10:30:05Z</time>
      </trkpt>
      <trkpt lat="44.0176" lon="4.33895">
        <ele>187.7</ele>
        <time>2014-10-26T10:30:10Z</time>
      </trkpt>
      <trkpt lat="44.01751" lon="4.33892">
        <ele>187.9</ele>
        <time>2014-10-26T10:30:15Z</time>
      </trkpt>
      <trkpt lat="44.01741" lon="4.33891">
        <ele>187.4</ele>
        <time>2014-10-26T10:30:21Z</time>
      </trkpt>
      <trkpt lat="44.01731" lon="4.33889">
        <ele>187.6</ele>
        <time>2014-10-26T10:30:26Z</time>
      </trkpt>
      <trkpt lat="44.01721" lon="4.33888">
        <ele>187</ele>
        <time>2014-10-26T10:30:32Z</time>
      </trkpt>
      <trkpt lat="44.01711" lon="4.33886">
        <ele>186.7</ele>
        <time>2014-10-26T10:30:38Z</time>
      </trkpt>
      <trkpt lat="44.01702" lon="4.33883">
        <ele>186.1</ele>
        <time>2014-10-26T10:30:44Z</time>
      </trkpt>
      <trkpt lat="44.01692" lon="4.33886">
        <ele>185.7</ele>
        <time>2014-10-26T10:30:50Z</time>
      </trkpt>
      <trkpt lat="44.01684" lon="4.33893">
        <ele>185.6</ele>
        <time>2014-10-26T10:30:57Z</time>
      </trkpt>
      <trkpt lat="44.01676" lon="4.339">
        <ele>184.1</ele>
        <time>2014-10-26T10:31:03Z</time>
      </trkpt>
      <trkpt lat="44.01667" lon="4.33905">
        <ele>183.5</ele>
        <time>2014-10-26T10:31:07Z</time>
      </trkpt>
      <trkpt lat="44.01658" lon="4.33904">
        <ele>183.4</ele>
        <time>2014-10-26T10:31:12Z</time>
      </trkpt>
      <trkpt lat="44.01649" lon="4.33899">
        <ele>183.1</ele>
        <time>2014-10-26T10:31:18Z</time>
      </trkpt>
      <trkpt lat="44.01641" lon="4.3389">
        <ele>183</ele>
        <time>2014-10-26T10:31:25Z</time>
      </trkpt>
      <trkpt lat="44.01634" lon="4.33882">
        <ele>183.4</ele>
        <time>2014-10-26T10:31:31Z</time>
      </trkpt>
      <trkpt lat="44.01624" lon="4.33876">
        <ele>183.2</ele>
        <time>2014-10-26T10:31:37Z</time>
      </trkpt>
      <trkpt lat="44.01614" lon="4.33878">
        <ele>183.1</ele>
        <time>2014-10-26T10:31:44Z</time>
      </trkpt>
      <trkpt lat="44.01606" lon="4.33885">
        <ele>182.2</ele>
        <time>2014-10-26T10:31:53Z</time>
      </trkpt>
      <trkpt lat="44.01599" lon="4.33893">
        <ele>182.1</ele>
        <time>2014-10-26T10:32:04Z</time>
      </trkpt>
      <trkpt lat="44.0159" lon="4.33899">
        <ele>181.9</ele>
        <time>2014-10-26T10:32:28Z</time>
      </trkpt>
      <trkpt lat="44.01581" lon="4.33904">
        <ele>181.6</ele>
        <time>2014-10-26T10:32:34Z</time>
      </trkpt>
      <trkpt lat="44.01573" lon="4.33915">
        <ele>180.8</ele>
        <time>2014-10-26T10:32:40Z</time>
      </trkpt>
      <trkpt lat="44.01566" lon="4.33925">
        <ele>180</ele>
        <time>2014-10-26T10:32:46Z</time>
      </trkpt>
      <trkpt lat="44.01558" lon="4.33931">
        <ele>178.8</ele>
        <time>2014-10-26T10:32:53Z</time>
      </trkpt>
      <trkpt lat="44.01549" lon="4.33934">
        <ele>177.5</ele>
        <time>2014-10-26T10:33:00Z</time>
      </trkpt>
      <trkpt lat="44.0154" lon="4.33939">
        <ele>177.3</ele>
        <time>2014-10-26T10:33:04Z</time>
      </trkpt>
      <trkpt lat="44.01531" lon="4.33943">
        <ele>176.4</ele>
        <time>2014-10-26T10:33:09Z</time>
      </trkpt>
      <trkpt lat="44.01522" lon="4.33943">
        <ele>175.9</ele>
        <time>2014-10-26T10:33:16Z</time>
      </trkpt>
      <trkpt lat="44.01513" lon="4.33944">
        <ele>175.1</ele>
        <time>2014-10-26T10:33:25Z</time>
      </trkpt>
      <trkpt lat="44.01503" lon="4.33943">
        <ele>174.6</ele>
        <time>2014-10-26T10:33:32Z</time>
      </trkpt>
      <trkpt lat="44.01493" lon="4.33942">
        <ele>173.6</ele>
        <time>2014-10-26T10:33:36Z</time>
      </trkpt>
      <trkpt lat="44.01483" lon="4.33946">
        <ele>173.6</ele>
        <time>2014-10-26T10:33:42Z</time>
      </trkpt>
      <trkpt lat="44.01474" lon="4.33949">
        <ele>172.8</ele>
        <time>2014-10-26T10:33:48Z</time>
      </trkpt>
      <trkpt lat="44.01465" lon="4.33952">
        <ele>172.1</ele>
        <time>2014-10-26T10:33:54Z</time>
      </trkpt>
      <trkpt lat="44.01455" lon="4.33954">
        <ele>171</ele>
        <time>2014-10-26T10:33:59Z</time>
      </trkpt>
      <trkpt lat="44.01443" lon="4.33953">
        <ele>170.1</ele>
        <time>2014-10-26T10:34:06Z</time>
      </trkpt>
      <trkpt lat="44.01433" lon="4.33955">
        <ele>169.9</ele>
        <time>2014-10-26T10:34:11Z</time>
      </trkpt>
      <trkpt lat="44.01423" lon="4.33957">
        <ele>170.4</ele>
        <time>2014-10-26T10:34:17Z</time>
      </trkpt>
      <trkpt lat="44.01412" lon="4.33956">
        <ele>169.7</ele>
        <time>2014-10-26T10:34:23Z</time>
      </trkpt>
      <trkpt lat="44.01401" lon="4.33957">
        <ele>170.1</ele>
        <time>2014-10-26T10:34:29Z</time>
      </trkpt>
      <trkpt lat="44.01392" lon="4.33961">
        <ele>170.1</ele>
        <time>2014-10-26T10:34:35Z</time>
      </trkpt>
      <trkpt lat="44.01382" lon="4.33959">
        <ele>169.6</ele>
        <time>2014-10-26T10:34:41Z</time>
      </trkpt>
      <trkpt lat="44.01373" lon="4.33953">
        <ele>170.3</ele>
        <time>2014-10-26T10:34:47Z</time>
      </trkpt>
      <trkpt lat="44.01363" lon="4.33949">
        <ele>170.7</ele>
        <time>2014-10-26T10:34:53Z</time>
      </trkpt>
      <trkpt lat="44.01353" lon="4.33946">
        <ele>170.9</ele>
        <time>2014-10-26T10:34:58Z</time>
      </trkpt>
      <trkpt lat="44.01343" lon="4.33943">
        <ele>170.5</ele>
        <time>2014-10-26T10:35:04Z</time>
      </trkpt>
      <trkpt lat="44.01334" lon="4.33944">
        <ele>170.1</ele>
        <time>2014-10-26T10:35:11Z</time>
      </trkpt>
      <trkpt lat="44.01324" lon="4.33943">
        <ele>169.5</ele>
        <time>2014-10-26T10:35:16Z</time>
      </trkpt>
      <trkpt lat="44.01314" lon="4.33943">
        <ele>168.9</ele>
        <time>2014-10-26T10:35:22Z</time>
      </trkpt>
      <trkpt lat="44.01305" lon="4.33938">
        <ele>168.9</ele>
        <time>2014-10-26T10:35:27Z</time>
      </trkpt>
      <trkpt lat="44.01295" lon="4.33933">
        <ele>168.3</ele>
        <time>2014-10-26T10:35:33Z</time>
      </trkpt>
      <trkpt lat="44.01285" lon="4.33926">
        <ele>168.4</ele>
        <time>2014-10-26T10:35:39Z</time>
      </trkpt>
      <trkpt lat="44.0128" lon="4.33915">
        <ele>168</ele>
        <time>2014-10-26T10:35:45Z</time>
      </trkpt>
      <trkpt lat="44.01276" lon="4.33902">
        <ele>168.3</ele>
        <time>2014-10-26T10:35:54Z</time>
      </trkpt>
      <trkpt lat="44.01276" lon="4.33889">
        <ele>168.5</ele>
        <time>2014-10-26T10:36:01Z</time>
      </trkpt>
      <trkpt lat="44.01274" lon="4.33877">
        <ele>168.8</ele>
        <time>2014-10-26T10:36:06Z</time>
      </trkpt>
      <trkpt lat="44.01268" lon="4.33864">
        <ele>169</ele>
        <time>2014-10-26T10:36:11Z</time>
      </trkpt>
      <trkpt lat="44.01259" lon="4.33858">
        <ele>168.7</ele>
        <time>2014-10-26T10:36:17Z</time>
      </trkpt>
      <trkpt lat="44.01251" lon="4.33852">
        <ele>168.1</ele>
        <time>2014-10-26T10:36:23Z</time>
      </trkpt>
      <trkpt lat="44.01241" lon="4.33846">
        <ele>167.9</ele>
        <time>2014-10-26T10:36:29Z</time>
      </trkpt>
      <trkpt lat="44.01232" lon="4.3384">
        <ele>167.2</ele>
        <time>2014-10-26T10:36:36Z</time>
      </trkpt>
      <trkpt lat="44.01223" lon="4.33835">
        <ele>166.5</ele>
        <time>2014-10-26T10:36:42Z</time>
      </trkpt>
      <trkpt lat="44.01215" lon="4.33827">
        <ele>165.7</ele>
        <time>2014-10-26T10:36:48Z</time>
      </trkpt>
      <trkpt lat="44.01207" lon="4.3382">
        <ele>165.2</ele>
        <time>2014-10-26T10:36:54Z</time>
      </trkpt>
      <trkpt lat="44.01199" lon="4.33814">
        <ele>164.3</ele>
        <time>2014-10-26T10:37:00Z</time>
      </trkpt>
      <trkpt lat="44.0119" lon="4.33806">
        <ele>163.5</ele>
        <time>2014-10-26T10:37:06Z</time>
      </trkpt>
      <trkpt lat="44.01182" lon="4.33797">
        <ele>163</ele>
        <time>2014-10-26T10:37:10Z</time>
      </trkpt>
      <trkpt lat="44.01173" lon="4.3379">
        <ele>162.2</ele>
        <time>2014-10-26T10:37:17Z</time>
      </trkpt>
      <trkpt lat="44.01166" lon="4.33781">
        <ele>160.9</ele>
        <time>2014-10-26T10:37:24Z</time>
      </trkpt>
      <trkpt lat="44.01158" lon="4.33773">
        <ele>159.9</ele>
        <time>2014-10-26T10:37:29Z</time>
      </trkpt>
      <trkpt lat="44.0115" lon="4.33767">
        <ele>159.3</ele>
        <time>2014-10-26T10:37:34Z</time>
      </trkpt>
      <trkpt lat="44.01142" lon="4.33759">
        <ele>158.3</ele>
        <time>2014-10-26T10:37:40Z</time>
      </trkpt>
      <trkpt lat="44.01134" lon="4.3375">
        <ele>157.7</ele>
        <time>2014-10-26T10:37:46Z</time>
      </trkpt>
      <trkpt lat="44.01125" lon="4.33744">
        <ele>156.1</ele>
        <time>2014-10-26T10:37:52Z</time>
      </trkpt>
      <trkpt lat="44.01117" lon="4.33736">
        <ele>155</ele>
        <time>2014-10-26T10:37:58Z</time>
      </trkpt>
      <trkpt lat="44.01108" lon="4.3373">
        <ele>154.3</ele>
        <time>2014-10-26T10:38:04Z</time>
      </trkpt>
      <trkpt lat="44.01099" lon="4.33724">
        <ele>153.2</ele>
        <time>2014-10-26T10:38:10Z</time>
      </trkpt>
      <trkpt lat="44.01091" lon="4.33718">
        <ele>152.2</ele>
        <time>2014-10-26T10:38:15Z</time>
      </trkpt>
      <trkpt lat="44.01083" lon="4.33709">
        <ele>150.6</ele>
        <time>2014-10-26T10:38:22Z</time>
      </trkpt>
      <trkpt lat="44.01077" lon="4.33699">
        <ele>149.2</ele>
        <time>2014-10-26T10:38:29Z</time>
      </trkpt>
      <trkpt lat="44.01069" lon="4.33691">
        <ele>147.5</ele>
        <time>2014-10-26T10:38:35Z</time>
      </trkpt>
      <trkpt lat="44.01062" lon="4.33684">
        <ele>146.5</ele>
        <time>2014-10-26T10:38:40Z</time>
      </trkpt>
      <trkpt lat="44.01052" lon="4.33678">
        <ele>145</ele>
        <time>2014-10-26T10:38:45Z</time>
      </trkpt>
      <trkpt lat="44.01042" lon="4.33673">
        <ele>143.7</ele>
        <time>2014-10-26T10:38:50Z</time>
      </trkpt>
      <trkpt lat="44.01034" lon="4.33665">
        <ele>141.9</ele>
        <time>2014-10-26T10:38:57Z</time>
      </trkpt>
      <trkpt lat="44.01026" lon="4.33659">
        <ele>140.7</ele>
        <time>2014-10-26T10:39:03Z</time>
      </trkpt>
      <trkpt lat="44.01017" lon="4.33652">
        <ele>138.3</ele>
        <time>2014-10-26T10:39:12Z</time>
      </trkpt>
      <trkpt lat="44.01009" lon="4.33645">
        <ele>137.3</ele>
        <time>2014-10-26T10:39:18Z</time>
      </trkpt>
      <trkpt lat="44.00999" lon="4.33642">
        <ele>136</ele>
        <time>2014-10-26T10:39:24Z</time>
      </trkpt>
      <trkpt lat="44.00991" lon="4.33635">
        <ele>134.8</ele>
        <time>2014-10-26T10:39:33Z</time>
      </trkpt>
      <trkpt lat="44.00984" lon="4.33625">
        <ele>133.2</ele>
        <time>2014-10-26T10:39:41Z</time>
      </trkpt>
      <trkpt lat="44.00975" lon="4.33619">
        <ele>131.6</ele>
        <time>2014-10-26T10:39:49Z</time>
      </trkpt>
      <trkpt lat="44.00973" lon="4.33633">
        <ele>131.1</ele>
        <time>2014-10-26T10:39:57Z</time>
      </trkpt>
      <trkpt lat="44.00965" lon="4.33644">
        <ele>131.7</ele>
        <time>2014-10-26T10:40:17Z</time>
      </trkpt>
      <trkpt lat="44.0096" lon="4.33658">
        <ele>132.2</ele>
        <time>2014-10-26T10:41:12Z</time>
      </trkpt>
      <trkpt lat="44.00971" lon="4.33662">
        <ele>133.3</ele>
        <time>2014-10-26T10:41:41Z</time>
      </trkpt>
      <trkpt lat="44.0098" lon="4.3366">
        <ele>133.8</ele>
        <time>2014-10-26T10:41:48Z</time>
      </trkpt>
      <trkpt lat="44.00989" lon="4.33666">
        <ele>134.6</ele>
        <time>2014-10-26T10:41:55Z</time>
      </trkpt>
      <trkpt lat="44.00995" lon="4.33676">
        <ele>135.4</ele>
        <time>2014-10-26T10:42:02Z</time>
      </trkpt>
      <trkpt lat="44.00995" lon="4.33688">
        <ele>136.1</ele>
        <time>2014-10-26T10:42:09Z</time>
      </trkpt>
      <trkpt lat="44.00993" lon="4.33693">
        <ele>136.4</ele>
        <time>2014-10-26T10:42:37Z</time>
      </trkpt>
      <trkpt lat="44.00988" lon="4.33703">
        <ele>136.9</ele>
        <time>2014-10-26T10:45:07Z</time>
      </trkpt>
      <trkpt lat="44.00997" lon="4.33704">
        <ele>138.9</ele>
        <time>2014-10-26T10:49:31Z</time>
      </trkpt>
      <trkpt lat="44.01003" lon="4.33714">
        <ele>138.5</ele>
        <time>2014-10-26T10:50:04Z</time>
      </trkpt>
      <trkpt lat="44.01009" lon="4.33723">
        <ele>138.6</ele>
        <time>2014-10-26T10:50:52Z</time>
      </trkpt>
      <trkpt lat="44.01021" lon="4.33728">
        <ele>137</ele>
        <time>2014-10-26T10:51:47Z</time>
      </trkpt>
      <trkpt lat="44.0103" lon="4.33723">
        <ele>139.2</ele>
        <time>2014-10-26T10:52:40Z</time>
      </trkpt>
      <trkpt lat="44.01039" lon="4.33718">
        <ele>140.4</ele>
        <time>2014-10-26T10:52:51Z</time>
      </trkpt>
      <trkpt lat="44.01037" lon="4.33705">
        <ele>140.7</ele>
        <time>2014-10-26T10:53:10Z</time>
      </trkpt>
      <trkpt lat="44.01031" lon="4.33696">
        <ele>140.3</ele>
        <time>2014-10-26T10:53:23Z</time>
      </trkpt>
      <trkpt lat="44.01023" lon="4.33688">
        <ele>139.4</ele>
        <time>2014-10-26T10:53:34Z</time>
      </trkpt>
      <trkpt lat="44.01019" lon="4.33676">
        <ele>139.8</ele>
        <time>2014-10-26T10:53:56Z</time>
      </trkpt>
      <trkpt lat="44.01012" lon="4.33668">
        <ele>140.8</ele>
        <time>2014-10-26T10:54:14Z</time>
      </trkpt>
      <trkpt lat="44.01002" lon="4.33664">
        <ele>139.9</ele>
        <time>2014-10-26T10:54:24Z</time>
      </trkpt>
      <trkpt lat="44.00991" lon="4.33658">
        <ele>139.4</ele>
        <time>2014-10-26T10:54:50Z</time>
      </trkpt>
      <trkpt lat="44.00983" lon="4.33665">
        <ele>129.1</ele>
        <time>2014-10-26T11:05:15Z</time>
      </trkpt>
      <trkpt lat="44.00974" lon="4.33668">
        <ele>127.3</ele>
        <time>2014-10-26T11:06:13Z</time>
      </trkpt>
      <trkpt lat="44.00992" lon="4.3366">
        <ele>124</ele>
        <time>2014-10-26T11:08:38Z</time>
      </trkpt>
      <trkpt lat="44.01002" lon="4.33656">
        <ele>112.7</ele>
        <time>2014-10-26T11:16:33Z</time>
      </trkpt>
      <trkpt lat="44.01024" lon="4.33641">
        <ele>98</ele>
        <time>2014-10-26T11:26:24Z</time>
      </trkpt>
      <trkpt lat="44.00991" lon="4.33671">
        <ele>96</ele>
        <time>2014-10-26T11:31:39Z</time>
      </trkpt>
      <trkpt lat="44.00995" lon="4.33659">
        <ele>96</ele>
        <time>2014-10-26T11:33:59Z</time>
      </trkpt>
      <trkpt lat="44.00997" lon="4.33672">
        <ele>99.8</ele>
        <time>2014-10-26T12:03:40Z</time>
      </trkpt>
      <trkpt lat="44.01001" lon="4.33687">
        <ele>98.2</ele>
        <time>2014-10-26T12:04:29Z</time>
      </trkpt>
      <trkpt lat="44.01" lon="4.337">
        <ele>98.4</ele>
        <time>2014-10-26T12:04:43Z</time>
      </trkpt>
      <trkpt lat="44.00993" lon="4.33709">
        <ele>98.1</ele>
        <time>2014-10-26T12:04:58Z</time>
      </trkpt>
      <trkpt lat="44.01" lon="4.337">
        <ele>98.5</ele>
        <time>2014-10-26T12:11:11Z</time>
      </trkpt>
      <trkpt lat="44.00999" lon="4.33687">
        <ele>98.6</ele>
        <time>2014-10-26T12:11:26Z</time>
      </trkpt>
      <trkpt lat="44.00992" lon="4.33679">
        <ele>97.2</ele>
        <time>2014-10-26T12:11:35Z</time>
      </trkpt>
      <trkpt lat="44.00985" lon="4.3367">
        <ele>96.3</ele>
        <time>2014-10-26T12:11:45Z</time>
      </trkpt>
      <trkpt lat="44.0098" lon="4.33658">
        <ele>96</ele>
        <time>2014-10-26T12:11:57Z</time>
      </trkpt>
      <trkpt lat="44.00975" lon="4.33647">
        <ele>95.5</ele>
        <time>2014-10-26T12:12:05Z</time>
      </trkpt>
      <trkpt lat="44.00975" lon="4.33634">
        <ele>95.2</ele>
        <time>2014-10-26T12:12:16Z</time>
      </trkpt>
      <trkpt lat="44.00984" lon="4.3363">
        <ele>97.1</ele>
        <time>2014-10-26T12:12:35Z</time>
      </trkpt>
      <trkpt lat="44.00991" lon="4.33639">
        <ele>98.3</ele>
        <time>2014-10-26T12:12:44Z</time>
      </trkpt>
      <trkpt lat="44.00996" lon="4.3365">
        <ele>100.2</ele>
        <time>2014-10-26T12:12:57Z</time>
      </trkpt>
      <trkpt lat="44.00994" lon="4.33662">
        <ele>99.8</ele>
        <time>2014-10-26T12:13:08Z</time>
      </trkpt>
      <trkpt lat="44.00998" lon="4.33674">
        <ele>100.1</ele>
        <time>2014-10-26T12:13:17Z</time>
      </trkpt>
      <trkpt lat="44.01007" lon="4.33681">
        <ele>100.8</ele>
        <time>2014-10-26T12:13:26Z</time>
      </trkpt>
      <trkpt lat="44.01016" lon="4.33686">
        <ele>101.9</ele>
        <time>2014-10-26T12:13:38Z</time>
      </trkpt>
      <trkpt lat="44.01024" lon="4.33693">
        <ele>102.6</ele>
        <time>2014-10-26T12:13:49Z</time>
      </trkpt>
      <trkpt lat="44.01033" lon="4.33698">
        <ele>103.4</ele>
        <time>2014-10-26T12:13:57Z</time>
      </trkpt>
      <trkpt lat="44.01037" lon="4.3371">
        <ele>103.2</ele>
        <time>2014-10-26T12:14:08Z</time>
      </trkpt>
      <trkpt lat="44.01041" lon="4.33722">
        <ele>102.5</ele>
        <time>2014-10-26T12:14:18Z</time>
      </trkpt>
      <trkpt lat="44.01041" lon="4.33735">
        <ele>101.6</ele>
        <time>2014-10-26T12:14:27Z</time>
      </trkpt>
      <trkpt lat="44.01043" lon="4.33748">
        <ele>100</ele>
        <time>2014-10-26T12:14:39Z</time>
      </trkpt>
      <trkpt lat="44.01041" lon="4.33761">
        <ele>99</ele>
        <time>2014-10-26T12:14:51Z</time>
      </trkpt>
      <trkpt lat="44.01032" lon="4.33763">
        <ele>98.7</ele>
        <time>2014-10-26T12:15:30Z</time>
      </trkpt>
      <trkpt lat="44.0103" lon="4.3376">
        <ele>99.9</ele>
        <time>2014-10-26T12:17:45Z</time>
      </trkpt>
      <trkpt lat="44.01012" lon="4.33738">
        <ele>101</ele>
        <time>2014-10-26T12:23:04Z</time>
      </trkpt>
      <trkpt lat="44.01003" lon="4.33734">
        <ele>101.8</ele>
        <time>2014-10-26T12:23:09Z</time>
      </trkpt>
      <trkpt lat="44.00994" lon="4.33728">
        <ele>101.8</ele>
        <time>2014-10-26T12:23:16Z</time>
      </trkpt>
      <trkpt lat="44.00986" lon="4.33722">
        <ele>101.8</ele>
        <time>2014-10-26T12:23:23Z</time>
      </trkpt>
      <trkpt lat="44.00977" lon="4.33715">
        <ele>101.9</ele>
        <time>2014-10-26T12:23:30Z</time>
      </trkpt>
      <trkpt lat="44.00969" lon="4.33709">
        <ele>102.3</ele>
        <time>2014-10-26T12:23:35Z</time>
      </trkpt>
      <trkpt lat="44.0096" lon="4.33705">
        <ele>102.7</ele>
        <time>2014-10-26T12:23:42Z</time>
      </trkpt>
      <trkpt lat="44.00953" lon="4.33698">
        <ele>103</ele>
        <time>2014-10-26T12:23:47Z</time>
      </trkpt>
      <trkpt lat="44.00947" lon="4.33689">
        <ele>103.3</ele>
        <time>2014-10-26T12:23:53Z</time>
      </trkpt>
      <trkpt lat="44.00939" lon="4.33679">
        <ele>104.3</ele>
        <time>2014-10-26T12:24:01Z</time>
      </trkpt>
      <trkpt lat="44.00931" lon="4.33671">
        <ele>104.6</ele>
        <time>2014-10-26T12:24:07Z</time>
      </trkpt>
      <trkpt lat="44.00925" lon="4.3366">
        <ele>105.3</ele>
        <time>2014-10-26T12:24:14Z</time>
      </trkpt>
      <trkpt lat="44.00919" lon="4.3365">
        <ele>105.2</ele>
        <time>2014-10-26T12:24:21Z</time>
      </trkpt>
      <trkpt lat="44.00915" lon="4.33638">
        <ele>104.6</ele>
        <time>2014-10-26T12:24:28Z</time>
      </trkpt>
      <trkpt lat="44.00913" lon="4.33625">
        <ele>104.4</ele>
        <time>2014-10-26T12:24:35Z</time>
      </trkpt>
      <trkpt lat="44.00908" lon="4.33613">
        <ele>104</ele>
        <time>2014-10-26T12:24:41Z</time>
      </trkpt>
      <trkpt lat="44.00903" lon="4.33601">
        <ele>103.8</ele>
        <time>2014-10-26T12:24:47Z</time>
      </trkpt>
      <trkpt lat="44.00897" lon="4.3359">
        <ele>102.7</ele>
        <time>2014-10-26T12:24:54Z</time>
      </trkpt>
      <trkpt lat="44.00888" lon="4.33585">
        <ele>102</ele>
        <time>2014-10-26T12:25:00Z</time>
      </trkpt>
      <trkpt lat="44.00879" lon="4.33579">
        <ele>101.2</ele>
        <time>2014-10-26T12:25:06Z</time>
      </trkpt>
      <trkpt lat="44.00871" lon="4.3357">
        <ele>101.6</ele>
        <time>2014-10-26T12:25:13Z</time>
      </trkpt>
      <trkpt lat="44.00862" lon="4.33563">
        <ele>100.5</ele>
        <time>2014-10-26T12:25:21Z</time>
      </trkpt>
      <trkpt lat="44.00853" lon="4.33558">
        <ele>100.4</ele>
        <time>2014-10-26T12:25:29Z</time>
      </trkpt>
      <trkpt lat="44.00846" lon="4.33549">
        <ele>100.1</ele>
        <time>2014-10-26T12:25:33Z</time>
      </trkpt>
      <trkpt lat="44.00836" lon="4.33547">
        <ele>99.3</ele>
        <time>2014-10-26T12:25:40Z</time>
      </trkpt>
      <trkpt lat="44.00828" lon="4.3354">
        <ele>98.8</ele>
        <time>2014-10-26T12:25:50Z</time>
      </trkpt>
      <trkpt lat="44.00822" lon="4.33529">
        <ele>97.7</ele>
        <time>2014-10-26T12:25:57Z</time>
      </trkpt>
      <trkpt lat="44.00815" lon="4.3352">
        <ele>97.4</ele>
        <time>2014-10-26T12:26:00Z</time>
      </trkpt>
      <trkpt lat="44.00808" lon="4.33512">
        <ele>96.9</ele>
        <time>2014-10-26T12:26:07Z</time>
      </trkpt>
      <trkpt lat="44.008" lon="4.33504">
        <ele>96.2</ele>
        <time>2014-10-26T12:26:14Z</time>
      </trkpt>
      <trkpt lat="44.0079" lon="4.33498">
        <ele>95.5</ele>
        <time>2014-10-26T12:26:19Z</time>
      </trkpt>
      <trkpt lat="44.00781" lon="4.33496">
        <ele>95.1</ele>
        <time>2014-10-26T12:26:25Z</time>
      </trkpt>
      <trkpt lat="44.00771" lon="4.33495">
        <ele>94.2</ele>
        <time>2014-10-26T12:26:32Z</time>
      </trkpt>
      <trkpt lat="44.00761" lon="4.33494">
        <ele>94.5</ele>
        <time>2014-10-26T12:26:38Z</time>
      </trkpt>
      <trkpt lat="44.00751" lon="4.33489">
        <ele>93.7</ele>
        <time>2014-10-26T12:26:45Z</time>
      </trkpt>
      <trkpt lat="44.00743" lon="4.33483">
        <ele>92.9</ele>
        <time>2014-10-26T12:26:52Z</time>
      </trkpt>
      <trkpt lat="44.00737" lon="4.33472">
        <ele>92</ele>
        <time>2014-10-26T12:26:59Z</time>
      </trkpt>
      <trkpt lat="44.00729" lon="4.33465">
        <ele>90.4</ele>
        <time>2014-10-26T12:27:07Z</time>
      </trkpt>
      <trkpt lat="44.00721" lon="4.33459">
        <ele>89</ele>
        <time>2014-10-26T12:27:13Z</time>
      </trkpt>
      <trkpt lat="44.00712" lon="4.33452">
        <ele>88.2</ele>
        <time>2014-10-26T12:27:19Z</time>
      </trkpt>
      <trkpt lat="44.00703" lon="4.33447">
        <ele>87.1</ele>
        <time>2014-10-26T12:27:25Z</time>
      </trkpt>
      <trkpt lat="44.00694" lon="4.33446">
        <ele>86.8</ele>
        <time>2014-10-26T12:27:32Z</time>
      </trkpt>
      <trkpt lat="44.00683" lon="4.33446">
        <ele>86.1</ele>
        <time>2014-10-26T12:27:39Z</time>
      </trkpt>
      <trkpt lat="44.00674" lon="4.33444">
        <ele>86.2</ele>
        <time>2014-10-26T12:27:44Z</time>
      </trkpt>
      <trkpt lat="44.00665" lon="4.33443">
        <ele>85.9</ele>
        <time>2014-10-26T12:27:48Z</time>
      </trkpt>
      <trkpt lat="44.00656" lon="4.3344">
        <ele>85.9</ele>
        <time>2014-10-26T12:27:53Z</time>
      </trkpt>
      <trkpt lat="44.00646" lon="4.33438">
        <ele>85.6</ele>
        <time>2014-10-26T12:28:00Z</time>
      </trkpt>
      <trkpt lat="44.00637" lon="4.3344">
        <ele>86.2</ele>
        <time>2014-10-26T12:28:06Z</time>
      </trkpt>
      <trkpt lat="44.00627" lon="4.33443">
        <ele>86.3</ele>
        <time>2014-10-26T12:28:12Z</time>
      </trkpt>
      <trkpt lat="44.00618" lon="4.33445">
        <ele>85.9</ele>
        <time>2014-10-26T12:28:17Z</time>
      </trkpt>
      <trkpt lat="44.00607" lon="4.33447">
        <ele>85.7</ele>
        <time>2014-10-26T12:28:22Z</time>
      </trkpt>
      <trkpt lat="44.00598" lon="4.33454">
        <ele>85.9</ele>
        <time>2014-10-26T12:28:29Z</time>
      </trkpt>
      <trkpt lat="44.00588" lon="4.33459">
        <ele>85.6</ele>
        <time>2014-10-26T12:28:34Z</time>
      </trkpt>
      <trkpt lat="44.00579" lon="4.33462">
        <ele>85.1</ele>
        <time>2014-10-26T12:28:39Z</time>
      </trkpt>
      <trkpt lat="44.00571" lon="4.33468">
        <ele>84.7</ele>
        <time>2014-10-26T12:28:45Z</time>
      </trkpt>
      <trkpt lat="44.00562" lon="4.33469">
        <ele>85</ele>
        <time>2014-10-26T12:28:51Z</time>
      </trkpt>
      <trkpt lat="44.00553" lon="4.33476">
        <ele>84.9</ele>
        <time>2014-10-26T12:28:59Z</time>
      </trkpt>
      <trkpt lat="44.00544" lon="4.33482">
        <ele>84.9</ele>
        <time>2014-10-26T12:29:06Z</time>
      </trkpt>
      <trkpt lat="44.00535" lon="4.3349">
        <ele>84.9</ele>
        <time>2014-10-26T12:29:13Z</time>
      </trkpt>
      <trkpt lat="44.00524" lon="4.33491">
        <ele>84.8</ele>
        <time>2014-10-26T12:29:18Z</time>
      </trkpt>
      <trkpt lat="44.00516" lon="4.33497">
        <ele>84.4</ele>
        <time>2014-10-26T12:29:23Z</time>
      </trkpt>
      <trkpt lat="44.00506" lon="4.33497">
        <ele>84.5</ele>
        <time>2014-10-26T12:29:27Z</time>
      </trkpt>
      <trkpt lat="44.00497" lon="4.33498">
        <ele>84.8</ele>
        <time>2014-10-26T12:29:32Z</time>
      </trkpt>
      <trkpt lat="44.00487" lon="4.33503">
        <ele>84.5</ele>
        <time>2014-10-26T12:29:39Z</time>
      </trkpt>
      <trkpt lat="44.00478" lon="4.3351">
        <ele>84.4</ele>
        <time>2014-10-26T12:29:45Z</time>
      </trkpt>
      <trkpt lat="44.00469" lon="4.33515">
        <ele>84.1</ele>
        <time>2014-10-26T12:29:50Z</time>
      </trkpt>
      <trkpt lat="44.00459" lon="4.33517">
        <ele>84.8</ele>
        <time>2014-10-26T12:29:55Z</time>
      </trkpt>
      <trkpt lat="44.0045" lon="4.33521">
        <ele>84.5</ele>
        <time>2014-10-26T12:30:00Z</time>
      </trkpt>
      <trkpt lat="44.00441" lon="4.33526">
        <ele>84.3</ele>
        <time>2014-10-26T12:30:06Z</time>
      </trkpt>
      <trkpt lat="44.00432" lon="4.33533">
        <ele>84.1</ele>
        <time>2014-10-26T12:30:12Z</time>
      </trkpt>
      <trkpt lat="44.00423" lon="4.33539">
        <ele>84.6</ele>
        <time>2014-10-26T12:30:17Z</time>
      </trkpt>
      <trkpt lat="44.00415" lon="4.33546">
        <ele>84.8</ele>
        <time>2014-10-26T12:30:23Z</time>
      </trkpt>
      <trkpt lat="44.00406" lon="4.33551">
        <ele>85</ele>
        <time>2014-10-26T12:30:29Z</time>
      </trkpt>
      <trkpt lat="44.00398" lon="4.3356">
        <ele>84.8</ele>
        <time>2014-10-26T12:30:35Z</time>
      </trkpt>
      <trkpt lat="44.0039" lon="4.33569">
        <ele>85</ele>
        <time>2014-10-26T12:30:40Z</time>
      </trkpt>
      <trkpt lat="44.00381" lon="4.33575">
        <ele>85.3</ele>
        <time>2014-10-26T12:30:45Z</time>
      </trkpt>
      <trkpt lat="44.00372" lon="4.33581">
        <ele>85.5</ele>
        <time>2014-10-26T12:31:07Z</time>
      </trkpt>
      <trkpt lat="44.00363" lon="4.33583">
        <ele>85.4</ele>
        <time>2014-10-26T12:31:57Z</time>
      </trkpt>
      <trkpt lat="44.00355" lon="4.33587">
        <ele>85.1</ele>
        <time>2014-10-26T12:32:04Z</time>
      </trkpt>
      <trkpt lat="44.0035" lon="4.33601">
        <ele>85.9</ele>
        <time>2014-10-26T12:32:12Z</time>
      </trkpt>
      <trkpt lat="44.00348" lon="4.33615">
        <ele>86</ele>
        <time>2014-10-26T12:32:19Z</time>
      </trkpt>
      <trkpt lat="44.00342" lon="4.33626">
        <ele>86.5</ele>
        <time>2014-10-26T12:32:26Z</time>
      </trkpt>
      <trkpt lat="44.00333" lon="4.33631">
        <ele>86.4</ele>
        <time>2014-10-26T12:32:32Z</time>
      </trkpt>
      <trkpt lat="44.00326" lon="4.3364">
        <ele>86.1</ele>
        <time>2014-10-26T12:32:41Z</time>
      </trkpt>
      <trkpt lat="44.00317" lon="4.33644">
        <ele>85.4</ele>
        <time>2014-10-26T12:32:46Z</time>
      </trkpt>
      <trkpt lat="44.00307" lon="4.33645">
        <ele>85</ele>
        <time>2014-10-26T12:32:52Z</time>
      </trkpt>
      <trkpt lat="44.00297" lon="4.33643">
        <ele>85</ele>
        <time>2014-10-26T12:32:56Z</time>
      </trkpt>
      <trkpt lat="44.00287" lon="4.33643">
        <ele>85.1</ele>
        <time>2014-10-26T12:33:01Z</time>
      </trkpt>
      <trkpt lat="44.00278" lon="4.33646">
        <ele>84.7</ele>
        <time>2014-10-26T12:33:06Z</time>
      </trkpt>
      <trkpt lat="44.00268" lon="4.33649">
        <ele>84.4</ele>
        <time>2014-10-26T12:33:12Z</time>
      </trkpt>
      <trkpt lat="44.00259" lon="4.33653">
        <ele>84.5</ele>
        <time>2014-10-26T12:33:17Z</time>
      </trkpt>
      <trkpt lat="44.0025" lon="4.33658">
        <ele>84.4</ele>
        <time>2014-10-26T12:33:23Z</time>
      </trkpt>
      <trkpt lat="44.00243" lon="4.33667">
        <ele>84.1</ele>
        <time>2014-10-26T12:33:28Z</time>
      </trkpt>
      <trkpt lat="44.00238" lon="4.33679">
        <ele>84.2</ele>
        <time>2014-10-26T12:33:34Z</time>
      </trkpt>
      <trkpt lat="44.00239" lon="4.33692">
        <ele>84.2</ele>
        <time>2014-10-26T12:33:41Z</time>
      </trkpt>
      <trkpt lat="44.00242" lon="4.33705">
        <ele>84.6</ele>
        <time>2014-10-26T12:33:48Z</time>
      </trkpt>
      <trkpt lat="44.0024" lon="4.33719">
        <ele>84.6</ele>
        <time>2014-10-26T12:33:54Z</time>
      </trkpt>
      <trkpt lat="44.00234" lon="4.3373">
        <ele>85.1</ele>
        <time>2014-10-26T12:34:02Z</time>
      </trkpt>
      <trkpt lat="44.00225" lon="4.33737">
        <ele>85.1</ele>
        <time>2014-10-26T12:34:09Z</time>
      </trkpt>
      <trkpt lat="44.00217" lon="4.33744">
        <ele>84.9</ele>
        <time>2014-10-26T12:34:15Z</time>
      </trkpt>
      <trkpt lat="44.00209" lon="4.33751">
        <ele>84.3</ele>
        <time>2014-10-26T12:34:21Z</time>
      </trkpt>
      <trkpt lat="44.002" lon="4.3376">
        <ele>84.5</ele>
        <time>2014-10-26T12:34:27Z</time>
      </trkpt>
      <trkpt lat="44.00192" lon="4.33766">
        <ele>84.4</ele>
        <time>2014-10-26T12:34:33Z</time>
      </trkpt>
      <trkpt lat="44.00185" lon="4.33774">
        <ele>84.7</ele>
        <time>2014-10-26T12:34:39Z</time>
      </trkpt>
      <trkpt lat="44.00177" lon="4.33783">
        <ele>84.4</ele>
        <time>2014-10-26T12:34:46Z</time>
      </trkpt>
      <trkpt lat="44.00169" lon="4.33792">
        <ele>85.2</ele>
        <time>2014-10-26T12:34:52Z</time>
      </trkpt>
      <trkpt lat="44.00166" lon="4.33804">
        <ele>85.2</ele>
        <time>2014-10-26T12:34:59Z</time>
      </trkpt>
      <trkpt lat="44.00162" lon="4.33816">
        <ele>86.1</ele>
        <time>2014-10-26T12:35:07Z</time>
      </trkpt>
      <trkpt lat="44.00158" lon="4.33829">
        <ele>86.3</ele>
        <time>2014-10-26T12:35:13Z</time>
      </trkpt>
      <trkpt lat="44.00156" lon="4.33842">
        <ele>86.3</ele>
        <time>2014-10-26T12:35:19Z</time>
      </trkpt>
      <trkpt lat="44.00153" lon="4.33854">
        <ele>86.1</ele>
        <time>2014-10-26T12:35:24Z</time>
      </trkpt>
      <trkpt lat="44.00147" lon="4.33866">
        <ele>86.7</ele>
        <time>2014-10-26T12:35:30Z</time>
      </trkpt>
      <trkpt lat="44.00143" lon="4.33879">
        <ele>86.6</ele>
        <time>2014-10-26T12:35:35Z</time>
      </trkpt>
      <trkpt lat="44.00139" lon="4.33894">
        <ele>86.6</ele>
        <time>2014-10-26T12:35:41Z</time>
      </trkpt>
      <trkpt lat="44.00142" lon="4.33909">
        <ele>86.4</ele>
        <time>2014-10-26T12:35:47Z</time>
      </trkpt>
      <trkpt lat="44.00143" lon="4.33922">
        <ele>86.9</ele>
        <time>2014-10-26T12:35:53Z</time>
      </trkpt>
      <trkpt lat="44.00138" lon="4.33933">
        <ele>86.8</ele>
        <time>2014-10-26T12:36:00Z</time>
      </trkpt>
      <trkpt lat="44.00133" lon="4.33944">
        <ele>86.9</ele>
        <time>2014-10-26T12:36:08Z</time>
      </trkpt>
      <trkpt lat="44.00124" lon="4.33948">
        <ele>87.1</ele>
        <time>2014-10-26T12:36:14Z</time>
      </trkpt>
      <trkpt lat="44.00115" lon="4.33947">
        <ele>86.9</ele>
        <time>2014-10-26T12:36:20Z</time>
      </trkpt>
      <trkpt lat="44.00104" lon="4.33948">
        <ele>86.7</ele>
        <time>2014-10-26T12:36:26Z</time>
      </trkpt>
      <trkpt lat="44.00094" lon="4.33946">
        <ele>86.3</ele>
        <time>2014-10-26T12:36:32Z</time>
      </trkpt>
      <trkpt lat="44.00083" lon="4.33944">
        <ele>85.8</ele>
        <time>2014-10-26T12:36:37Z</time>
      </trkpt>
      <trkpt lat="44.00074" lon="4.33944">
        <ele>85.6</ele>
        <time>2014-10-26T12:36:43Z</time>
      </trkpt>
      <trkpt lat="44.00064" lon="4.33944">
        <ele>85.2</ele>
        <time>2014-10-26T12:36:48Z</time>
      </trkpt>
      <trkpt lat="44.00053" lon="4.33943">
        <ele>84.9</ele>
        <time>2014-10-26T12:36:54Z</time>
      </trkpt>
      <trkpt lat="44.00044" lon="4.33944">
        <ele>84.8</ele>
        <time>2014-10-26T12:37:00Z</time>
      </trkpt>
      <trkpt lat="44.00035" lon="4.33945">
        <ele>84.4</ele>
        <time>2014-10-26T12:37:07Z</time>
      </trkpt>
      <trkpt lat="44.00025" lon="4.3395">
        <ele>84.1</ele>
        <time>2014-10-26T12:37:13Z</time>
      </trkpt>
      <trkpt lat="44.00018" lon="4.33958">
        <ele>84.1</ele>
        <time>2014-10-26T12:37:19Z</time>
      </trkpt>
      <trkpt lat="44.0001" lon="4.33966">
        <ele>84.6</ele>
        <time>2014-10-26T12:37:25Z</time>
      </trkpt>
      <trkpt lat="44" lon="4.33971">
        <ele>84.5</ele>
        <time>2014-10-26T12:37:31Z</time>
      </trkpt>
      <trkpt lat="43.9999" lon="4.33975">
        <ele>84.4</ele>
        <time>2014-10-26T12:37:37Z</time>
      </trkpt>
      <trkpt lat="43.99981" lon="4.33979">
        <ele>84.1</ele>
        <time>2014-10-26T12:37:42Z</time>
      </trkpt>
      <trkpt lat="43.99972" lon="4.33984">
        <ele>83.4</ele>
        <time>2014-10-26T12:37:48Z</time>
      </trkpt>
      <trkpt lat="43.99963" lon="4.33988">
        <ele>84.5</ele>
        <time>2014-10-26T12:37:54Z</time>
      </trkpt>
      <trkpt lat="43.99954" lon="4.33993">
        <ele>83.6</ele>
        <time>2014-10-26T12:38:00Z</time>
      </trkpt>
      <trkpt lat="43.99944" lon="4.33999">
        <ele>83.6</ele>
        <time>2014-10-26T12:38:06Z</time>
      </trkpt>
      <trkpt lat="43.99936" lon="4.34004">
        <ele>83.3</ele>
        <time>2014-10-26T12:38:11Z</time>
      </trkpt>
      <trkpt lat="43.99928" lon="4.34011">
        <ele>83.4</ele>
        <time>2014-10-26T12:38:16Z</time>
      </trkpt>
      <trkpt lat="43.99922" lon="4.3402">
        <ele>83</ele>
        <time>2014-10-26T12:38:19Z</time>
      </trkpt>
      <trkpt lat="43.99916" lon="4.34031">
        <ele>83.1</ele>
        <time>2014-10-26T12:38:23Z</time>
      </trkpt>
      <trkpt lat="43.99909" lon="4.3404">
        <ele>83</ele>
        <time>2014-10-26T12:38:29Z</time>
      </trkpt>
      <trkpt lat="43.99902" lon="4.3405">
        <ele>83.2</ele>
        <time>2014-10-26T12:38:34Z</time>
      </trkpt>
      <trkpt lat="43.99897" lon="4.34061">
        <ele>82.9</ele>
        <time>2014-10-26T12:38:40Z</time>
      </trkpt>
      <trkpt lat="43.99889" lon="4.34068">
        <ele>82.8</ele>
        <time>2014-10-26T12:38:45Z</time>
      </trkpt>
      <trkpt lat="43.99882" lon="4.34076">
        <ele>82.7</ele>
        <time>2014-10-26T12:38:50Z</time>
      </trkpt>
      <trkpt lat="43.99874" lon="4.34085">
        <ele>82.9</ele>
        <time>2014-10-26T12:38:56Z</time>
      </trkpt>
      <trkpt lat="43.99866" lon="4.34092">
        <ele>82.9</ele>
        <time>2014-10-26T12:39:02Z</time>
      </trkpt>
      <trkpt lat="43.99859" lon="4.34101">
        <ele>83</ele>
        <time>2014-10-26T12:39:08Z</time>
      </trkpt>
      <trkpt lat="43.99851" lon="4.34109">
        <ele>82.9</ele>
        <time>2014-10-26T12:39:13Z</time>
      </trkpt>
      <trkpt lat="43.99845" lon="4.3412">
        <ele>82.5</ele>
        <time>2014-10-26T12:39:18Z</time>
      </trkpt>
      <trkpt lat="43.99838" lon="4.3413">
        <ele>82.4</ele>
        <time>2014-10-26T12:39:24Z</time>
      </trkpt>
      <trkpt lat="43.99831" lon="4.3414">
        <ele>82.6</ele>
        <time>2014-10-26T12:39:30Z</time>
      </trkpt>
      <trkpt lat="43.99824" lon="4.34149">
        <ele>82.4</ele>
        <time>2014-10-26T12:39:35Z</time>
      </trkpt>
      <trkpt lat="43.99816" lon="4.34157">
        <ele>82.4</ele>
        <time>2014-10-26T12:39:40Z</time>
      </trkpt>
      <trkpt lat="43.99806" lon="4.34164">
        <ele>82.2</ele>
        <time>2014-10-26T12:39:46Z</time>
      </trkpt>
      <trkpt lat="43.99798" lon="4.3417">
        <ele>81.9</ele>
        <time>2014-10-26T12:39:52Z</time>
      </trkpt>
      <trkpt lat="43.99791" lon="4.34178">
        <ele>82.1</ele>
        <time>2014-10-26T12:39:58Z</time>
      </trkpt>
      <trkpt lat="43.99782" lon="4.34187">
        <ele>82.3</ele>
        <time>2014-10-26T12:40:04Z</time>
      </trkpt>
      <trkpt lat="43.99776" lon="4.34198">
        <ele>82.5</ele>
        <time>2014-10-26T12:40:09Z</time>
      </trkpt>
      <trkpt lat="43.9977" lon="4.34208">
        <ele>82.9</ele>
        <time>2014-10-26T12:40:21Z</time>
      </trkpt>
      <trkpt lat="43.99761" lon="4.34203">
        <ele>83.2</ele>
        <time>2014-10-26T12:42:32Z</time>
      </trkpt>
      <trkpt lat="43.99752" lon="4.34196">
        <ele>83</ele>
        <time>2014-10-26T12:42:37Z</time>
      </trkpt>
      <trkpt lat="43.99744" lon="4.34189">
        <ele>82.8</ele>
        <time>2014-10-26T12:42:42Z</time>
      </trkpt>
      <trkpt lat="43.99735" lon="4.34184">
        <ele>82.4</ele>
        <time>2014-10-26T12:42:48Z</time>
      </trkpt>
      <trkpt lat="43.99727" lon="4.34176">
        <ele>83.2</ele>
        <time>2014-10-26T12:42:54Z</time>
      </trkpt>
      <trkpt lat="43.99718" lon="4.34171">
        <ele>82.6</ele>
        <time>2014-10-26T12:43:01Z</time>
      </trkpt>
      <trkpt lat="43.99708" lon="4.34166">
        <ele>82.6</ele>
        <time>2014-10-26T12:43:07Z</time>
      </trkpt>
      <trkpt lat="43.99698" lon="4.3416">
        <ele>82.7</ele>
        <time>2014-10-26T12:43:13Z</time>
      </trkpt>
      <trkpt lat="43.9969" lon="4.34154">
        <ele>81.7</ele>
        <time>2014-10-26T12:43:18Z</time>
      </trkpt>
      <trkpt lat="43.9968" lon="4.34148">
        <ele>82</ele>
        <time>2014-10-26T12:43:23Z</time>
      </trkpt>
      <trkpt lat="43.99672" lon="4.3414">
        <ele>81.9</ele>
        <time>2014-10-26T12:43:30Z</time>
      </trkpt>
      <trkpt lat="43.99664" lon="4.34134">
        <ele>82.4</ele>
        <time>2014-10-26T12:43:35Z</time>
      </trkpt>
      <trkpt lat="43.99655" lon="4.34127">
        <ele>81.9</ele>
        <time>2014-10-26T12:43:41Z</time>
      </trkpt>
      <trkpt lat="43.99646" lon="4.34119">
        <ele>81.1</ele>
        <time>2014-10-26T12:43:47Z</time>
      </trkpt>
      <trkpt lat="43.99638" lon="4.34112">
        <ele>81.9</ele>
        <time>2014-10-26T12:43:53Z</time>
      </trkpt>
      <trkpt lat="43.9963" lon="4.34105">
        <ele>81.9</ele>
        <time>2014-10-26T12:43:58Z</time>
      </trkpt>
      <trkpt lat="43.99622" lon="4.34099">
        <ele>81.6</ele>
        <time>2014-10-26T12:44:04Z</time>
      </trkpt>
      <trkpt lat="43.99613" lon="4.34095">
        <ele>81.4</ele>
        <time>2014-10-26T12:44:10Z</time>
      </trkpt>
      <trkpt lat="43.99604" lon="4.3409">
        <ele>81.6</ele>
        <time>2014-10-26T12:44:16Z</time>
      </trkpt>
      <trkpt lat="43.99594" lon="4.34084">
        <ele>81.6</ele>
        <time>2014-10-26T12:44:22Z</time>
      </trkpt>
      <trkpt lat="43.99585" lon="4.34077">
        <ele>81.3</ele>
        <time>2014-10-26T12:44:28Z</time>
      </trkpt>
      <trkpt lat="43.99577" lon="4.34073">
        <ele>81</ele>
        <time>2014-10-26T12:44:34Z</time>
      </trkpt>
      <trkpt lat="43.99566" lon="4.3407">
        <ele>80.8</ele>
        <time>2014-10-26T12:44:40Z</time>
      </trkpt>
      <trkpt lat="43.99557" lon="4.3407">
        <ele>80.7</ele>
        <time>2014-10-26T12:44:46Z</time>
      </trkpt>
      <trkpt lat="43.99547" lon="4.34068">
        <ele>80.8</ele>
        <time>2014-10-26T12:44:52Z</time>
      </trkpt>
      <trkpt lat="43.99538" lon="4.34068">
        <ele>80.3</ele>
        <time>2014-10-26T12:44:57Z</time>
      </trkpt>
      <trkpt lat="43.99528" lon="4.34069">
        <ele>79.8</ele>
        <time>2014-10-26T12:45:03Z</time>
      </trkpt>
      <trkpt lat="43.99519" lon="4.34071">
        <ele>80</ele>
        <time>2014-10-26T12:45:09Z</time>
      </trkpt>
      <trkpt lat="43.99509" lon="4.34073">
        <ele>79.8</ele>
        <time>2014-10-26T12:45:15Z</time>
      </trkpt>
      <trkpt lat="43.995" lon="4.34074">
        <ele>79.7</ele>
        <time>2014-10-26T12:45:22Z</time>
      </trkpt>
      <trkpt lat="43.9949" lon="4.34071">
        <ele>79.5</ele>
        <time>2014-10-26T12:45:28Z</time>
      </trkpt>
      <trkpt lat="43.9948" lon="4.3407">
        <ele>79.5</ele>
        <time>2014-10-26T12:45:35Z</time>
      </trkpt>
      <trkpt lat="43.9947" lon="4.34067">
        <ele>79.3</ele>
        <time>2014-10-26T12:45:40Z</time>
      </trkpt>
      <trkpt lat="43.99459" lon="4.34067">
        <ele>79.4</ele>
        <time>2014-10-26T12:45:46Z</time>
      </trkpt>
      <trkpt lat="43.9945" lon="4.34066">
        <ele>79</ele>
        <time>2014-10-26T12:45:51Z</time>
      </trkpt>
      <trkpt lat="43.9944" lon="4.34066">
        <ele>78.3</ele>
        <time>2014-10-26T12:45:58Z</time>
      </trkpt>
      <trkpt lat="43.9943" lon="4.34065">
        <ele>79</ele>
        <time>2014-10-26T12:46:04Z</time>
      </trkpt>
      <trkpt lat="43.9942" lon="4.34064">
        <ele>79.1</ele>
        <time>2014-10-26T12:46:09Z</time>
      </trkpt>
      <trkpt lat="43.9941" lon="4.34066">
        <ele>78.9</ele>
        <time>2014-10-26T12:46:15Z</time>
      </trkpt>
      <trkpt lat="43.994" lon="4.34067">
        <ele>78.8</ele>
        <time>2014-10-26T12:46:20Z</time>
      </trkpt>
      <trkpt lat="43.9939" lon="4.34065">
        <ele>78.7</ele>
        <time>2014-10-26T12:46:25Z</time>
      </trkpt>
      <trkpt lat="43.9938" lon="4.34065">
        <ele>78.3</ele>
        <time>2014-10-26T12:46:30Z</time>
      </trkpt>
      <trkpt lat="43.9937" lon="4.34066">
        <ele>78.8</ele>
        <time>2014-10-26T12:46:36Z</time>
      </trkpt>
      <trkpt lat="43.99362" lon="4.34071">
        <ele>78.5</ele>
        <time>2014-10-26T12:46:43Z</time>
      </trkpt>
      <trkpt lat="43.99353" lon="4.34077">
        <ele>78.7</ele>
        <time>2014-10-26T12:46:49Z</time>
      </trkpt>
      <trkpt lat="43.99344" lon="4.34083">
        <ele>78.7</ele>
        <time>2014-10-26T12:46:55Z</time>
      </trkpt>
      <trkpt lat="43.99336" lon="4.34091">
        <ele>78.6</ele>
        <time>2014-10-26T12:47:02Z</time>
      </trkpt>
      <trkpt lat="43.99328" lon="4.341">
        <ele>79.3</ele>
        <time>2014-10-26T12:47:10Z</time>
      </trkpt>
      <trkpt lat="43.99319" lon="4.34107">
        <ele>79.1</ele>
        <time>2014-10-26T12:47:16Z</time>
      </trkpt>
      <trkpt lat="43.99311" lon="4.34114">
        <ele>79.5</ele>
        <time>2014-10-26T12:47:23Z</time>
      </trkpt>
      <trkpt lat="43.99304" lon="4.34121">
        <ele>79.5</ele>
        <time>2014-10-26T12:47:57Z</time>
      </trkpt>
      <trkpt lat="43.99294" lon="4.34129">
        <ele>79.7</ele>
        <time>2014-10-26T12:48:04Z</time>
      </trkpt>
      <trkpt lat="43.99286" lon="4.34136">
        <ele>80.2</ele>
        <time>2014-10-26T12:48:11Z</time>
      </trkpt>
      <trkpt lat="43.99275" lon="4.34139">
        <ele>80.6</ele>
        <time>2014-10-26T12:48:17Z</time>
      </trkpt>
      <trkpt lat="43.99266" lon="4.34143">
        <ele>80.5</ele>
        <time>2014-10-26T12:48:23Z</time>
      </trkpt>
      <trkpt lat="43.99258" lon="4.34147">
        <ele>80.5</ele>
        <time>2014-10-26T12:48:29Z</time>
      </trkpt>
      <trkpt lat="43.99248" lon="4.34152">
        <ele>80.5</ele>
        <time>2014-10-26T12:48:36Z</time>
      </trkpt>
      <trkpt lat="43.99239" lon="4.34156">
        <ele>80.6</ele>
        <time>2014-10-26T12:48:41Z</time>
      </trkpt>
      <trkpt lat="43.99229" lon="4.3416">
        <ele>80.9</ele>
        <time>2014-10-26T12:48:47Z</time>
      </trkpt>
      <trkpt lat="43.99219" lon="4.34165">
        <ele>81.4</ele>
        <time>2014-10-26T12:48:53Z</time>
      </trkpt>
      <trkpt lat="43.9921" lon="4.3417">
        <ele>81.6</ele>
        <time>2014-10-26T12:48:59Z</time>
      </trkpt>
      <trkpt lat="43.99201" lon="4.34174">
        <ele>81.7</ele>
        <time>2014-10-26T12:49:03Z</time>
      </trkpt>
      <trkpt lat="43.99191" lon="4.34178">
        <ele>81.8</ele>
        <time>2014-10-26T12:49:09Z</time>
      </trkpt>
      <trkpt lat="43.99181" lon="4.34183">
        <ele>82.2</ele>
        <time>2014-10-26T12:49:15Z</time>
      </trkpt>
      <trkpt lat="43.99171" lon="4.34188">
        <ele>83</ele>
        <time>2014-10-26T12:49:21Z</time>
      </trkpt>
      <trkpt lat="43.99161" lon="4.34192">
        <ele>83</ele>
        <time>2014-10-26T12:49:27Z</time>
      </trkpt>
      <trkpt lat="43.99155" lon="4.34201">
        <ele>84.1</ele>
        <time>2014-10-26T12:49:32Z</time>
      </trkpt>
      <trkpt lat="43.99147" lon="4.34209">
        <ele>84.8</ele>
        <time>2014-10-26T12:49:38Z</time>
      </trkpt>
      <trkpt lat="43.99137" lon="4.34212">
        <ele>85.6</ele>
        <time>2014-10-26T12:49:45Z</time>
      </trkpt>
      <trkpt lat="43.99127" lon="4.34209">
        <ele>86.4</ele>
        <time>2014-10-26T12:49:51Z</time>
      </trkpt>
      <trkpt lat="43.99117" lon="4.34206">
        <ele>86.7</ele>
        <time>2014-10-26T12:49:56Z</time>
      </trkpt>
      <trkpt lat="43.99108" lon="4.34202">
        <ele>87.4</ele>
        <time>2014-10-26T12:50:02Z</time>
      </trkpt>
      <trkpt lat="43.99099" lon="4.34197">
        <ele>86.6</ele>
        <time>2014-10-26T12:50:08Z</time>
      </trkpt>
      <trkpt lat="43.99091" lon="4.34191">
        <ele>86.3</ele>
        <time>2014-10-26T12:50:14Z</time>
      </trkpt>
      <trkpt lat="43.99082" lon="4.34184">
        <ele>85.9</ele>
        <time>2014-10-26T12:50:20Z</time>
      </trkpt>
      <trkpt lat="43.99074" lon="4.34179">
        <ele>85.3</ele>
        <time>2014-10-26T12:50:26Z</time>
      </trkpt>
      <trkpt lat="43.99065" lon="4.34172">
        <ele>85.5</ele>
        <time>2014-10-26T12:50:33Z</time>
      </trkpt>
      <trkpt lat="43.99055" lon="4.34168">
        <ele>85.3</ele>
        <time>2014-10-26T12:50:40Z</time>
      </trkpt>
      <trkpt lat="43.99046" lon="4.34174">
        <ele>85.4</ele>
        <time>2014-10-26T12:50:47Z</time>
      </trkpt>
      <trkpt lat="43.99038" lon="4.34181">
        <ele>85.7</ele>
        <time>2014-10-26T12:50:53Z</time>
      </trkpt>
      <trkpt lat="43.99029" lon="4.34188">
        <ele>86.8</ele>
        <time>2014-10-26T12:50:59Z</time>
      </trkpt>
      <trkpt lat="43.99021" lon="4.34198">
        <ele>87.1</ele>
        <time>2014-10-26T12:51:06Z</time>
      </trkpt>
      <trkpt lat="43.99013" lon="4.34207">
        <ele>86.9</ele>
        <time>2014-10-26T12:51:12Z</time>
      </trkpt>
      <trkpt lat="43.99005" lon="4.34215">
        <ele>86.8</ele>
        <time>2014-10-26T12:51:17Z</time>
      </trkpt>
      <trkpt lat="43.99" lon="4.34226">
        <ele>86.9</ele>
        <time>2014-10-26T12:51:23Z</time>
      </trkpt>
      <trkpt lat="43.98995" lon="4.34238">
        <ele>86.4</ele>
        <time>2014-10-26T12:51:30Z</time>
      </trkpt>
      <trkpt lat="43.9899" lon="4.34251">
        <ele>86.3</ele>
        <time>2014-10-26T12:51:36Z</time>
      </trkpt>
      <trkpt lat="43.98985" lon="4.34264">
        <ele>86.4</ele>
        <time>2014-10-26T12:51:41Z</time>
      </trkpt>
      <trkpt lat="43.98981" lon="4.34277">
        <ele>86.6</ele>
        <time>2014-10-26T12:51:45Z</time>
      </trkpt>
      <trkpt lat="43.98975" lon="4.34289">
        <ele>86.4</ele>
        <time>2014-10-26T12:51:51Z</time>
      </trkpt>
      <trkpt lat="43.98969" lon="4.343">
        <ele>86.5</ele>
        <time>2014-10-26T12:51:56Z</time>
      </trkpt>
      <trkpt lat="43.98961" lon="4.3431">
        <ele>86</ele>
        <time>2014-10-26T12:52:00Z</time>
      </trkpt>
      <trkpt lat="43.98952" lon="4.3432">
        <ele>85.6</ele>
        <time>2014-10-26T12:52:04Z</time>
      </trkpt>
      <trkpt lat="43.98946" lon="4.34329">
        <ele>85.4</ele>
        <time>2014-10-26T12:52:07Z</time>
      </trkpt>
      <trkpt lat="43.98941" lon="4.34342">
        <ele>84.9</ele>
        <time>2014-10-26T12:52:10Z</time>
      </trkpt>
      <trkpt lat="43.98937" lon="4.34358">
        <ele>84.7</ele>
        <time>2014-10-26T12:52:14Z</time>
      </trkpt>
      <trkpt lat="43.98935" lon="4.34371">
        <ele>84.4</ele>
        <time>2014-10-26T12:52:16Z</time>
      </trkpt>
      <trkpt lat="43.98933" lon="4.34385">
        <ele>84.2</ele>
        <time>2014-10-26T12:52:18Z</time>
      </trkpt>
      <trkpt lat="43.98931" lon="4.34399">
        <ele>83.9</ele>
        <time>2014-10-26T12:52:20Z</time>
      </trkpt>
      <trkpt lat="43.9893" lon="4.34413">
        <ele>84.1</ele>
        <time>2014-10-26T12:52:22Z</time>
      </trkpt>
      <trkpt lat="43.98928" lon="4.34429">
        <ele>84.5</ele>
        <time>2014-10-26T12:52:24Z</time>
      </trkpt>
      <trkpt lat="43.98926" lon="4.34445">
        <ele>84.7</ele>
        <time>2014-10-26T12:52:26Z</time>
      </trkpt>
      <trkpt lat="43.98925" lon="4.34463">
        <ele>85.4</ele>
        <time>2014-10-26T12:52:28Z</time>
      </trkpt>
      <trkpt lat="43.98925" lon="4.34479">
        <ele>85.4</ele>
        <time>2014-10-26T12:52:30Z</time>
      </trkpt>
      <trkpt lat="43.98924" lon="4.34495">
        <ele>86</ele>
        <time>2014-10-26T12:52:32Z</time>
      </trkpt>
      <trkpt lat="43.98922" lon="4.3451">
        <ele>85.9</ele>
        <time>2014-10-26T12:52:34Z</time>
      </trkpt>
      <trkpt lat="43.98918" lon="4.34527">
        <ele>85.7</ele>
        <time>2014-10-26T12:52:36Z</time>
      </trkpt>
      <trkpt lat="43.98913" lon="4.34545">
        <ele>86.7</ele>
        <time>2014-10-26T12:52:38Z</time>
      </trkpt>
      <trkpt lat="43.98912" lon="4.34561">
        <ele>85.8</ele>
        <time>2014-10-26T12:52:40Z</time>
      </trkpt>
      <trkpt lat="43.9891" lon="4.34575">
        <ele>86.5</ele>
        <time>2014-10-26T12:52:42Z</time>
      </trkpt>
      <trkpt lat="43.98907" lon="4.34588">
        <ele>86.7</ele>
        <time>2014-10-26T12:52:44Z</time>
      </trkpt>
      <trkpt lat="43.98901" lon="4.34604">
        <ele>86.8</ele>
        <time>2014-10-26T12:52:47Z</time>
      </trkpt>
      <trkpt lat="43.98895" lon="4.34617">
        <ele>87.4</ele>
        <time>2014-10-26T12:52:51Z</time>
      </trkpt>
      <trkpt lat="43.98887" lon="4.34627">
        <ele>87.1</ele>
        <time>2014-10-26T12:52:58Z</time>
      </trkpt>
      <trkpt lat="43.98882" lon="4.34639">
        <ele>86.5</ele>
        <time>2014-10-26T12:53:03Z</time>
      </trkpt>
      <trkpt lat="43.98874" lon="4.34649">
        <ele>85.9</ele>
        <time>2014-10-26T12:53:08Z</time>
      </trkpt>
      <trkpt lat="43.98869" lon="4.34661">
        <ele>85.2</ele>
        <time>2014-10-26T12:53:16Z</time>
      </trkpt>
      <trkpt lat="43.98861" lon="4.34653">
        <ele>84.6</ele>
        <time>2014-10-26T12:53:22Z</time>
      </trkpt>
      <trkpt lat="43.98852" lon="4.34656">
        <ele>84.2</ele>
        <time>2014-10-26T12:53:28Z</time>
      </trkpt>
      <trkpt lat="43.98846" lon="4.34667">
        <ele>83.6</ele>
        <time>2014-10-26T12:53:35Z</time>
      </trkpt>
      <trkpt lat="43.98844" lon="4.34679">
        <ele>82.7</ele>
        <time>2014-10-26T12:53:40Z</time>
      </trkpt>
      <trkpt lat="43.9884" lon="4.34694">
        <ele>83</ele>
        <time>2014-10-26T12:53:47Z</time>
      </trkpt>
      <trkpt lat="43.98838" lon="4.34707">
        <ele>83</ele>
        <time>2014-10-26T12:53:53Z</time>
      </trkpt>
      <trkpt lat="43.98833" lon="4.34722">
        <ele>84</ele>
        <time>2014-10-26T12:54:55Z</time>
      </trkpt>
      <trkpt lat="43.98842" lon="4.3473">
        <ele>84</ele>
        <time>2014-10-26T12:55:32Z</time>
      </trkpt>
      <trkpt lat="43.98851" lon="4.34735">
        <ele>84.5</ele>
        <time>2014-10-26T12:55:40Z</time>
      </trkpt>
      <trkpt lat="43.98859" lon="4.34743">
        <ele>84.9</ele>
        <time>2014-10-26T12:55:49Z</time>
      </trkpt>
      <trkpt lat="43.98866" lon="4.34753">
        <ele>85.3</ele>
        <time>2014-10-26T12:55:57Z</time>
      </trkpt>
      <trkpt lat="43.98873" lon="4.34764">
        <ele>85.6</ele>
        <time>2014-10-26T12:56:04Z</time>
      </trkpt>
      <trkpt lat="43.9888" lon="4.34774">
        <ele>86.1</ele>
        <time>2014-10-26T12:56:10Z</time>
      </trkpt>
      <trkpt lat="43.98887" lon="4.34782">
        <ele>86.5</ele>
        <time>2014-10-26T12:56:15Z</time>
      </trkpt>
      <trkpt lat="43.98892" lon="4.34794">
        <ele>87.4</ele>
        <time>2014-10-26T12:56:22Z</time>
      </trkpt>
      <trkpt lat="43.98894" lon="4.34808">
        <ele>88</ele>
        <time>2014-10-26T12:56:29Z</time>
      </trkpt>
      <trkpt lat="43.98897" lon="4.3482">
        <ele>88.7</ele>
        <time>2014-10-26T12:56:36Z</time>
      </trkpt>
      <trkpt lat="43.98902" lon="4.34831">
        <ele>89.1</ele>
        <time>2014-10-26T12:56:42Z</time>
      </trkpt>
      <trkpt lat="43.98906" lon="4.34843">
        <ele>89.6</ele>
        <time>2014-10-26T12:56:48Z</time>
      </trkpt>
      <trkpt lat="43.98909" lon="4.34856">
        <ele>90.1</ele>
        <time>2014-10-26T12:56:55Z</time>
      </trkpt>
      <trkpt lat="43.98909" lon="4.3487">
        <ele>90</ele>
        <time>2014-10-26T12:57:02Z</time>
      </trkpt>
      <trkpt lat="43.9891" lon="4.34883">
        <ele>90.6</ele>
        <time>2014-10-26T12:57:08Z</time>
      </trkpt>
      <trkpt lat="43.98914" lon="4.34897">
        <ele>90.7</ele>
        <time>2014-10-26T12:57:15Z</time>
      </trkpt>
      <trkpt lat="43.98917" lon="4.34911">
        <ele>90.9</ele>
        <time>2014-10-26T12:57:22Z</time>
      </trkpt>
      <trkpt lat="43.98914" lon="4.34924">
        <ele>91.1</ele>
        <time>2014-10-26T12:57:29Z</time>
      </trkpt>
      <trkpt lat="43.98908" lon="4.34935">
        <ele>90.4</ele>
        <time>2014-10-26T12:57:36Z</time>
      </trkpt>
      <trkpt lat="43.989" lon="4.34943">
        <ele>89.5</ele>
        <time>2014-10-26T12:57:41Z</time>
      </trkpt>
      <trkpt lat="43.9889" lon="4.34947">
        <ele>89.3</ele>
        <time>2014-10-26T12:57:47Z</time>
      </trkpt>
      <trkpt lat="43.98881" lon="4.34953">
        <ele>88.6</ele>
        <time>2014-10-26T12:57:54Z</time>
      </trkpt>
      <trkpt lat="43.98873" lon="4.3496">
        <ele>88.4</ele>
        <time>2014-10-26T12:58:00Z</time>
      </trkpt>
      <trkpt lat="43.98866" lon="4.34967">
        <ele>87.6</ele>
        <time>2014-10-26T12:58:06Z</time>
      </trkpt>
      <trkpt lat="43.98857" lon="4.34975">
        <ele>87.3</ele>
        <time>2014-10-26T12:58:13Z</time>
      </trkpt>
      <trkpt lat="43.98851" lon="4.34984">
        <ele>87.4</ele>
        <time>2014-10-26T12:58:19Z</time>
      </trkpt>
      <trkpt lat="43.98844" lon="4.34992">
        <ele>87.3</ele>
        <time>2014-10-26T12:58:25Z</time>
      </trkpt>
      <trkpt lat="43.98836" lon="4.35001">
        <ele>87.7</ele>
        <time>2014-10-26T12:58:31Z</time>
      </trkpt>
      <trkpt lat="43.98828" lon="4.3501">
        <ele>87.7</ele>
        <time>2014-10-26T12:58:37Z</time>
      </trkpt>
      <trkpt lat="43.98821" lon="4.35019">
        <ele>87.9</ele>
        <time>2014-10-26T12:58:43Z</time>
      </trkpt>
      <trkpt lat="43.98816" lon="4.3503">
        <ele>88.1</ele>
        <time>2014-10-26T12:58:49Z</time>
      </trkpt>
      <trkpt lat="43.98817" lon="4.35044">
        <ele>88.4</ele>
        <time>2014-10-26T12:58:55Z</time>
      </trkpt>
      <trkpt lat="43.98817" lon="4.35057">
        <ele>89.2</ele>
        <time>2014-10-26T12:59:02Z</time>
      </trkpt>
      <trkpt lat="43.98818" lon="4.3507">
        <ele>90</ele>
        <time>2014-10-26T12:59:08Z</time>
      </trkpt>
      <trkpt lat="43.98823" lon="4.35082">
        <ele>89.9</ele>
        <time>2014-10-26T12:59:14Z</time>
      </trkpt>
      <trkpt lat="43.98828" lon="4.35095">
        <ele>90.8</ele>
        <time>2014-10-26T12:59:20Z</time>
      </trkpt>
      <trkpt lat="43.98831" lon="4.35107">
        <ele>91.2</ele>
        <time>2014-10-26T12:59:25Z</time>
      </trkpt>
      <trkpt lat="43.98835" lon="4.35118">
        <ele>90.9</ele>
        <time>2014-10-26T12:59:30Z</time>
      </trkpt>
      <trkpt lat="43.9884" lon="4.35129">
        <ele>91.9</ele>
        <time>2014-10-26T12:59:36Z</time>
      </trkpt>
      <trkpt lat="43.98846" lon="4.35141">
        <ele>92.4</ele>
        <time>2014-10-26T12:59:42Z</time>
      </trkpt>
      <trkpt lat="43.98851" lon="4.35154">
        <ele>92.9</ele>
        <time>2014-10-26T12:59:48Z</time>
      </trkpt>
      <trkpt lat="43.98854" lon="4.35167">
        <ele>93.3</ele>
        <time>2014-10-26T12:59:54Z</time>
      </trkpt>
      <trkpt lat="43.98858" lon="4.3518">
        <ele>92.7</ele>
        <time>2014-10-26T13:00:00Z</time>
      </trkpt>
      <trkpt lat="43.98863" lon="4.35192">
        <ele>92.7</ele>
        <time>2014-10-26T13:00:06Z</time>
      </trkpt>
      <trkpt lat="43.98867" lon="4.35205">
        <ele>93.1</ele>
        <time>2014-10-26T13:00:12Z</time>
      </trkpt>
      <trkpt lat="43.98872" lon="4.35217">
        <ele>93.6</ele>
        <time>2014-10-26T13:00:17Z</time>
      </trkpt>
      <trkpt lat="43.98876" lon="4.35229">
        <ele>93.8</ele>
        <time>2014-10-26T13:00:24Z</time>
      </trkpt>
      <trkpt lat="43.9888" lon="4.35241">
        <ele>93.1</ele>
        <time>2014-10-26T13:00:30Z</time>
      </trkpt>
      <trkpt lat="43.98883" lon="4.35253">
        <ele>93.6</ele>
        <time>2014-10-26T13:00:36Z</time>
      </trkpt>
      <trkpt lat="43.98887" lon="4.35266">
        <ele>94.2</ele>
        <time>2014-10-26T13:00:42Z</time>
      </trkpt>
      <trkpt lat="43.9889" lon="4.35278">
        <ele>94.6</ele>
        <time>2014-10-26T13:00:48Z</time>
      </trkpt>
      <trkpt lat="43.98884" lon="4.35287">
        <ele>94.5</ele>
        <time>2014-10-26T13:00:56Z</time>
      </trkpt>
      <trkpt lat="43.98874" lon="4.35287">
        <ele>94.2</ele>
        <time>2014-10-26T13:01:02Z</time>
      </trkpt>
      <trkpt lat="43.98865" lon="4.35285">
        <ele>94.4</ele>
        <time>2014-10-26T13:01:08Z</time>
      </trkpt>
      <trkpt lat="43.98856" lon="4.35284">
        <ele>94.1</ele>
        <time>2014-10-26T13:01:14Z</time>
      </trkpt>
      <trkpt lat="43.98846" lon="4.35281">
        <ele>93.6</ele>
        <time>2014-10-26T13:01:19Z</time>
      </trkpt>
      <trkpt lat="43.98837" lon="4.3528">
        <ele>93.5</ele>
        <time>2014-10-26T13:01:24Z</time>
      </trkpt>
      <trkpt lat="43.98827" lon="4.35278">
        <ele>93.2</ele>
        <time>2014-10-26T13:01:30Z</time>
      </trkpt>
      <trkpt lat="43.98817" lon="4.35278">
        <ele>93.1</ele>
        <time>2014-10-26T13:01:35Z</time>
      </trkpt>
      <trkpt lat="43.98808" lon="4.35277">
        <ele>92.7</ele>
        <time>2014-10-26T13:01:40Z</time>
      </trkpt>
      <trkpt lat="43.98799" lon="4.35277">
        <ele>92.5</ele>
        <time>2014-10-26T13:01:45Z</time>
      </trkpt>
      <trkpt lat="43.98788" lon="4.3528">
        <ele>91.6</ele>
        <time>2014-10-26T13:01:51Z</time>
      </trkpt>
      <trkpt lat="43.98779" lon="4.35282">
        <ele>92.1</ele>
        <time>2014-10-26T13:01:56Z</time>
      </trkpt>
      <trkpt lat="43.98776" lon="4.35295">
        <ele>91.4</ele>
        <time>2014-10-26T13:02:04Z</time>
      </trkpt>
      <trkpt lat="43.98781" lon="4.35307">
        <ele>91.7</ele>
        <time>2014-10-26T13:02:10Z</time>
      </trkpt>
      <trkpt lat="43.98785" lon="4.3532">
        <ele>91.6</ele>
        <time>2014-10-26T13:02:16Z</time>
      </trkpt>
      <trkpt lat="43.98789" lon="4.35332">
        <ele>91.6</ele>
        <time>2014-10-26T13:02:22Z</time>
      </trkpt>
      <trkpt lat="43.98793" lon="4.35344">
        <ele>92</ele>
        <time>2014-10-26T13:02:28Z</time>
      </trkpt>
      <trkpt lat="43.98796" lon="4.35357">
        <ele>91.8</ele>
        <time>2014-10-26T13:02:34Z</time>
      </trkpt>
      <trkpt lat="43.98797" lon="4.35371">
        <ele>92.3</ele>
        <time>2014-10-26T13:02:40Z</time>
      </trkpt>
      <trkpt lat="43.988" lon="4.35385">
        <ele>92</ele>
        <time>2014-10-26T13:02:46Z</time>
      </trkpt>
      <trkpt lat="43.98799" lon="4.35398">
        <ele>92.6</ele>
        <time>2014-10-26T13:02:52Z</time>
      </trkpt>
      <trkpt lat="43.98799" lon="4.35412">
        <ele>92.6</ele>
        <time>2014-10-26T13:02:58Z</time>
      </trkpt>
      <trkpt lat="43.98798" lon="4.35425">
        <ele>93.1</ele>
        <time>2014-10-26T13:03:04Z</time>
      </trkpt>
      <trkpt lat="43.98799" lon="4.35439">
        <ele>93.5</ele>
        <time>2014-10-26T13:03:09Z</time>
      </trkpt>
      <trkpt lat="43.98799" lon="4.35453">
        <ele>93.4</ele>
        <time>2014-10-26T13:03:14Z</time>
      </trkpt>
      <trkpt lat="43.988" lon="4.35467">
        <ele>93</ele>
        <time>2014-10-26T13:03:20Z</time>
      </trkpt>
      <trkpt lat="43.988" lon="4.3548">
        <ele>93.7</ele>
        <time>2014-10-26T13:03:26Z</time>
      </trkpt>
      <trkpt lat="43.98802" lon="4.35494">
        <ele>93.8</ele>
        <time>2014-10-26T13:03:32Z</time>
      </trkpt>
      <trkpt lat="43.98805" lon="4.35507">
        <ele>93.9</ele>
        <time>2014-10-26T13:03:38Z</time>
      </trkpt>
      <trkpt lat="43.98807" lon="4.3552">
        <ele>94.1</ele>
        <time>2014-10-26T13:03:45Z</time>
      </trkpt>
      <trkpt lat="43.98802" lon="4.3553">
        <ele>94.4</ele>
        <time>2014-10-26T13:04:03Z</time>
      </trkpt>
      <trkpt lat="43.98793" lon="4.3553">
        <ele>94</ele>
        <time>2014-10-26T13:04:08Z</time>
      </trkpt>
      <trkpt lat="43.98783" lon="4.35531">
        <ele>93.8</ele>
        <time>2014-10-26T13:04:13Z</time>
      </trkpt>
      <trkpt lat="43.98774" lon="4.35531">
        <ele>93.9</ele>
        <time>2014-10-26T13:04:19Z</time>
      </trkpt>
      <trkpt lat="43.98764" lon="4.35531">
        <ele>93.4</ele>
        <time>2014-10-26T13:04:25Z</time>
      </trkpt>
      <trkpt lat="43.98754" lon="4.3553">
        <ele>93.4</ele>
        <time>2014-10-26T13:04:31Z</time>
      </trkpt>
      <trkpt lat="43.98745" lon="4.35531">
        <ele>92.8</ele>
        <time>2014-10-26T13:04:37Z</time>
      </trkpt>
      <trkpt lat="43.98735" lon="4.35533">
        <ele>92.6</ele>
        <time>2014-10-26T13:04:44Z</time>
      </trkpt>
      <trkpt lat="43.98726" lon="4.35535">
        <ele>92.4</ele>
        <time>2014-10-26T13:04:50Z</time>
      </trkpt>
      <trkpt lat="43.98717" lon="4.35536">
        <ele>92.4</ele>
        <time>2014-10-26T13:04:56Z</time>
      </trkpt>
      <trkpt lat="43.98707" lon="4.35537">
        <ele>92</ele>
        <time>2014-10-26T13:05:02Z</time>
      </trkpt>
      <trkpt lat="43.98698" lon="4.35535">
        <ele>91.9</ele>
        <time>2014-10-26T13:05:09Z</time>
      </trkpt>
      <trkpt lat="43.98688" lon="4.35537">
        <ele>91.6</ele>
        <time>2014-10-26T13:05:14Z</time>
      </trkpt>
      <trkpt lat="43.98679" lon="4.35538">
        <ele>91.5</ele>
        <time>2014-10-26T13:05:20Z</time>
      </trkpt>
      <trkpt lat="43.98669" lon="4.35538">
        <ele>91.4</ele>
        <time>2014-10-26T13:05:27Z</time>
      </trkpt>
      <trkpt lat="43.98659" lon="4.35541">
        <ele>91.8</ele>
        <time>2014-10-26T13:05:33Z</time>
      </trkpt>
      <trkpt lat="43.98649" lon="4.35543">
        <ele>91.8</ele>
        <time>2014-10-26T13:05:40Z</time>
      </trkpt>
      <trkpt lat="43.98642" lon="4.35535">
        <ele>91.6</ele>
        <time>2014-10-26T13:05:52Z</time>
      </trkpt>
      <trkpt lat="43.98637" lon="4.35545">
        <ele>92</ele>
        <time>2014-10-26T13:07:15Z</time>
      </trkpt>
      <trkpt lat="43.98639" lon="4.35559">
        <ele>92.5</ele>
        <time>2014-10-26T13:07:49Z</time>
      </trkpt>
      <trkpt lat="43.9864" lon="4.35572">
        <ele>93.2</ele>
        <time>2014-10-26T13:08:07Z</time>
      </trkpt>
      <trkpt lat="43.98642" lon="4.35586">
        <ele>93</ele>
        <time>2014-10-26T13:08:35Z</time>
      </trkpt>
      <trkpt lat="43.98645" lon="4.35598">
        <ele>93.4</ele>
        <time>2014-10-26T13:08:41Z</time>
      </trkpt>
      <trkpt lat="43.98648" lon="4.35612">
        <ele>93.3</ele>
        <time>2014-10-26T13:08:48Z</time>
      </trkpt>
      <trkpt lat="43.9865" lon="4.35626">
        <ele>93.8</ele>
        <time>2014-10-26T13:08:54Z</time>
      </trkpt>
      <trkpt lat="43.98652" lon="4.3564">
        <ele>93.5</ele>
        <time>2014-10-26T13:09:00Z</time>
      </trkpt>
      <trkpt lat="43.98653" lon="4.35654">
        <ele>94.3</ele>
        <time>2014-10-26T13:09:07Z</time>
      </trkpt>
      <trkpt lat="43.98655" lon="4.35668">
        <ele>94.3</ele>
        <time>2014-10-26T13:09:13Z</time>
      </trkpt>
      <trkpt lat="43.98657" lon="4.35682">
        <ele>94.3</ele>
        <time>2014-10-26T13:09:18Z</time>
      </trkpt>
      <trkpt lat="43.98659" lon="4.35696">
        <ele>94.5</ele>
        <time>2014-10-26T13:09:24Z</time>
      </trkpt>
      <trkpt lat="43.98662" lon="4.3571">
        <ele>94.8</ele>
        <time>2014-10-26T13:09:30Z</time>
      </trkpt>
      <trkpt lat="43.98665" lon="4.35723">
        <ele>95.1</ele>
        <time>2014-10-26T13:09:35Z</time>
      </trkpt>
      <trkpt lat="43.98667" lon="4.35735">
        <ele>95.3</ele>
        <time>2014-10-26T13:09:41Z</time>
      </trkpt>
      <trkpt lat="43.9867" lon="4.35748">
        <ele>95.8</ele>
        <time>2014-10-26T13:09:46Z</time>
      </trkpt>
      <trkpt lat="43.98673" lon="4.35761">
        <ele>95.8</ele>
        <time>2014-10-26T13:09:52Z</time>
      </trkpt>
      <trkpt lat="43.98677" lon="4.35774">
        <ele>95.9</ele>
        <time>2014-10-26T13:09:58Z</time>
      </trkpt>
      <trkpt lat="43.98681" lon="4.35787">
        <ele>95.9</ele>
        <time>2014-10-26T13:10:04Z</time>
      </trkpt>
      <trkpt lat="43.98686" lon="4.35797">
        <ele>96</ele>
        <time>2014-10-26T13:10:09Z</time>
      </trkpt>
      <trkpt lat="43.9869" lon="4.35809">
        <ele>96.3</ele>
        <time>2014-10-26T13:10:14Z</time>
      </trkpt>
      <trkpt lat="43.98693" lon="4.35824">
        <ele>96.6</ele>
        <time>2014-10-26T13:10:19Z</time>
      </trkpt>
      <trkpt lat="43.98695" lon="4.35838">
        <ele>96.6</ele>
        <time>2014-10-26T13:10:24Z</time>
      </trkpt>
      <trkpt lat="43.98697" lon="4.35851">
        <ele>96.2</ele>
        <time>2014-10-26T13:10:28Z</time>
      </trkpt>
      <trkpt lat="43.98702" lon="4.35862">
        <ele>96.9</ele>
        <time>2014-10-26T13:10:32Z</time>
      </trkpt>
      <trkpt lat="43.98706" lon="4.35874">
        <ele>97.2</ele>
        <time>2014-10-26T13:10:37Z</time>
      </trkpt>
      <trkpt lat="43.98711" lon="4.35885">
        <ele>97.4</ele>
        <time>2014-10-26T13:10:41Z</time>
      </trkpt>
      <trkpt lat="43.98714" lon="4.35899">
        <ele>98.1</ele>
        <time>2014-10-26T13:10:46Z</time>
      </trkpt>
      <trkpt lat="43.9872" lon="4.35909">
        <ele>98.3</ele>
        <time>2014-10-26T13:10:51Z</time>
      </trkpt>
      <trkpt lat="43.98725" lon="4.35921">
        <ele>98.6</ele>
        <time>2014-10-26T13:10:56Z</time>
      </trkpt>
      <trkpt lat="43.98728" lon="4.35934">
        <ele>98.4</ele>
        <time>2014-10-26T13:11:01Z</time>
      </trkpt>
      <trkpt lat="43.98731" lon="4.35948">
        <ele>98.3</ele>
        <time>2014-10-26T13:11:06Z</time>
      </trkpt>
      <trkpt lat="43.98736" lon="4.3596">
        <ele>98.4</ele>
        <time>2014-10-26T13:11:09Z</time>
      </trkpt>
      <trkpt lat="43.9874" lon="4.35973">
        <ele>98.2</ele>
        <time>2014-10-26T13:11:11Z</time>
      </trkpt>
      <trkpt lat="43.98745" lon="4.35988">
        <ele>98.5</ele>
        <time>2014-10-26T13:11:13Z</time>
      </trkpt>
      <trkpt lat="43.98751" lon="4.36005">
        <ele>98.1</ele>
        <time>2014-10-26T13:11:15Z</time>
      </trkpt>
      <trkpt lat="43.98758" lon="4.36023">
        <ele>98.1</ele>
        <time>2014-10-26T13:11:17Z</time>
      </trkpt>
      <trkpt lat="43.98766" lon="4.36042">
        <ele>98.1</ele>
        <time>2014-10-26T13:11:19Z</time>
      </trkpt>
      <trkpt lat="43.98773" lon="4.36061">
        <ele>98.5</ele>
        <time>2014-10-26T13:11:21Z</time>
      </trkpt>
      <trkpt lat="43.9878" lon="4.36081">
        <ele>98.9</ele>
        <time>2014-10-26T13:11:23Z</time>
      </trkpt>
      <trkpt lat="43.98787" lon="4.361">
        <ele>99.1</ele>
        <time>2014-10-26T13:11:25Z</time>
      </trkpt>
      <trkpt lat="43.98794" lon="4.3612">
        <ele>99.3</ele>
        <time>2014-10-26T13:11:27Z</time>
      </trkpt>
      <trkpt lat="43.98803" lon="4.36141">
        <ele>99.2</ele>
        <time>2014-10-26T13:11:29Z</time>
      </trkpt>
      <trkpt lat="43.9881" lon="4.36164">
        <ele>99</ele>
        <time>2014-10-26T13:11:31Z</time>
      </trkpt>
      <trkpt lat="43.98816" lon="4.36186">
        <ele>99.2</ele>
        <time>2014-10-26T13:11:33Z</time>
      </trkpt>
      <trkpt lat="43.9882" lon="4.36207">
        <ele>99.5</ele>
        <time>2014-10-26T13:11:35Z</time>
      </trkpt>
      <trkpt lat="43.98824" lon="4.36229">
        <ele>99.7</ele>
        <time>2014-10-26T13:11:37Z</time>
      </trkpt>
      <trkpt lat="43.98827" lon="4.36251">
        <ele>99.6</ele>
        <time>2014-10-26T13:11:39Z</time>
      </trkpt>
      <trkpt lat="43.98829" lon="4.3627">
        <ele>100</ele>
        <time>2014-10-26T13:11:41Z</time>
      </trkpt>
      <trkpt lat="43.9883" lon="4.3629">
        <ele>100</ele>
        <time>2014-10-26T13:11:43Z</time>
      </trkpt>
      <trkpt lat="43.98831" lon="4.3631">
        <ele>100.5</ele>
        <time>2014-10-26T13:11:45Z</time>
      </trkpt>
      <trkpt lat="43.98831" lon="4.3633">
        <ele>100.9</ele>
        <time>2014-10-26T13:11:47Z</time>
      </trkpt>
      <trkpt lat="43.9883" lon="4.36351">
        <ele>101.2</ele>
        <time>2014-10-26T13:11:49Z</time>
      </trkpt>
      <trkpt lat="43.9883" lon="4.36374">
        <ele>101.4</ele>
        <time>2014-10-26T13:11:51Z</time>
      </trkpt>
      <trkpt lat="43.98829" lon="4.36397">
        <ele>101.6</ele>
        <time>2014-10-26T13:11:53Z</time>
      </trkpt>
      <trkpt lat="43.98827" lon="4.3642">
        <ele>102.1</ele>
        <time>2014-10-26T13:11:55Z</time>
      </trkpt>
      <trkpt lat="43.98826" lon="4.36442">
        <ele>102.7</ele>
        <time>2014-10-26T13:11:57Z</time>
      </trkpt>
      <trkpt lat="43.98826" lon="4.36462">
        <ele>102.9</ele>
        <time>2014-10-26T13:11:59Z</time>
      </trkpt>
      <trkpt lat="43.98825" lon="4.36481">
        <ele>103.4</ele>
        <time>2014-10-26T13:12:01Z</time>
      </trkpt>
      <trkpt lat="43.98824" lon="4.36502">
        <ele>102.9</ele>
        <time>2014-10-26T13:12:03Z</time>
      </trkpt>
      <trkpt lat="43.98823" lon="4.36525">
        <ele>103</ele>
        <time>2014-10-26T13:12:05Z</time>
      </trkpt>
      <trkpt lat="43.98823" lon="4.36549">
        <ele>103.1</ele>
        <time>2014-10-26T13:12:07Z</time>
      </trkpt>
      <trkpt lat="43.98822" lon="4.36562">
        <ele>103.7</ele>
        <time>2014-10-26T13:12:08Z</time>
      </trkpt>
      <trkpt lat="43.98821" lon="4.36575">
        <ele>104</ele>
        <time>2014-10-26T13:12:09Z</time>
      </trkpt>
      <trkpt lat="43.9882" lon="4.36587">
        <ele>104</ele>
        <time>2014-10-26T13:12:10Z</time>
      </trkpt>
      <trkpt lat="43.98819" lon="4.366">
        <ele>103.6</ele>
        <time>2014-10-26T13:12:11Z</time>
      </trkpt>
      <trkpt lat="43.98819" lon="4.36613">
        <ele>102.9</ele>
        <time>2014-10-26T13:12:12Z</time>
      </trkpt>
      <trkpt lat="43.98818" lon="4.36625">
        <ele>102.9</ele>
        <time>2014-10-26T13:12:13Z</time>
      </trkpt>
      <trkpt lat="43.98817" lon="4.36638">
        <ele>102.9</ele>
        <time>2014-10-26T13:12:14Z</time>
      </trkpt>
      <trkpt lat="43.98816" lon="4.36661">
        <ele>104.3</ele>
        <time>2014-10-26T13:12:16Z</time>
      </trkpt>
      <trkpt lat="43.98817" lon="4.36682">
        <ele>104.5</ele>
        <time>2014-10-26T13:12:18Z</time>
      </trkpt>
      <trkpt lat="43.98819" lon="4.36701">
        <ele>104.7</ele>
        <time>2014-10-26T13:12:20Z</time>
      </trkpt>
      <trkpt lat="43.9882" lon="4.36718">
        <ele>105.1</ele>
        <time>2014-10-26T13:12:22Z</time>
      </trkpt>
      <trkpt lat="43.98821" lon="4.36736">
        <ele>105.6</ele>
        <time>2014-10-26T13:12:24Z</time>
      </trkpt>
      <trkpt lat="43.98823" lon="4.36752">
        <ele>106.2</ele>
        <time>2014-10-26T13:12:26Z</time>
      </trkpt>
      <trkpt lat="43.98824" lon="4.36766">
        <ele>106.5</ele>
        <time>2014-10-26T13:12:28Z</time>
      </trkpt>
      <trkpt lat="43.98826" lon="4.36779">
        <ele>106.7</ele>
        <time>2014-10-26T13:12:30Z</time>
      </trkpt>
      <trkpt lat="43.9883" lon="4.36794">
        <ele>107.1</ele>
        <time>2014-10-26T13:12:33Z</time>
      </trkpt>
      <trkpt lat="43.98833" lon="4.3681">
        <ele>107.5</ele>
        <time>2014-10-26T13:12:36Z</time>
      </trkpt>
      <trkpt lat="43.98837" lon="4.36826">
        <ele>107.8</ele>
        <time>2014-10-26T13:12:39Z</time>
      </trkpt>
      <trkpt lat="43.98841" lon="4.36843">
        <ele>108.4</ele>
        <time>2014-10-26T13:12:42Z</time>
      </trkpt>
      <trkpt lat="43.98845" lon="4.36859">
        <ele>108.4</ele>
        <time>2014-10-26T13:12:45Z</time>
      </trkpt>
      <trkpt lat="43.9885" lon="4.36871">
        <ele>108.2</ele>
        <time>2014-10-26T13:12:48Z</time>
      </trkpt>
      <trkpt lat="43.98855" lon="4.36887">
        <ele>108.3</ele>
        <time>2014-10-26T13:12:51Z</time>
      </trkpt>
      <trkpt lat="43.98859" lon="4.36899">
        <ele>108.5</ele>
        <time>2014-10-26T13:12:53Z</time>
      </trkpt>
      <trkpt lat="43.98864" lon="4.3691">
        <ele>108.1</ele>
        <time>2014-10-26T13:12:55Z</time>
      </trkpt>
      <trkpt lat="43.98871" lon="4.36925">
        <ele>108.3</ele>
        <time>2014-10-26T13:12:58Z</time>
      </trkpt>
      <trkpt lat="43.98877" lon="4.36937">
        <ele>108.2</ele>
        <time>2014-10-26T13:13:01Z</time>
      </trkpt>
      <trkpt lat="43.98883" lon="4.36949">
        <ele>108</ele>
        <time>2014-10-26T13:13:04Z</time>
      </trkpt>
      <trkpt lat="43.98888" lon="4.3696">
        <ele>108.2</ele>
        <time>2014-10-26T13:13:06Z</time>
      </trkpt>
      <trkpt lat="43.98895" lon="4.3697">
        <ele>107.9</ele>
        <time>2014-10-26T13:13:08Z</time>
      </trkpt>
      <trkpt lat="43.989" lon="4.36981">
        <ele>107.9</ele>
        <time>2014-10-26T13:13:10Z</time>
      </trkpt>
      <trkpt lat="43.98908" lon="4.36995">
        <ele>108.2</ele>
        <time>2014-10-26T13:13:13Z</time>
      </trkpt>
      <trkpt lat="43.98914" lon="4.37006">
        <ele>108.3</ele>
        <time>2014-10-26T13:13:15Z</time>
      </trkpt>
      <trkpt lat="43.98923" lon="4.37019">
        <ele>108.4</ele>
        <time>2014-10-26T13:13:18Z</time>
      </trkpt>
      <trkpt lat="43.98929" lon="4.3703">
        <ele>108.5</ele>
        <time>2014-10-26T13:13:20Z</time>
      </trkpt>
      <trkpt lat="43.98938" lon="4.37041">
        <ele>108</ele>
        <time>2014-10-26T13:13:22Z</time>
      </trkpt>
      <trkpt lat="43.98948" lon="4.37051">
        <ele>108.1</ele>
        <time>2014-10-26T13:13:24Z</time>
      </trkpt>
      <trkpt lat="43.98957" lon="4.3706">
        <ele>108.1</ele>
        <time>2014-10-26T13:13:26Z</time>
      </trkpt>
      <trkpt lat="43.98967" lon="4.37071">
        <ele>108.1</ele>
        <time>2014-10-26T13:13:28Z</time>
      </trkpt>
      <trkpt lat="43.98977" lon="4.37081">
        <ele>108.4</ele>
        <time>2014-10-26T13:13:30Z</time>
      </trkpt>
      <trkpt lat="43.98986" lon="4.37088">
        <ele>108.3</ele>
        <time>2014-10-26T13:13:32Z</time>
      </trkpt>
      <trkpt lat="43.98996" lon="4.37095">
        <ele>108.6</ele>
        <time>2014-10-26T13:13:34Z</time>
      </trkpt>
      <trkpt lat="43.99005" lon="4.37102">
        <ele>108.3</ele>
        <time>2014-10-26T13:13:37Z</time>
      </trkpt>
      <trkpt lat="43.99013" lon="4.3711">
        <ele>108.3</ele>
        <time>2014-10-26T13:13:44Z</time>
      </trkpt>
      <trkpt lat="43.99023" lon="4.37116">
        <ele>108.4</ele>
        <time>2014-10-26T13:13:52Z</time>
      </trkpt>
      <trkpt lat="43.99031" lon="4.37122">
        <ele>108.6</ele>
        <time>2014-10-26T13:13:58Z</time>
      </trkpt>
      <trkpt lat="43.9904" lon="4.37125">
        <ele>108.3</ele>
        <time>2014-10-26T13:14:07Z</time>
      </trkpt>
      <trkpt lat="43.99049" lon="4.37129">
        <ele>108.3</ele>
        <time>2014-10-26T13:14:14Z</time>
      </trkpt>
      <trkpt lat="43.99058" lon="4.37135">
        <ele>108.6</ele>
        <time>2014-10-26T13:14:21Z</time>
      </trkpt>
      <trkpt lat="43.99067" lon="4.37139">
        <ele>108.3</ele>
        <time>2014-10-26T13:14:27Z</time>
      </trkpt>
      <trkpt lat="43.99076" lon="4.37144">
        <ele>109</ele>
        <time>2014-10-26T13:14:33Z</time>
      </trkpt>
      <trkpt lat="43.99085" lon="4.37149">
        <ele>108.8</ele>
        <time>2014-10-26T13:14:40Z</time>
      </trkpt>
      <trkpt lat="43.99095" lon="4.37153">
        <ele>108.5</ele>
        <time>2014-10-26T13:14:47Z</time>
      </trkpt>
      <trkpt lat="43.99104" lon="4.37156">
        <ele>109.2</ele>
        <time>2014-10-26T13:14:52Z</time>
      </trkpt>
      <trkpt lat="43.99115" lon="4.37158">
        <ele>108.9</ele>
        <time>2014-10-26T13:14:57Z</time>
      </trkpt>
      <trkpt lat="43.99125" lon="4.37162">
        <ele>109</ele>
        <time>2014-10-26T13:15:03Z</time>
      </trkpt>
      <trkpt lat="43.99135" lon="4.37165">
        <ele>108.4</ele>
        <time>2014-10-26T13:15:09Z</time>
      </trkpt>
      <trkpt lat="43.99145" lon="4.37169">
        <ele>108.3</ele>
        <time>2014-10-26T13:15:15Z</time>
      </trkpt>
      <trkpt lat="43.99155" lon="4.37172">
        <ele>106.7</ele>
        <time>2014-10-26T13:15:21Z</time>
      </trkpt>
      <trkpt lat="43.99164" lon="4.37174">
        <ele>108.3</ele>
        <time>2014-10-26T13:15:26Z</time>
      </trkpt>
      <trkpt lat="43.99174" lon="4.37178">
        <ele>108.6</ele>
        <time>2014-10-26T13:15:32Z</time>
      </trkpt>
      <trkpt lat="43.99183" lon="4.37181">
        <ele>108.3</ele>
        <time>2014-10-26T13:15:38Z</time>
      </trkpt>
      <trkpt lat="43.99193" lon="4.37185">
        <ele>109.1</ele>
        <time>2014-10-26T13:15:45Z</time>
      </trkpt>
      <trkpt lat="43.99202" lon="4.37192">
        <ele>108.5</ele>
        <time>2014-10-26T13:15:51Z</time>
      </trkpt>
      <trkpt lat="43.99211" lon="4.37195">
        <ele>108.6</ele>
        <time>2014-10-26T13:15:56Z</time>
      </trkpt>
      <trkpt lat="43.99221" lon="4.37197">
        <ele>108.9</ele>
        <time>2014-10-26T13:16:01Z</time>
      </trkpt>
      <trkpt lat="43.9923" lon="4.37201">
        <ele>108.7</ele>
        <time>2014-10-26T13:16:06Z</time>
      </trkpt>
      <trkpt lat="43.99239" lon="4.37204">
        <ele>108.8</ele>
        <time>2014-10-26T13:16:12Z</time>
      </trkpt>
      <trkpt lat="43.99248" lon="4.37201">
        <ele>108.9</ele>
        <time>2014-10-26T13:16:18Z</time>
      </trkpt>
      <trkpt lat="43.99258" lon="4.37198">
        <ele>109</ele>
        <time>2014-10-26T13:16:29Z</time>
      </trkpt>
      <trkpt lat="43.99253" lon="4.3721">
        <ele>109.8</ele>
        <time>2014-10-26T13:18:56Z</time>
      </trkpt>
      <trkpt lat="43.99243" lon="4.37213">
        <ele>110.4</ele>
        <time>2014-10-26T13:19:02Z</time>
      </trkpt>
      <trkpt lat="43.99233" lon="4.37216">
        <ele>110.4</ele>
        <time>2014-10-26T13:19:09Z</time>
      </trkpt>
      <trkpt lat="43.99225" lon="4.3722">
        <ele>110.3</ele>
        <time>2014-10-26T13:19:15Z</time>
      </trkpt>
      <trkpt lat="43.99215" lon="4.37222">
        <ele>110.5</ele>
        <time>2014-10-26T13:19:22Z</time>
      </trkpt>
      <trkpt lat="43.99205" lon="4.37224">
        <ele>110.8</ele>
        <time>2014-10-26T13:19:29Z</time>
      </trkpt>
      <trkpt lat="43.99196" lon="4.37225">
        <ele>110.5</ele>
        <time>2014-10-26T13:19:36Z</time>
      </trkpt>
      <trkpt lat="43.99185" lon="4.37225">
        <ele>110.4</ele>
        <time>2014-10-26T13:19:42Z</time>
      </trkpt>
      <trkpt lat="43.99176" lon="4.37226">
        <ele>110.8</ele>
        <time>2014-10-26T13:19:49Z</time>
      </trkpt>
      <trkpt lat="43.99166" lon="4.37226">
        <ele>110.9</ele>
        <time>2014-10-26T13:19:56Z</time>
      </trkpt>
      <trkpt lat="43.99157" lon="4.37229">
        <ele>111.4</ele>
        <time>2014-10-26T13:20:03Z</time>
      </trkpt>
      <trkpt lat="43.99147" lon="4.37233">
        <ele>111.6</ele>
        <time>2014-10-26T13:20:08Z</time>
      </trkpt>
      <trkpt lat="43.99139" lon="4.37237">
        <ele>111.6</ele>
        <time>2014-10-26T13:20:14Z</time>
      </trkpt>
      <trkpt lat="43.9913" lon="4.37244">
        <ele>111.8</ele>
        <time>2014-10-26T13:20:20Z</time>
      </trkpt>
      <trkpt lat="43.99122" lon="4.37251">
        <ele>111.9</ele>
        <time>2014-10-26T13:20:25Z</time>
      </trkpt>
      <trkpt lat="43.99114" lon="4.37258">
        <ele>112.1</ele>
        <time>2014-10-26T13:20:32Z</time>
      </trkpt>
      <trkpt lat="43.99114" lon="4.3727">
        <ele>112.6</ele>
        <time>2014-10-26T13:20:39Z</time>
      </trkpt>
      <trkpt lat="43.99119" lon="4.37283">
        <ele>112.6</ele>
        <time>2014-10-26T13:20:46Z</time>
      </trkpt>
      <trkpt lat="43.99122" lon="4.37296">
        <ele>112.9</ele>
        <time>2014-10-26T13:20:52Z</time>
      </trkpt>
      <trkpt lat="43.99126" lon="4.37308">
        <ele>113.1</ele>
        <time>2014-10-26T13:20:58Z</time>
      </trkpt>
      <trkpt lat="43.9913" lon="4.3732">
        <ele>113.9</ele>
        <time>2014-10-26T13:21:04Z</time>
      </trkpt>
      <trkpt lat="43.99136" lon="4.3733">
        <ele>114.3</ele>
        <time>2014-10-26T13:21:10Z</time>
      </trkpt>
      <trkpt lat="43.99142" lon="4.37342">
        <ele>114.4</ele>
        <time>2014-10-26T13:21:16Z</time>
      </trkpt>
      <trkpt lat="43.99147" lon="4.37354">
        <ele>114.3</ele>
        <time>2014-10-26T13:21:22Z</time>
      </trkpt>
      <trkpt lat="43.99151" lon="4.37367">
        <ele>114.1</ele>
        <time>2014-10-26T13:21:27Z</time>
      </trkpt>
      <trkpt lat="43.99155" lon="4.37379">
        <ele>113.9</ele>
        <time>2014-10-26T13:21:32Z</time>
      </trkpt>
      <trkpt lat="43.9916" lon="4.37391">
        <ele>114.4</ele>
        <time>2014-10-26T13:21:38Z</time>
      </trkpt>
      <trkpt lat="43.99166" lon="4.37401">
        <ele>114.5</ele>
        <time>2014-10-26T13:21:43Z</time>
      </trkpt>
      <trkpt lat="43.99173" lon="4.3741">
        <ele>114.6</ele>
        <time>2014-10-26T13:21:49Z</time>
      </trkpt>
      <trkpt lat="43.9918" lon="4.3742">
        <ele>114.4</ele>
        <time>2014-10-26T13:21:55Z</time>
      </trkpt>
      <trkpt lat="43.99185" lon="4.37431">
        <ele>114.7</ele>
        <time>2014-10-26T13:22:01Z</time>
      </trkpt>
      <trkpt lat="43.99192" lon="4.3744">
        <ele>115</ele>
        <time>2014-10-26T13:22:08Z</time>
      </trkpt>
      <trkpt lat="43.99198" lon="4.37448">
        <ele>115.2</ele>
        <time>2014-10-26T13:22:13Z</time>
      </trkpt>
      <trkpt lat="43.99205" lon="4.37459">
        <ele>115.3</ele>
        <time>2014-10-26T13:22:19Z</time>
      </trkpt>
      <trkpt lat="43.99211" lon="4.37471">
        <ele>114.9</ele>
        <time>2014-10-26T13:22:25Z</time>
      </trkpt>
      <trkpt lat="43.99218" lon="4.3748">
        <ele>115.5</ele>
        <time>2014-10-26T13:22:30Z</time>
      </trkpt>
      <trkpt lat="43.99225" lon="4.37489">
        <ele>115.9</ele>
        <time>2014-10-26T13:22:35Z</time>
      </trkpt>
      <trkpt lat="43.99231" lon="4.37498">
        <ele>115.5</ele>
        <time>2014-10-26T13:22:40Z</time>
      </trkpt>
      <trkpt lat="43.99238" lon="4.37509">
        <ele>115.2</ele>
        <time>2014-10-26T13:22:46Z</time>
      </trkpt>
      <trkpt lat="43.99245" lon="4.37519">
        <ele>115.6</ele>
        <time>2014-10-26T13:22:52Z</time>
      </trkpt>
      <trkpt lat="43.99252" lon="4.37529">
        <ele>115.9</ele>
        <time>2014-10-26T13:22:58Z</time>
      </trkpt>
      <trkpt lat="43.99261" lon="4.37538">
        <ele>116.6</ele>
        <time>2014-10-26T13:23:04Z</time>
      </trkpt>
      <trkpt lat="43.99268" lon="4.37548">
        <ele>116.9</ele>
        <time>2014-10-26T13:23:11Z</time>
      </trkpt>
      <trkpt lat="43.99275" lon="4.37556">
        <ele>117.2</ele>
        <time>2014-10-26T13:23:17Z</time>
      </trkpt>
      <trkpt lat="43.99282" lon="4.37564">
        <ele>117.2</ele>
        <time>2014-10-26T13:23:23Z</time>
      </trkpt>
      <trkpt lat="43.9929" lon="4.37575">
        <ele>117.5</ele>
        <time>2014-10-26T13:23:30Z</time>
      </trkpt>
      <trkpt lat="43.99294" lon="4.37586">
        <ele>117.8</ele>
        <time>2014-10-26T13:23:35Z</time>
      </trkpt>
      <trkpt lat="43.993" lon="4.37597">
        <ele>117.7</ele>
        <time>2014-10-26T13:23:40Z</time>
      </trkpt>
      <trkpt lat="43.99307" lon="4.37607">
        <ele>117.8</ele>
        <time>2014-10-26T13:23:46Z</time>
      </trkpt>
      <trkpt lat="43.99313" lon="4.37617">
        <ele>117.5</ele>
        <time>2014-10-26T13:23:51Z</time>
      </trkpt>
      <trkpt lat="43.9932" lon="4.37627">
        <ele>117.9</ele>
        <time>2014-10-26T13:23:57Z</time>
      </trkpt>
      <trkpt lat="43.99326" lon="4.3764">
        <ele>118.1</ele>
        <time>2014-10-26T13:24:03Z</time>
      </trkpt>
      <trkpt lat="43.99331" lon="4.37651">
        <ele>118</ele>
        <time>2014-10-26T13:24:09Z</time>
      </trkpt>
      <trkpt lat="43.99337" lon="4.37663">
        <ele>118.1</ele>
        <time>2014-10-26T13:24:14Z</time>
      </trkpt>
      <trkpt lat="43.99343" lon="4.37673">
        <ele>117.9</ele>
        <time>2014-10-26T13:24:20Z</time>
      </trkpt>
      <trkpt lat="43.99349" lon="4.37684">
        <ele>117.8</ele>
        <time>2014-10-26T13:24:25Z</time>
      </trkpt>
      <trkpt lat="43.99352" lon="4.37697">
        <ele>117.4</ele>
        <time>2014-10-26T13:24:31Z</time>
      </trkpt>
      <trkpt lat="43.99356" lon="4.37709">
        <ele>117.7</ele>
        <time>2014-10-26T13:24:38Z</time>
      </trkpt>
      <trkpt lat="43.99362" lon="4.37719">
        <ele>117.8</ele>
        <time>2014-10-26T13:24:43Z</time>
      </trkpt>
      <trkpt lat="43.99365" lon="4.37732">
        <ele>117.7</ele>
        <time>2014-10-26T13:24:48Z</time>
      </trkpt>
      <trkpt lat="43.99367" lon="4.37745">
        <ele>117.9</ele>
        <time>2014-10-26T13:24:52Z</time>
      </trkpt>
      <trkpt lat="43.99372" lon="4.37758">
        <ele>117.5</ele>
        <time>2014-10-26T13:24:57Z</time>
      </trkpt>
      <trkpt lat="43.99375" lon="4.37771">
        <ele>117</ele>
        <time>2014-10-26T13:25:03Z</time>
      </trkpt>
      <trkpt lat="43.99379" lon="4.37784">
        <ele>116.5</ele>
        <time>2014-10-26T13:25:10Z</time>
      </trkpt>
      <trkpt lat="43.99384" lon="4.37796">
        <ele>116.1</ele>
        <time>2014-10-26T13:25:16Z</time>
      </trkpt>
      <trkpt lat="43.99387" lon="4.37808">
        <ele>115.4</ele>
        <time>2014-10-26T13:25:21Z</time>
      </trkpt>
      <trkpt lat="43.99392" lon="4.37821">
        <ele>115.3</ele>
        <time>2014-10-26T13:25:27Z</time>
      </trkpt>
      <trkpt lat="43.99398" lon="4.37834">
        <ele>115.1</ele>
        <time>2014-10-26T13:25:33Z</time>
      </trkpt>
      <trkpt lat="43.99402" lon="4.37847">
        <ele>115.1</ele>
        <time>2014-10-26T13:25:39Z</time>
      </trkpt>
      <trkpt lat="43.99405" lon="4.37859">
        <ele>114.9</ele>
        <time>2014-10-26T13:25:47Z</time>
      </trkpt>
      <trkpt lat="43.9941" lon="4.37871">
        <ele>114.7</ele>
        <time>2014-10-26T13:25:54Z</time>
      </trkpt>
      <trkpt lat="43.99413" lon="4.37883">
        <ele>114.1</ele>
        <time>2014-10-26T13:26:01Z</time>
      </trkpt>
      <trkpt lat="43.99414" lon="4.37897">
        <ele>114.1</ele>
        <time>2014-10-26T13:26:06Z</time>
      </trkpt>
      <trkpt lat="43.99415" lon="4.3791">
        <ele>113.7</ele>
        <time>2014-10-26T13:26:11Z</time>
      </trkpt>
      <trkpt lat="43.99417" lon="4.37924">
        <ele>113.1</ele>
        <time>2014-10-26T13:26:17Z</time>
      </trkpt>
      <trkpt lat="43.99419" lon="4.37936">
        <ele>112.5</ele>
        <time>2014-10-26T13:26:24Z</time>
      </trkpt>
      <trkpt lat="43.99424" lon="4.37948">
        <ele>111.5</ele>
        <time>2014-10-26T13:26:31Z</time>
      </trkpt>
      <trkpt lat="43.99427" lon="4.37962">
        <ele>111.3</ele>
        <time>2014-10-26T13:26:34Z</time>
      </trkpt>
      <trkpt lat="43.99431" lon="4.37974">
        <ele>111.2</ele>
        <time>2014-10-26T13:26:40Z</time>
      </trkpt>
      <trkpt lat="43.99432" lon="4.37988">
        <ele>111.2</ele>
        <time>2014-10-26T13:26:43Z</time>
      </trkpt>
      <trkpt lat="43.99434" lon="4.38002">
        <ele>110.7</ele>
        <time>2014-10-26T13:26:48Z</time>
      </trkpt>
      <trkpt lat="43.99435" lon="4.38017">
        <ele>109.8</ele>
        <time>2014-10-26T13:26:54Z</time>
      </trkpt>
      <trkpt lat="43.99435" lon="4.38029">
        <ele>108.7</ele>
        <time>2014-10-26T13:26:59Z</time>
      </trkpt>
      <trkpt lat="43.99436" lon="4.38042">
        <ele>108.5</ele>
        <time>2014-10-26T13:27:04Z</time>
      </trkpt>
      <trkpt lat="43.99438" lon="4.38056">
        <ele>108.1</ele>
        <time>2014-10-26T13:27:10Z</time>
      </trkpt>
      <trkpt lat="43.99438" lon="4.38069">
        <ele>107.2</ele>
        <time>2014-10-26T13:27:17Z</time>
      </trkpt>
      <trkpt lat="43.9944" lon="4.38082">
        <ele>106.2</ele>
        <time>2014-10-26T13:27:23Z</time>
      </trkpt>
      <trkpt lat="43.99441" lon="4.38095">
        <ele>105.1</ele>
        <time>2014-10-26T13:27:29Z</time>
      </trkpt>
      <trkpt lat="43.9944" lon="4.38108">
        <ele>105.1</ele>
        <time>2014-10-26T13:27:33Z</time>
      </trkpt>
      <trkpt lat="43.99441" lon="4.38121">
        <ele>105</ele>
        <time>2014-10-26T13:27:37Z</time>
      </trkpt>
      <trkpt lat="43.99443" lon="4.38135">
        <ele>104.8</ele>
        <time>2014-10-26T13:27:43Z</time>
      </trkpt>
      <trkpt lat="43.99444" lon="4.38149">
        <ele>104.1</ele>
        <time>2014-10-26T13:27:49Z</time>
      </trkpt>
      <trkpt lat="43.99447" lon="4.38162">
        <ele>103.8</ele>
        <time>2014-10-26T13:27:55Z</time>
      </trkpt>
      <trkpt lat="43.99449" lon="4.38175">
        <ele>103</ele>
        <time>2014-10-26T13:28:02Z</time>
      </trkpt>
      <trkpt lat="43.99452" lon="4.38187">
        <ele>102.7</ele>
        <time>2014-10-26T13:28:08Z</time>
      </trkpt>
      <trkpt lat="43.99454" lon="4.382">
        <ele>102.2</ele>
        <time>2014-10-26T13:28:15Z</time>
      </trkpt>
      <trkpt lat="43.99458" lon="4.38212">
        <ele>101.1</ele>
        <time>2014-10-26T13:28:23Z</time>
      </trkpt>
      <trkpt lat="43.99463" lon="4.38225">
        <ele>99.9</ele>
        <time>2014-10-26T13:28:30Z</time>
      </trkpt>
      <trkpt lat="43.99465" lon="4.38238">
        <ele>99.6</ele>
        <time>2014-10-26T13:28:36Z</time>
      </trkpt>
      <trkpt lat="43.9947" lon="4.3825">
        <ele>99.4</ele>
        <time>2014-10-26T13:28:41Z</time>
      </trkpt>
      <trkpt lat="43.99474" lon="4.38263">
        <ele>98.6</ele>
        <time>2014-10-26T13:28:48Z</time>
      </trkpt>
      <trkpt lat="43.99479" lon="4.38276">
        <ele>98.1</ele>
        <time>2014-10-26T13:28:53Z</time>
      </trkpt>
      <trkpt lat="43.99482" lon="4.38288">
        <ele>97.8</ele>
        <time>2014-10-26T13:28:58Z</time>
      </trkpt>
      <trkpt lat="43.99488" lon="4.38299">
        <ele>97.8</ele>
        <time>2014-10-26T13:29:04Z</time>
      </trkpt>
      <trkpt lat="43.99491" lon="4.38314">
        <ele>97.4</ele>
        <time>2014-10-26T13:29:08Z</time>
      </trkpt>
      <trkpt lat="43.99497" lon="4.38325">
        <ele>97.1</ele>
        <time>2014-10-26T13:29:13Z</time>
      </trkpt>
      <trkpt lat="43.99502" lon="4.38337">
        <ele>97.2</ele>
        <time>2014-10-26T13:29:18Z</time>
      </trkpt>
      <trkpt lat="43.99509" lon="4.38348">
        <ele>96.6</ele>
        <time>2014-10-26T13:29:25Z</time>
      </trkpt>
      <trkpt lat="43.99516" lon="4.38358">
        <ele>95.8</ele>
        <time>2014-10-26T13:29:33Z</time>
      </trkpt>
      <trkpt lat="43.9952" lon="4.38371">
        <ele>95</ele>
        <time>2014-10-26T13:29:38Z</time>
      </trkpt>
      <trkpt lat="43.99526" lon="4.38381">
        <ele>95.1</ele>
        <time>2014-10-26T13:29:44Z</time>
      </trkpt>
      <trkpt lat="43.99534" lon="4.38388">
        <ele>94</ele>
        <time>2014-10-26T13:29:53Z</time>
      </trkpt>
      <trkpt lat="43.99542" lon="4.38397">
        <ele>92.8</ele>
        <time>2014-10-26T13:30:03Z</time>
      </trkpt>
      <trkpt lat="43.99551" lon="4.38401">
        <ele>92.6</ele>
        <time>2014-10-26T13:30:09Z</time>
      </trkpt>
      <trkpt lat="43.99561" lon="4.38407">
        <ele>92.1</ele>
        <time>2014-10-26T13:30:15Z</time>
      </trkpt>
      <trkpt lat="43.99571" lon="4.3841">
        <ele>91.8</ele>
        <time>2014-10-26T13:30:19Z</time>
      </trkpt>
      <trkpt lat="43.99578" lon="4.38419">
        <ele>91.3</ele>
        <time>2014-10-26T13:30:25Z</time>
      </trkpt>
      <trkpt lat="43.99581" lon="4.38432">
        <ele>90.6</ele>
        <time>2014-10-26T13:30:31Z</time>
      </trkpt>
      <trkpt lat="43.9958" lon="4.38444">
        <ele>90.7</ele>
        <time>2014-10-26T13:30:36Z</time>
      </trkpt>
      <trkpt lat="43.99582" lon="4.3846">
        <ele>90.7</ele>
        <time>2014-10-26T13:30:41Z</time>
      </trkpt>
      <trkpt lat="43.99582" lon="4.38472">
        <ele>89.9</ele>
        <time>2014-10-26T13:30:46Z</time>
      </trkpt>
      <trkpt lat="43.99586" lon="4.38484">
        <ele>90.2</ele>
        <time>2014-10-26T13:30:51Z</time>
      </trkpt>
      <trkpt lat="43.99594" lon="4.38493">
        <ele>89.6</ele>
        <time>2014-10-26T13:30:58Z</time>
      </trkpt>
      <trkpt lat="43.99603" lon="4.38501">
        <ele>89.3</ele>
        <time>2014-10-26T13:31:03Z</time>
      </trkpt>
      <trkpt lat="43.99611" lon="4.38511">
        <ele>89.6</ele>
        <time>2014-10-26T13:31:10Z</time>
      </trkpt>
      <trkpt lat="43.99619" lon="4.38519">
        <ele>89.3</ele>
        <time>2014-10-26T13:31:14Z</time>
      </trkpt>
      <trkpt lat="43.99626" lon="4.38528">
        <ele>89.1</ele>
        <time>2014-10-26T13:31:19Z</time>
      </trkpt>
      <trkpt lat="43.99634" lon="4.38537">
        <ele>89.3</ele>
        <time>2014-10-26T13:31:25Z</time>
      </trkpt>
      <trkpt lat="43.99643" lon="4.38539">
        <ele>89.4</ele>
        <time>2014-10-26T13:31:30Z</time>
      </trkpt>
      <trkpt lat="43.99652" lon="4.38536">
        <ele>89.6</ele>
        <time>2014-10-26T13:31:36Z</time>
      </trkpt>
      <trkpt lat="43.99661" lon="4.38536">
        <ele>89.2</ele>
        <time>2014-10-26T13:31:42Z</time>
      </trkpt>
      <trkpt lat="43.99671" lon="4.38536">
        <ele>89.8</ele>
        <time>2014-10-26T13:31:49Z</time>
      </trkpt>
      <trkpt lat="43.9968" lon="4.38538">
        <ele>90.2</ele>
        <time>2014-10-26T13:31:58Z</time>
      </trkpt>
      <trkpt lat="43.99689" lon="4.3854">
        <ele>90.7</ele>
        <time>2014-10-26T13:32:08Z</time>
      </trkpt>
      <trkpt lat="43.99699" lon="4.38541">
        <ele>91.2</ele>
        <time>2014-10-26T13:32:16Z</time>
      </trkpt>
      <trkpt lat="43.99708" lon="4.38544">
        <ele>91.4</ele>
        <time>2014-10-26T13:32:22Z</time>
      </trkpt>
      <trkpt lat="43.99716" lon="4.38548">
        <ele>91.9</ele>
        <time>2014-10-26T13:32:30Z</time>
      </trkpt>
      <trkpt lat="43.99726" lon="4.38552">
        <ele>91.7</ele>
        <time>2014-10-26T13:32:40Z</time>
      </trkpt>
      <trkpt lat="43.99735" lon="4.38558">
        <ele>91.3</ele>
        <time>2014-10-26T13:32:48Z</time>
      </trkpt>
      <trkpt lat="43.99746" lon="4.38562">
        <ele>90.5</ele>
        <time>2014-10-26T13:32:54Z</time>
      </trkpt>
      <trkpt lat="43.99755" lon="4.38564">
        <ele>89.6</ele>
        <time>2014-10-26T13:33:00Z</time>
      </trkpt>
      <trkpt lat="43.99765" lon="4.38564">
        <ele>89.1</ele>
        <time>2014-10-26T13:33:05Z</time>
      </trkpt>
      <trkpt lat="43.99774" lon="4.38565">
        <ele>88.7</ele>
        <time>2014-10-26T13:33:11Z</time>
      </trkpt>
      <trkpt lat="43.99784" lon="4.38564">
        <ele>88.5</ele>
        <time>2014-10-26T13:33:17Z</time>
      </trkpt>
      <trkpt lat="43.99793" lon="4.38564">
        <ele>88.4</ele>
        <time>2014-10-26T13:33:23Z</time>
      </trkpt>
      <trkpt lat="43.99804" lon="4.38562">
        <ele>88.4</ele>
        <time>2014-10-26T13:33:28Z</time>
      </trkpt>
      <trkpt lat="43.99815" lon="4.3856">
        <ele>88.2</ele>
        <time>2014-10-26T13:33:34Z</time>
      </trkpt>
      <trkpt lat="43.99824" lon="4.38559">
        <ele>88</ele>
        <time>2014-10-26T13:33:38Z</time>
      </trkpt>
      <trkpt lat="43.99833" lon="4.38557">
        <ele>88.6</ele>
        <time>2014-10-26T13:33:41Z</time>
      </trkpt>
      <trkpt lat="43.99844" lon="4.38555">
        <ele>88.6</ele>
        <time>2014-10-26T13:33:44Z</time>
      </trkpt>
      <trkpt lat="43.99854" lon="4.38555">
        <ele>88.5</ele>
        <time>2014-10-26T13:33:48Z</time>
      </trkpt>
      <trkpt lat="43.99865" lon="4.38556">
        <ele>88.4</ele>
        <time>2014-10-26T13:33:52Z</time>
      </trkpt>
      <trkpt lat="43.99875" lon="4.38556">
        <ele>88.5</ele>
        <time>2014-10-26T13:33:57Z</time>
      </trkpt>
      <trkpt lat="43.99884" lon="4.38556">
        <ele>88.5</ele>
        <time>2014-10-26T13:34:02Z</time>
      </trkpt>
      <trkpt lat="43.99894" lon="4.38556">
        <ele>88.9</ele>
        <time>2014-10-26T13:34:08Z</time>
      </trkpt>
      <trkpt lat="43.99904" lon="4.38555">
        <ele>88.9</ele>
        <time>2014-10-26T13:34:15Z</time>
      </trkpt>
      <trkpt lat="43.99913" lon="4.38552">
        <ele>89</ele>
        <time>2014-10-26T13:34:20Z</time>
      </trkpt>
      <trkpt lat="43.99922" lon="4.38558">
        <ele>89.4</ele>
        <time>2014-10-26T13:34:31Z</time>
      </trkpt>
      <trkpt lat="43.99933" lon="4.38555">
        <ele>89.5</ele>
        <time>2014-10-26T13:34:39Z</time>
      </trkpt>
      <trkpt lat="43.99942" lon="4.3855">
        <ele>89.8</ele>
        <time>2014-10-26T13:34:43Z</time>
      </trkpt>
      <trkpt lat="43.99952" lon="4.38545">
        <ele>89</ele>
        <time>2014-10-26T13:34:48Z</time>
      </trkpt>
      <trkpt lat="43.9996" lon="4.38541">
        <ele>89.2</ele>
        <time>2014-10-26T13:34:51Z</time>
      </trkpt>
      <trkpt lat="43.99969" lon="4.38537">
        <ele>89.3</ele>
        <time>2014-10-26T13:34:56Z</time>
      </trkpt>
      <trkpt lat="43.99979" lon="4.38535">
        <ele>89</ele>
        <time>2014-10-26T13:35:09Z</time>
      </trkpt>
      <trkpt lat="43.99989" lon="4.38533">
        <ele>88.6</ele>
        <time>2014-10-26T13:35:16Z</time>
      </trkpt>
      <trkpt lat="43.99997" lon="4.38529">
        <ele>87.9</ele>
        <time>2014-10-26T13:35:24Z</time>
      </trkpt>
      <trkpt lat="44.00009" lon="4.38527">
        <ele>87.9</ele>
        <time>2014-10-26T13:35:29Z</time>
      </trkpt>
      <trkpt lat="44.00019" lon="4.38523">
        <ele>88.3</ele>
        <time>2014-10-26T13:35:36Z</time>
      </trkpt>
      <trkpt lat="44.0003" lon="4.38521">
        <ele>88.1</ele>
        <time>2014-10-26T13:35:54Z</time>
      </trkpt>
      <trkpt lat="44.0004" lon="4.38517">
        <ele>87.8</ele>
        <time>2014-10-26T13:36:05Z</time>
      </trkpt>
      <trkpt lat="44.00049" lon="4.38522">
        <ele>87.6</ele>
        <time>2014-10-26T13:36:14Z</time>
      </trkpt>
      <trkpt lat="44.00059" lon="4.38523">
        <ele>87.7</ele>
        <time>2014-10-26T13:36:19Z</time>
      </trkpt>
      <trkpt lat="44.0007" lon="4.38528">
        <ele>87.9</ele>
        <time>2014-10-26T13:36:24Z</time>
      </trkpt>
      <trkpt lat="44.00079" lon="4.38528">
        <ele>88.2</ele>
        <time>2014-10-26T13:36:35Z</time>
      </trkpt>
      <trkpt lat="44.00088" lon="4.38524">
        <ele>88.5</ele>
        <time>2014-10-26T13:36:43Z</time>
      </trkpt>
      <trkpt lat="44.00097" lon="4.38519">
        <ele>88.3</ele>
        <time>2014-10-26T13:36:49Z</time>
      </trkpt>
      <trkpt lat="44.00105" lon="4.38524">
        <ele>87.9</ele>
        <time>2014-10-26T13:37:04Z</time>
      </trkpt>
      <trkpt lat="44.00114" lon="4.38522">
        <ele>87.9</ele>
        <time>2014-10-26T13:37:17Z</time>
      </trkpt>
      <trkpt lat="44.00124" lon="4.38518">
        <ele>87.8</ele>
        <time>2014-10-26T13:37:23Z</time>
      </trkpt>
      <trkpt lat="44.00133" lon="4.38513">
        <ele>88.1</ele>
        <time>2014-10-26T13:37:29Z</time>
      </trkpt>
      <trkpt lat="44.00143" lon="4.38508">
        <ele>85.4</ele>
        <time>2014-10-26T13:37:35Z</time>
      </trkpt>
      <trkpt lat="44.00151" lon="4.38502">
        <ele>87.6</ele>
        <time>2014-10-26T13:37:41Z</time>
      </trkpt>
      <trkpt lat="44.00161" lon="4.38497">
        <ele>88.4</ele>
        <time>2014-10-26T13:37:48Z</time>
      </trkpt>
      <trkpt lat="44.00171" lon="4.38489">
        <ele>88</ele>
        <time>2014-10-26T13:37:57Z</time>
      </trkpt>
      <trkpt lat="44.00179" lon="4.38482">
        <ele>88.8</ele>
        <time>2014-10-26T13:38:06Z</time>
      </trkpt>
      <trkpt lat="44.00188" lon="4.38476">
        <ele>89.3</ele>
        <time>2014-10-26T13:38:12Z</time>
      </trkpt>
      <trkpt lat="44.00196" lon="4.38471">
        <ele>89.6</ele>
        <time>2014-10-26T13:38:19Z</time>
      </trkpt>
      <trkpt lat="44.00204" lon="4.38463">
        <ele>89.8</ele>
        <time>2014-10-26T13:38:27Z</time>
      </trkpt>
      <trkpt lat="44.00212" lon="4.38458">
        <ele>89.9</ele>
        <time>2014-10-26T13:38:32Z</time>
      </trkpt>
      <trkpt lat="44.00222" lon="4.38451">
        <ele>89.9</ele>
        <time>2014-10-26T13:38:38Z</time>
      </trkpt>
      <trkpt lat="44.00231" lon="4.38445">
        <ele>90.2</ele>
        <time>2014-10-26T13:38:43Z</time>
      </trkpt>
      <trkpt lat="44.0024" lon="4.38439">
        <ele>90</ele>
        <time>2014-10-26T13:38:50Z</time>
      </trkpt>
      <trkpt lat="44.00249" lon="4.38433">
        <ele>90.2</ele>
        <time>2014-10-26T13:38:55Z</time>
      </trkpt>
      <trkpt lat="44.00257" lon="4.38428">
        <ele>90.4</ele>
        <time>2014-10-26T13:39:00Z</time>
      </trkpt>
      <trkpt lat="44.00265" lon="4.3842">
        <ele>90.6</ele>
        <time>2014-10-26T13:39:08Z</time>
      </trkpt>
      <trkpt lat="44.00273" lon="4.38412">
        <ele>90.7</ele>
        <time>2014-10-26T13:39:14Z</time>
      </trkpt>
      <trkpt lat="44.00282" lon="4.38404">
        <ele>90.3</ele>
        <time>2014-10-26T13:39:20Z</time>
      </trkpt>
      <trkpt lat="44.00291" lon="4.38399">
        <ele>90</ele>
        <time>2014-10-26T13:39:27Z</time>
      </trkpt>
      <trkpt lat="44.00301" lon="4.38406">
        <ele>88.9</ele>
        <time>2014-10-26T13:39:40Z</time>
      </trkpt>
      <trkpt lat="44.00309" lon="4.3841">
        <ele>88.6</ele>
        <time>2014-10-26T13:39:46Z</time>
      </trkpt>
      <trkpt lat="44.00319" lon="4.38416">
        <ele>88.3</ele>
        <time>2014-10-26T13:39:52Z</time>
      </trkpt>
      <trkpt lat="44.00329" lon="4.38418">
        <ele>88.6</ele>
        <time>2014-10-26T13:39:55Z</time>
      </trkpt>
      <trkpt lat="44.00338" lon="4.38426">
        <ele>88.6</ele>
        <time>2014-10-26T13:39:58Z</time>
      </trkpt>
      <trkpt lat="44.00346" lon="4.38432">
        <ele>88.3</ele>
        <time>2014-10-26T13:40:05Z</time>
      </trkpt>
      <trkpt lat="44.00355" lon="4.38435">
        <ele>88</ele>
        <time>2014-10-26T13:40:11Z</time>
      </trkpt>
      <trkpt lat="44.00364" lon="4.38439">
        <ele>88.2</ele>
        <time>2014-10-26T13:40:18Z</time>
      </trkpt>
      <trkpt lat="44.00375" lon="4.38441">
        <ele>87.8</ele>
        <time>2014-10-26T13:40:25Z</time>
      </trkpt>
      <trkpt lat="44.00384" lon="4.38443">
        <ele>88</ele>
        <time>2014-10-26T13:40:30Z</time>
      </trkpt>
      <trkpt lat="44.00393" lon="4.38447">
        <ele>87.9</ele>
        <time>2014-10-26T13:40:38Z</time>
      </trkpt>
      <trkpt lat="44.00402" lon="4.38448">
        <ele>88</ele>
        <time>2014-10-26T13:40:45Z</time>
      </trkpt>
      <trkpt lat="44.00411" lon="4.38449">
        <ele>87.9</ele>
        <time>2014-10-26T13:40:51Z</time>
      </trkpt>
      <trkpt lat="44.0042" lon="4.3845">
        <ele>87.7</ele>
        <time>2014-10-26T13:40:57Z</time>
      </trkpt>
      <trkpt lat="44.0043" lon="4.38451">
        <ele>87.8</ele>
        <time>2014-10-26T13:41:02Z</time>
      </trkpt>
      <trkpt lat="44.00439" lon="4.38454">
        <ele>87.6</ele>
        <time>2014-10-26T13:41:09Z</time>
      </trkpt>
      <trkpt lat="44.00449" lon="4.38455">
        <ele>87.5</ele>
        <time>2014-10-26T13:41:13Z</time>
      </trkpt>
      <trkpt lat="44.0046" lon="4.38457">
        <ele>87.2</ele>
        <time>2014-10-26T13:41:19Z</time>
      </trkpt>
      <trkpt lat="44.00471" lon="4.38459">
        <ele>87.1</ele>
        <time>2014-10-26T13:41:23Z</time>
      </trkpt>
      <trkpt lat="44.0048" lon="4.3846">
        <ele>87.2</ele>
        <time>2014-10-26T13:41:26Z</time>
      </trkpt>
      <trkpt lat="44.0049" lon="4.38465">
        <ele>86.9</ele>
        <time>2014-10-26T13:41:32Z</time>
      </trkpt>
      <trkpt lat="44.00499" lon="4.38468">
        <ele>86.4</ele>
        <time>2014-10-26T13:41:39Z</time>
      </trkpt>
      <trkpt lat="44.00509" lon="4.38473">
        <ele>85.8</ele>
        <time>2014-10-26T13:41:45Z</time>
      </trkpt>
      <trkpt lat="44.00518" lon="4.38478">
        <ele>85.7</ele>
        <time>2014-10-26T13:41:51Z</time>
      </trkpt>
      <trkpt lat="44.00527" lon="4.38483">
        <ele>85.6</ele>
        <time>2014-10-26T13:41:56Z</time>
      </trkpt>
      <trkpt lat="44.00536" lon="4.38489">
        <ele>85.6</ele>
        <time>2014-10-26T13:42:01Z</time>
      </trkpt>
      <trkpt lat="44.00545" lon="4.38493">
        <ele>85.6</ele>
        <time>2014-10-26T13:42:07Z</time>
      </trkpt>
      <trkpt lat="44.00553" lon="4.38498">
        <ele>85.4</ele>
        <time>2014-10-26T13:42:13Z</time>
      </trkpt>
      <trkpt lat="44.00563" lon="4.38504">
        <ele>84.8</ele>
        <time>2014-10-26T13:42:20Z</time>
      </trkpt>
      <trkpt lat="44.00573" lon="4.38512">
        <ele>85</ele>
        <time>2014-10-26T13:42:25Z</time>
      </trkpt>
      <trkpt lat="44.00581" lon="4.38519">
        <ele>84.5</ele>
        <time>2014-10-26T13:42:29Z</time>
      </trkpt>
      <trkpt lat="44.0059" lon="4.38526">
        <ele>84.3</ele>
        <time>2014-10-26T13:42:33Z</time>
      </trkpt>
      <trkpt lat="44.00597" lon="4.38534">
        <ele>84.2</ele>
        <time>2014-10-26T13:42:38Z</time>
      </trkpt>
      <trkpt lat="44.00603" lon="4.38543">
        <ele>84.1</ele>
        <time>2014-10-26T13:42:50Z</time>
      </trkpt>
      <trkpt lat="44.00612" lon="4.38543">
        <ele>84.2</ele>
        <time>2014-10-26T13:42:55Z</time>
      </trkpt>
      <trkpt lat="44.00624" lon="4.38541">
        <ele>84.2</ele>
        <time>2014-10-26T13:43:03Z</time>
      </trkpt>
      <trkpt lat="44.00633" lon="4.38543">
        <ele>84</ele>
        <time>2014-10-26T13:43:13Z</time>
      </trkpt>
      <trkpt lat="44.0064" lon="4.38551">
        <ele>81.2</ele>
        <time>2014-10-26T13:45:30Z</time>
      </trkpt>
      <trkpt lat="44.00648" lon="4.38558">
        <ele>82.5</ele>
        <time>2014-10-26T13:45:40Z</time>
      </trkpt>
      <trkpt lat="44.0066" lon="4.3857">
        <ele>83</ele>
        <time>2014-10-26T13:46:54Z</time>
      </trkpt>
      <trkpt lat="44.00667" lon="4.38578">
        <ele>83</ele>
        <time>2014-10-26T13:47:01Z</time>
      </trkpt>
      <trkpt lat="44.0067" lon="4.3859">
        <ele>83.3</ele>
        <time>2014-10-26T13:47:07Z</time>
      </trkpt>
      <trkpt lat="44.00672" lon="4.38603">
        <ele>83.7</ele>
        <time>2014-10-26T13:47:13Z</time>
      </trkpt>
      <trkpt lat="44.00673" lon="4.38616">
        <ele>83.6</ele>
        <time>2014-10-26T13:47:20Z</time>
      </trkpt>
      <trkpt lat="44.00676" lon="4.3863">
        <ele>84.1</ele>
        <time>2014-10-26T13:47:27Z</time>
      </trkpt>
      <trkpt lat="44.00677" lon="4.38644">
        <ele>84.6</ele>
        <time>2014-10-26T13:47:35Z</time>
      </trkpt>
      <trkpt lat="44.00678" lon="4.38658">
        <ele>85.2</ele>
        <time>2014-10-26T13:47:41Z</time>
      </trkpt>
      <trkpt lat="44.00681" lon="4.38671">
        <ele>85.8</ele>
        <time>2014-10-26T13:47:50Z</time>
      </trkpt>
      <trkpt lat="44.00684" lon="4.38685">
        <ele>86.4</ele>
        <time>2014-10-26T13:47:59Z</time>
      </trkpt>
      <trkpt lat="44.00686" lon="4.38698">
        <ele>86.9</ele>
        <time>2014-10-26T13:48:03Z</time>
      </trkpt>
      <trkpt lat="44.0069" lon="4.38714">
        <ele>87.3</ele>
        <time>2014-10-26T13:48:07Z</time>
      </trkpt>
      <trkpt lat="44.00695" lon="4.38726">
        <ele>88.5</ele>
        <time>2014-10-26T13:48:13Z</time>
      </trkpt>
      <trkpt lat="44.00699" lon="4.38739">
        <ele>90.4</ele>
        <time>2014-10-26T13:48:29Z</time>
      </trkpt>
      <trkpt lat="44.00697" lon="4.38753">
        <ele>91.2</ele>
        <time>2014-10-26T13:48:36Z</time>
      </trkpt>
      <trkpt lat="44.00699" lon="4.38766">
        <ele>91.9</ele>
        <time>2014-10-26T13:48:44Z</time>
      </trkpt>
      <trkpt lat="44.00699" lon="4.38779">
        <ele>92.7</ele>
        <time>2014-10-26T13:48:51Z</time>
      </trkpt>
      <trkpt lat="44.00702" lon="4.38792">
        <ele>92.8</ele>
        <time>2014-10-26T13:48:57Z</time>
      </trkpt>
      <trkpt lat="44.00707" lon="4.38803">
        <ele>93.1</ele>
        <time>2014-10-26T13:49:04Z</time>
      </trkpt>
      <trkpt lat="44.0071" lon="4.38816">
        <ele>92.9</ele>
        <time>2014-10-26T13:49:08Z</time>
      </trkpt>
      <trkpt lat="44.00715" lon="4.38827">
        <ele>93.2</ele>
        <time>2014-10-26T13:49:15Z</time>
      </trkpt>
      <trkpt lat="44.00718" lon="4.38842">
        <ele>93.3</ele>
        <time>2014-10-26T13:49:22Z</time>
      </trkpt>
      <trkpt lat="44.00723" lon="4.38854">
        <ele>93.2</ele>
        <time>2014-10-26T13:49:27Z</time>
      </trkpt>
      <trkpt lat="44.00726" lon="4.38866">
        <ele>93.3</ele>
        <time>2014-10-26T13:49:31Z</time>
      </trkpt>
      <trkpt lat="44.00729" lon="4.38881">
        <ele>93.4</ele>
        <time>2014-10-26T13:49:36Z</time>
      </trkpt>
      <trkpt lat="44.00734" lon="4.38893">
        <ele>93.4</ele>
        <time>2014-10-26T13:49:43Z</time>
      </trkpt>
      <trkpt lat="44.00737" lon="4.38907">
        <ele>94.1</ele>
        <time>2014-10-26T13:49:49Z</time>
      </trkpt>
      <trkpt lat="44.00738" lon="4.38921">
        <ele>94.1</ele>
        <time>2014-10-26T13:49:54Z</time>
      </trkpt>
      <trkpt lat="44.00735" lon="4.38934">
        <ele>94.5</ele>
        <time>2014-10-26T13:50:01Z</time>
      </trkpt>
      <trkpt lat="44.00732" lon="4.38949">
        <ele>94.6</ele>
        <time>2014-10-26T13:50:06Z</time>
      </trkpt>
      <trkpt lat="44.00727" lon="4.38961">
        <ele>94.6</ele>
        <time>2014-10-26T13:50:12Z</time>
      </trkpt>
      <trkpt lat="44.00721" lon="4.38971">
        <ele>94.2</ele>
        <time>2014-10-26T13:50:18Z</time>
      </trkpt>
      <trkpt lat="44.00714" lon="4.38979">
        <ele>93.6</ele>
        <time>2014-10-26T13:50:23Z</time>
      </trkpt>
      <trkpt lat="44.00705" lon="4.38986">
        <ele>93.6</ele>
        <time>2014-10-26T13:50:30Z</time>
      </trkpt>
      <trkpt lat="44.00696" lon="4.38992">
        <ele>93.2</ele>
        <time>2014-10-26T13:50:36Z</time>
      </trkpt>
      <trkpt lat="44.00686" lon="4.38998">
        <ele>93</ele>
        <time>2014-10-26T13:50:41Z</time>
      </trkpt>
      <trkpt lat="44.00678" lon="4.39004">
        <ele>92.5</ele>
        <time>2014-10-26T13:50:46Z</time>
      </trkpt>
      <trkpt lat="44.00672" lon="4.39013">
        <ele>92.1</ele>
        <time>2014-10-26T13:50:58Z</time>
      </trkpt>
      <trkpt lat="44.00674" lon="4.39026">
        <ele>92.8</ele>
        <time>2014-10-26T13:51:06Z</time>
      </trkpt>
      <trkpt lat="44.00678" lon="4.39039">
        <ele>93.6</ele>
        <time>2014-10-26T13:51:13Z</time>
      </trkpt>
      <trkpt lat="44.00684" lon="4.39052">
        <ele>94.1</ele>
        <time>2014-10-26T13:51:21Z</time>
      </trkpt>
      <trkpt lat="44.00692" lon="4.39063">
        <ele>94.6</ele>
        <time>2014-10-26T13:51:27Z</time>
      </trkpt>
      <trkpt lat="44.00701" lon="4.3906">
        <ele>94.7</ele>
        <time>2014-10-26T13:51:34Z</time>
      </trkpt>
      <trkpt lat="44.00712" lon="4.39057">
        <ele>94.5</ele>
        <time>2014-10-26T13:51:43Z</time>
      </trkpt>
      <trkpt lat="44.00721" lon="4.39055">
        <ele>94.5</ele>
        <time>2014-10-26T13:51:52Z</time>
      </trkpt>
      <trkpt lat="44.0073" lon="4.39053">
        <ele>94.1</ele>
        <time>2014-10-26T13:51:58Z</time>
      </trkpt>
      <trkpt lat="44.00739" lon="4.3905">
        <ele>94.1</ele>
        <time>2014-10-26T13:52:04Z</time>
      </trkpt>
      <trkpt lat="44.0075" lon="4.39046">
        <ele>93.9</ele>
        <time>2014-10-26T13:52:09Z</time>
      </trkpt>
      <trkpt lat="44.0076" lon="4.39048">
        <ele>93.8</ele>
        <time>2014-10-26T13:52:12Z</time>
      </trkpt>
      <trkpt lat="44.0077" lon="4.39048">
        <ele>92.8</ele>
        <time>2014-10-26T13:52:18Z</time>
      </trkpt>
      <trkpt lat="44.0078" lon="4.3905">
        <ele>92.3</ele>
        <time>2014-10-26T13:52:25Z</time>
      </trkpt>
      <trkpt lat="44.00787" lon="4.39057">
        <ele>91.9</ele>
        <time>2014-10-26T13:52:32Z</time>
      </trkpt>
      <trkpt lat="44.00794" lon="4.39067">
        <ele>91.5</ele>
        <time>2014-10-26T13:52:38Z</time>
      </trkpt>
      <trkpt lat="44.008" lon="4.39076">
        <ele>91</ele>
        <time>2014-10-26T13:52:43Z</time>
      </trkpt>
      <trkpt lat="44.00808" lon="4.39086">
        <ele>91.1</ele>
        <time>2014-10-26T13:52:50Z</time>
      </trkpt>
      <trkpt lat="44.00814" lon="4.39097">
        <ele>90.4</ele>
        <time>2014-10-26T13:52:55Z</time>
      </trkpt>
      <trkpt lat="44.0082" lon="4.39107">
        <ele>90.2</ele>
        <time>2014-10-26T13:53:01Z</time>
      </trkpt>
      <trkpt lat="44.00827" lon="4.39117">
        <ele>90.2</ele>
        <time>2014-10-26T13:53:07Z</time>
      </trkpt>
      <trkpt lat="44.00832" lon="4.39128">
        <ele>90</ele>
        <time>2014-10-26T13:53:12Z</time>
      </trkpt>
      <trkpt lat="44.00837" lon="4.39139">
        <ele>90</ele>
        <time>2014-10-26T13:53:17Z</time>
      </trkpt>
      <trkpt lat="44.00842" lon="4.39151">
        <ele>89.6</ele>
        <time>2014-10-26T13:53:23Z</time>
      </trkpt>
      <trkpt lat="44.00848" lon="4.3916">
        <ele>89.4</ele>
        <time>2014-10-26T13:53:28Z</time>
      </trkpt>
      <trkpt lat="44.00854" lon="4.3917">
        <ele>89.1</ele>
        <time>2014-10-26T13:53:33Z</time>
      </trkpt>
      <trkpt lat="44.0086" lon="4.3918">
        <ele>89.1</ele>
        <time>2014-10-26T13:53:38Z</time>
      </trkpt>
      <trkpt lat="44.00866" lon="4.39193">
        <ele>88.9</ele>
        <time>2014-10-26T13:53:44Z</time>
      </trkpt>
      <trkpt lat="44.00873" lon="4.39204">
        <ele>88.8</ele>
        <time>2014-10-26T13:53:48Z</time>
      </trkpt>
      <trkpt lat="44.0088" lon="4.39214">
        <ele>88.8</ele>
        <time>2014-10-26T13:53:53Z</time>
      </trkpt>
      <trkpt lat="44.00888" lon="4.39224">
        <ele>88.9</ele>
        <time>2014-10-26T13:53:58Z</time>
      </trkpt>
      <trkpt lat="44.00895" lon="4.39233">
        <ele>88.8</ele>
        <time>2014-10-26T13:54:03Z</time>
      </trkpt>
      <trkpt lat="44.00902" lon="4.39244">
        <ele>88.6</ele>
        <time>2014-10-26T13:54:09Z</time>
      </trkpt>
      <trkpt lat="44.00908" lon="4.39255">
        <ele>88.2</ele>
        <time>2014-10-26T13:54:15Z</time>
      </trkpt>
      <trkpt lat="44.00915" lon="4.39265">
        <ele>87.9</ele>
        <time>2014-10-26T13:54:20Z</time>
      </trkpt>
      <trkpt lat="44.0092" lon="4.39277">
        <ele>87.5</ele>
        <time>2014-10-26T13:54:26Z</time>
      </trkpt>
      <trkpt lat="44.00925" lon="4.3929">
        <ele>87.5</ele>
        <time>2014-10-26T13:54:32Z</time>
      </trkpt>
      <trkpt lat="44.00931" lon="4.39301">
        <ele>86.9</ele>
        <time>2014-10-26T13:54:38Z</time>
      </trkpt>
      <trkpt lat="44.00936" lon="4.39312">
        <ele>86.9</ele>
        <time>2014-10-26T13:54:44Z</time>
      </trkpt>
      <trkpt lat="44.00943" lon="4.39322">
        <ele>87</ele>
        <time>2014-10-26T13:54:51Z</time>
      </trkpt>
      <trkpt lat="44.00947" lon="4.39334">
        <ele>86.8</ele>
        <time>2014-10-26T13:54:59Z</time>
      </trkpt>
      <trkpt lat="44.00951" lon="4.39347">
        <ele>86.4</ele>
        <time>2014-10-26T13:55:04Z</time>
      </trkpt>
      <trkpt lat="44.00954" lon="4.39358">
        <ele>86.3</ele>
        <time>2014-10-26T13:55:09Z</time>
      </trkpt>
      <trkpt lat="44.00959" lon="4.39372">
        <ele>86.4</ele>
        <time>2014-10-26T13:55:14Z</time>
      </trkpt>
      <trkpt lat="44.00963" lon="4.39384">
        <ele>86.3</ele>
        <time>2014-10-26T13:55:17Z</time>
      </trkpt>
      <trkpt lat="44.00965" lon="4.39397">
        <ele>86.4</ele>
        <time>2014-10-26T13:55:23Z</time>
      </trkpt>
      <trkpt lat="44.0097" lon="4.3941">
        <ele>86.3</ele>
        <time>2014-10-26T13:55:29Z</time>
      </trkpt>
      <trkpt lat="44.00974" lon="4.39422">
        <ele>86.3</ele>
        <time>2014-10-26T13:55:35Z</time>
      </trkpt>
      <trkpt lat="44.00978" lon="4.39434">
        <ele>85.8</ele>
        <time>2014-10-26T13:55:41Z</time>
      </trkpt>
      <trkpt lat="44.00983" lon="4.39447">
        <ele>85.8</ele>
        <time>2014-10-26T13:55:47Z</time>
      </trkpt>
      <trkpt lat="44.00987" lon="4.39458">
        <ele>85.6</ele>
        <time>2014-10-26T13:55:53Z</time>
      </trkpt>
      <trkpt lat="44.00991" lon="4.39472">
        <ele>85.4</ele>
        <time>2014-10-26T13:55:59Z</time>
      </trkpt>
      <trkpt lat="44.00994" lon="4.39484">
        <ele>85.3</ele>
        <time>2014-10-26T13:56:05Z</time>
      </trkpt>
      <trkpt lat="44.00999" lon="4.39495">
        <ele>85.5</ele>
        <time>2014-10-26T13:56:12Z</time>
      </trkpt>
      <trkpt lat="44.01002" lon="4.39507">
        <ele>85.7</ele>
        <time>2014-10-26T13:56:17Z</time>
      </trkpt>
      <trkpt lat="44.01006" lon="4.39519">
        <ele>86</ele>
        <time>2014-10-26T13:56:21Z</time>
      </trkpt>
      <trkpt lat="44.01008" lon="4.39532">
        <ele>86</ele>
        <time>2014-10-26T13:56:28Z</time>
      </trkpt>
      <trkpt lat="44.01008" lon="4.39545">
        <ele>85.8</ele>
        <time>2014-10-26T13:56:35Z</time>
      </trkpt>
      <trkpt lat="44.01008" lon="4.39559">
        <ele>85.3</ele>
        <time>2014-10-26T13:56:42Z</time>
      </trkpt>
      <trkpt lat="44.01006" lon="4.39571">
        <ele>85.3</ele>
        <time>2014-10-26T13:56:50Z</time>
      </trkpt>
      <trkpt lat="44.01006" lon="4.39585">
        <ele>84.6</ele>
        <time>2014-10-26T13:56:56Z</time>
      </trkpt>
      <trkpt lat="44.01009" lon="4.39599">
        <ele>84.5</ele>
        <time>2014-10-26T13:57:02Z</time>
      </trkpt>
      <trkpt lat="44.01012" lon="4.39613">
        <ele>84.4</ele>
        <time>2014-10-26T13:57:08Z</time>
      </trkpt>
      <trkpt lat="44.01014" lon="4.39626">
        <ele>84</ele>
        <time>2014-10-26T13:57:13Z</time>
      </trkpt>
      <trkpt lat="44.01016" lon="4.39639">
        <ele>83.7</ele>
        <time>2014-10-26T13:57:19Z</time>
      </trkpt>
      <trkpt lat="44.01017" lon="4.39652">
        <ele>83.6</ele>
        <time>2014-10-26T13:57:25Z</time>
      </trkpt>
      <trkpt lat="44.01018" lon="4.39666">
        <ele>83.6</ele>
        <time>2014-10-26T13:57:31Z</time>
      </trkpt>
      <trkpt lat="44.0102" lon="4.3968">
        <ele>83.6</ele>
        <time>2014-10-26T13:57:37Z</time>
      </trkpt>
      <trkpt lat="44.01021" lon="4.39694">
        <ele>83.6</ele>
        <time>2014-10-26T13:57:44Z</time>
      </trkpt>
      <trkpt lat="44.01025" lon="4.39707">
        <ele>83.4</ele>
        <time>2014-10-26T13:57:50Z</time>
      </trkpt>
      <trkpt lat="44.0103" lon="4.3972">
        <ele>83.3</ele>
        <time>2014-10-26T13:57:56Z</time>
      </trkpt>
      <trkpt lat="44.01031" lon="4.39733">
        <ele>83</ele>
        <time>2014-10-26T13:58:02Z</time>
      </trkpt>
      <trkpt lat="44.01032" lon="4.39747">
        <ele>83.1</ele>
        <time>2014-10-26T13:58:08Z</time>
      </trkpt>
      <trkpt lat="44.01039" lon="4.39756">
        <ele>83.3</ele>
        <time>2014-10-26T13:58:15Z</time>
      </trkpt>
      <trkpt lat="44.01046" lon="4.39767">
        <ele>83.5</ele>
        <time>2014-10-26T13:58:28Z</time>
      </trkpt>
      <trkpt lat="44.01057" lon="4.39771">
        <ele>82.7</ele>
        <time>2014-10-26T13:59:05Z</time>
      </trkpt>
      <trkpt lat="44.01066" lon="4.39773">
        <ele>82.2</ele>
        <time>2014-10-26T13:59:14Z</time>
      </trkpt>
      <trkpt lat="44.01075" lon="4.39777">
        <ele>81.9</ele>
        <time>2014-10-26T13:59:21Z</time>
      </trkpt>
      <trkpt lat="44.01084" lon="4.39782">
        <ele>82</ele>
        <time>2014-10-26T13:59:28Z</time>
      </trkpt>
      <trkpt lat="44.01093" lon="4.39788">
        <ele>82.2</ele>
        <time>2014-10-26T13:59:38Z</time>
      </trkpt>
      <trkpt lat="44.01103" lon="4.39793">
        <ele>81.9</ele>
        <time>2014-10-26T13:59:46Z</time>
      </trkpt>
      <trkpt lat="44.01113" lon="4.39797">
        <ele>81.5</ele>
        <time>2014-10-26T13:59:57Z</time>
      </trkpt>
      <trkpt lat="44.01121" lon="4.39803">
        <ele>81.9</ele>
        <time>2014-10-26T14:00:08Z</time>
      </trkpt>
      <trkpt lat="44.0113" lon="4.39809">
        <ele>82.1</ele>
        <time>2014-10-26T14:00:18Z</time>
      </trkpt>
      <trkpt lat="44.01139" lon="4.39813">
        <ele>81.7</ele>
        <time>2014-10-26T14:00:27Z</time>
      </trkpt>
      <trkpt lat="44.01148" lon="4.39817">
        <ele>82.2</ele>
        <time>2014-10-26T14:00:33Z</time>
      </trkpt>
      <trkpt lat="44.01157" lon="4.39821">
        <ele>81.8</ele>
        <time>2014-10-26T14:00:40Z</time>
      </trkpt>
      <trkpt lat="44.01163" lon="4.3983">
        <ele>82.3</ele>
        <time>2014-10-26T14:00:48Z</time>
      </trkpt>
      <trkpt lat="44.01173" lon="4.39835">
        <ele>81.8</ele>
        <time>2014-10-26T14:00:56Z</time>
      </trkpt>
      <trkpt lat="44.01181" lon="4.39842">
        <ele>82.4</ele>
        <time>2014-10-26T14:01:07Z</time>
      </trkpt>
      <trkpt lat="44.0119" lon="4.39848">
        <ele>82.6</ele>
        <time>2014-10-26T14:01:16Z</time>
      </trkpt>
      <trkpt lat="44.012" lon="4.39853">
        <ele>82.5</ele>
        <time>2014-10-26T14:01:24Z</time>
      </trkpt>
      <trkpt lat="44.0121" lon="4.39858">
        <ele>82.9</ele>
        <time>2014-10-26T14:01:31Z</time>
      </trkpt>
      <trkpt lat="44.01218" lon="4.39863">
        <ele>83</ele>
        <time>2014-10-26T14:01:39Z</time>
      </trkpt>
      <trkpt lat="44.01227" lon="4.39868">
        <ele>83.1</ele>
        <time>2014-10-26T14:01:47Z</time>
      </trkpt>
      <trkpt lat="44.01236" lon="4.39874">
        <ele>83.1</ele>
        <time>2014-10-26T14:01:56Z</time>
      </trkpt>
      <trkpt lat="44.01244" lon="4.39881">
        <ele>83.2</ele>
        <time>2014-10-26T14:02:05Z</time>
      </trkpt>
      <trkpt lat="44.01252" lon="4.39889">
        <ele>82.2</ele>
        <time>2014-10-26T14:02:13Z</time>
      </trkpt>
      <trkpt lat="44.01262" lon="4.39894">
        <ele>83.6</ele>
        <time>2014-10-26T14:02:20Z</time>
      </trkpt>
      <trkpt lat="44.01271" lon="4.39893">
        <ele>83.5</ele>
        <time>2014-10-26T14:02:26Z</time>
      </trkpt>
      <trkpt lat="44.01278" lon="4.39884">
        <ele>83.9</ele>
        <time>2014-10-26T14:02:35Z</time>
      </trkpt>
      <trkpt lat="44.0128" lon="4.39872">
        <ele>84</ele>
        <time>2014-10-26T14:02:43Z</time>
      </trkpt>
      <trkpt lat="44.01281" lon="4.39869">
        <ele>83.1</ele>
        <time>2014-10-26T14:02:45Z</time>
      </trkpt>
    </trkseg>
  </trk>
</gpx>